| time (UTC) | temp C | wind direction | speed KPH | gust KPH | rain 1hr cm | rain 24hr cm | rain mn cm | humidity % | barometer mb |
| 20260906214618 | 14 | 132 | 1.6 | 6.4 | 0.00 | 0.00 | 0.00 | 69 | 1022.3 |
| 20260906214520 | 14 | 132 | 1.6 | 6.4 | 0.00 | 0.00 | 0.00 | 69 | 1022.3 |
| 20260906214401 | 14 | 132 | 1.6 | 6.4 | 0.00 | 0.00 | 0.00 | 69 | 1022.3 |
| 20260906214317 | 14 | 132 | 1.6 | 6.4 | 0.00 | 0.00 | 0.00 | 68 | 1022.3 |
| 20260906214217 | 14 | 133 | 3.2 | 6.4 | 0.00 | 0.00 | 0.00 | 68 | 1022.4 |
| 20260906214120 | 14 | 133 | 3.2 | 6.4 | 0.00 | 0.00 | 0.00 | 68 | 1022.3 |
| 20260906214116 | 14 | 133 | 3.2 | 6.4 | 0.00 | 0.00 | 0.00 | 68 | 1022.3 |
| 20260906214112 | 14 | 133 | 3.2 | 6.4 | 0.00 | 0.00 | 0.00 | 68 | 1022.4 |
| 20260906213818 | 14 | 133 | 3.2 | 6.4 | 0.00 | 0.00 | 0.00 | 69 | 1022.4 |
| 20260906213717 | 14 | 133 | 3.2 | 6.4 | 0.00 | 0.00 | 0.00 | 68 | 1022.3 |
| 20260906213613 | 14 | 133 | 3.2 | 6.4 | 0.00 | 0.00 | 0.00 | 68 | 1022.4 |
| 20260906213514 | 14 | 133 | 4.8 | 8.0 | 0.00 | 0.00 | 0.00 | 68 | 1022.4 |
| 20260906213402 | 14 | 139 | 4.8 | 11.3 | 0.00 | 0.00 | 0.00 | 68 | 1022.4 |
| 20260906213314 | 14 | 139 | 4.8 | 11.3 | 0.00 | 0.00 | 0.00 | 68 | 1022.4 |
| 20260906213214 | 14 | 139 | 4.8 | 11.3 | 0.00 | 0.00 | 0.00 | 68 | 1022.4 |
| 20260906213113 | 14 | 139 | 4.8 | 11.3 | 0.00 | 0.00 | 0.00 | 68 | 1022.4 |
| 20260906213013 | 14 | 139 | 6.4 | 11.3 | 0.00 | 0.00 | 0.00 | 68 | 1022.3 |
| 20260906212902 | 14 | 140 | 6.4 | 11.3 | 0.00 | 0.00 | 0.00 | 67 | 1022.4 |
| 20260906212814 | 14 | 140 | 6.4 | 11.3 | 0.00 | 0.00 | 0.00 | 67 | 1022.3 |
| 20260906212714 | 14 | 139 | 6.4 | 11.3 | 0.00 | 0.00 | 0.00 | 67 | 1022.4 |
| 20260906212614 | 15 | 138 | 6.4 | 11.3 | 0.00 | 0.00 | 0.00 | 67 | 1022.4 |
| 20260906212514 | 15 | 143 | 6.4 | 11.3 | 0.00 | 0.00 | 0.00 | 67 | 1022.4 |
| 20260906212418 | 15 | 129 | 4.8 | 11.3 | 0.00 | 0.00 | 0.00 | 67 | 1022.4 |
| 20260906212414 | 15 | 139 | 4.8 | 11.3 | 0.00 | 0.00 | 0.00 | 66 | 1022.4 |
| 20260906212313 | 15 | 147 | 4.8 | 11.3 | 0.00 | 0.00 | 0.00 | 66 | 1022.4 |
| 20260906212214 | 15 | 140 | 4.8 | 11.3 | 0.00 | 0.00 | 0.00 | 66 | 1022.4 |
| 20260906212114 | 15 | 139 | 4.8 | 11.3 | 0.00 | 0.00 | 0.00 | 66 | 1022.4 |
| 20260906212014 | 15 | 141 | 4.8 | 11.3 | 0.00 | 0.00 | 0.00 | 66 | 1022.4 |
| 20260906211914 | 15 | 139 | 4.8 | 11.3 | 0.00 | 0.00 | 0.00 | 65 | 1022.4 |
| 20260906211901 | 15 | 140 | 4.8 | 11.3 | 0.00 | 0.00 | 0.00 | 65 | 1022.4 |
| 20260906211813 | 15 | 150 | 4.8 | 11.3 | 0.00 | 0.00 | 0.00 | 65 | 1022.4 |
| 20260906211713 | 15 | 149 | 4.8 | 11.3 | 0.00 | 0.00 | 0.00 | 65 | 1022.4 |
| 20260906211610 | 15 | 146 | 6.4 | 11.3 | 0.00 | 0.00 | 0.00 | 65 | 1022.4 |
| 20260906211509 | 15 | 142 | 6.4 | 11.3 | 0.00 | 0.00 | 0.00 | 65 | 1022.4 |
| 20260906211401 | 15 | 142 | 6.4 | 11.3 | 0.00 | 0.00 | 0.00 | 65 | 1022.4 |
| 20260906211309 | 15 | 140 | 4.8 | 11.3 | 0.00 | 0.00 | 0.00 | 65 | 1022.3 |
| 20260906211209 | 15 | 136 | 4.8 | 11.3 | 0.00 | 0.00 | 0.00 | 65 | 1022.4 |
| 20260906211109 | 15 | 147 | 4.8 | 11.3 | 0.00 | 0.00 | 0.00 | 64 | 1022.3 |
| 20260906211009 | 15 | 138 | 4.8 | 11.3 | 0.00 | 0.00 | 0.00 | 64 | 1022.4 |
| 20260906210909 | 15 | 133 | 4.8 | 11.3 | 0.00 | 0.00 | 0.00 | 64 | 1022.4 |
| 20260906210902 | 15 | 130 | 4.8 | 11.3 | 0.00 | 0.00 | 0.00 | 64 | 1022.4 |
| 20260906210810 | 15 | 140 | 4.8 | 11.3 | 0.00 | 0.00 | 0.00 | 64 | 1022.4 |
| 20260906210710 | 15 | 143 | 4.8 | 11.3 | 0.00 | 0.00 | 0.00 | 64 | 1022.4 |
| 20260906210610 | 15 | 143 | 3.2 | 11.3 | 0.00 | 0.00 | 0.00 | 64 | 1022.4 |
| 20260906210510 | 15 | 145 | 3.2 | 9.7 | 0.00 | 0.00 | 0.00 | 64 | 1022.4 |
| 20260906210401 | 15 | 128 | 3.2 | 9.7 | 0.00 | 0.00 | 0.00 | 64 | 1022.3 |
| 20260906210309 | 15 | 118 | 3.2 | 9.7 | 0.00 | 0.00 | 0.00 | 64 | 1022.4 |
| 20260906210209 | 15 | 117 | 3.2 | 9.7 | 0.00 | 0.00 | 0.00 | 64 | 1022.4 |
| 20260906210110 | 15 | 116 | 3.2 | 9.7 | 0.00 | 0.00 | 0.00 | 64 | 1022.3 |
| 20260906210010 | 15 | 119 | 3.2 | 9.7 | 0.00 | 0.00 | 0.00 | 63 | 1022.3 |
| 20260906205902 | 15 | 120 | 3.2 | 9.7 | 0.00 | 0.00 | 0.00 | 63 | 1022.4 |
| 20260906205805 | 15 | 119 | 3.2 | 9.7 | 0.00 | 0.00 | 0.00 | 63 | 1022.4 |
| 20260906205705 | 15 | 109 | 3.2 | 6.4 | 0.00 | 0.00 | 0.00 | 63 | 1022.4 |
| 20260906205605 | 15 | 119 | 3.2 | 8.0 | 0.00 | 0.00 | 0.00 | 63 | 1022.4 |
| 20260906205505 | 15 | 121 | 3.2 | 8.0 | 0.00 | 0.00 | 0.00 | 63 | 1022.4 |
| 20260906205402 | 15 | 121 | 3.2 | 8.0 | 0.00 | 0.00 | 0.00 | 63 | 1022.4 |
| 20260906205306 | 15 | 131 | 3.2 | 8.0 | 0.00 | 0.00 | 0.00 | 63 | 1022.4 |
| 20260906205206 | 15 | 132 | 4.8 | 8.0 | 0.00 | 0.00 | 0.00 | 63 | 1022.4 |
| 20260906205105 | 15 | 139 | 4.8 | 8.0 | 0.00 | 0.00 | 0.00 | 63 | 1022.4 |
| 20260906205005 | 16 | 139 | 4.8 | 8.0 | 0.00 | 0.00 | 0.00 | 63 | 1022.4 |
| 20260906204901 | 16 | 143 | 4.8 | 8.0 | 0.00 | 0.00 | 0.00 | 62 | 1022.5 |
| 20260906204805 | 16 | 144 | 4.8 | 8.0 | 0.00 | 0.00 | 0.00 | 62 | 1022.4 |
| 20260906204705 | 16 | 144 | 4.8 | 8.0 | 0.00 | 0.00 | 0.00 | 62 | 1022.4 |
| 20260906204605 | 16 | 147 | 4.8 | 8.0 | 0.00 | 0.00 | 0.00 | 62 | 1022.4 |
| 20260906204505 | 16 | 144 | 4.8 | 8.0 | 0.00 | 0.00 | 0.00 | 61 | 1022.4 |
| 20260906204402 | 16 | 143 | 4.8 | 9.7 | 0.00 | 0.00 | 0.00 | 61 | 1022.4 |
| 20260906204306 | 16 | 144 | 4.8 | 9.7 | 0.00 | 0.00 | 0.00 | 61 | 1022.4 |
| 20260906204206 | 16 | 142 | 6.4 | 9.7 | 0.00 | 0.00 | 0.00 | 61 | 1022.4 |
| 20260906204105 | 16 | 138 | 6.4 | 9.7 | 0.00 | 0.00 | 0.00 | 61 | 1022.4 |
| 20260906204005 | 16 | 137 | 4.8 | 9.7 | 0.00 | 0.00 | 0.00 | 61 | 1022.4 |
| 20260906203901 | 16 | 145 | 4.8 | 9.7 | 0.00 | 0.00 | 0.00 | 61 | 1022.4 |
| 20260906203801 | 16 | 136 | 4.8 | 9.7 | 0.00 | 0.00 | 0.00 | 60 | 1022.4 |
| 20260906203701 | 16 | 137 | 6.4 | 11.3 | 0.00 | 0.00 | 0.00 | 61 | 1022.5 |
| 20260906203601 | 16 | 129 | 6.4 | 11.3 | 0.00 | 0.00 | 0.00 | 61 | 1022.5 |
| 20260906203501 | 16 | 132 | 6.4 | 11.3 | 0.00 | 0.00 | 0.00 | 61 | 1022.4 |
| 20260906203402 | 16 | 125 | 6.4 | 11.3 | 0.00 | 0.00 | 0.00 | 61 | 1022.4 |
| 20260906203302 | 16 | 101 | 6.4 | 11.3 | 0.00 | 0.00 | 0.00 | 61 | 1022.4 |
| 20260906203201 | 16 | 136 | 6.4 | 11.3 | 0.00 | 0.00 | 0.00 | 61 | 1022.4 |
| 20260906203101 | 16 | 121 | 6.4 | 11.3 | 0.00 | 0.00 | 0.00 | 61 | 1022.4 |
| 20260906203001 | 16 | 138 | 6.4 | 11.3 | 0.00 | 0.00 | 0.00 | 60 | 1022.4 |
| 20260906202903 | 16 | 146 | 6.4 | 11.3 | 0.00 | 0.00 | 0.00 | 60 | 1022.5 |
| 20260906202859 | 16 | 146 | 6.4 | 11.3 | 0.00 | 0.00 | 0.00 | 60 | 1022.5 |
| 20260906202758 | 16 | 136 | 6.4 | 11.3 | 0.00 | 0.00 | 0.00 | 61 | 1022.4 |
| 20260906202651 | 16 | 146 | 6.4 | 11.3 | 0.00 | 0.00 | 0.00 | 60 | 1022.4 |
| 20260906202628 | 16 | 146 | 4.8 | 11.3 | 0.00 | 0.00 | 0.00 | 60 | 1022.5 |
| 20260906202617 | 16 | 144 | 4.8 | 11.3 | 0.00 | 0.00 | 0.00 | 60 | 1022.5 |
| 20260906202612 | 16 | 145 | 4.8 | 11.3 | 0.00 | 0.00 | 0.00 | 60 | 1022.5 |
| 20260906202347 | 16 | 138 | 4.8 | 11.3 | 0.00 | 0.00 | 0.00 | 60 | 1022.5 |
| 20260906202245 | 16 | 138 | 4.8 | 11.3 | 0.00 | 0.00 | 0.00 | 61 | 1022.5 |
| 20260906202143 | 16 | 147 | 4.8 | 11.3 | 0.00 | 0.00 | 0.00 | 61 | 1022.5 |
| 20260906202044 | 16 | 141 | 4.8 | 11.3 | 0.00 | 0.00 | 0.00 | 61 | 1022.5 |
| 20260906201944 | 16 | 138 | 4.8 | 9.7 | 0.00 | 0.00 | 0.00 | 61 | 1022.5 |
| 20260906201901 | 16 | 143 | 4.8 | 8.0 | 0.00 | 0.00 | 0.00 | 61 | 1022.6 |
| 20260906201841 | 16 | 138 | 4.8 | 8.0 | 0.00 | 0.00 | 0.00 | 61 | 1022.6 |
| 20260906201740 | 16 | 144 | 3.2 | 8.0 | 0.00 | 0.00 | 0.00 | 61 | 1022.5 |
| 20260906201636 | 16 | 142 | 3.2 | 8.0 | 0.00 | 0.00 | 0.00 | 61 | 1022.5 |
| 20260906201534 | 16 | 138 | 3.2 | 8.0 | 0.00 | 0.00 | 0.00 | 61 | 1022.5 |
| 20260906201436 | 16 | 131 | 3.2 | 8.0 | 0.00 | 0.00 | 0.00 | 61 | 1022.6 |
| 20260906201432 | 16 | 128 | 3.2 | 8.0 | 0.00 | 0.00 | 0.00 | 61 | 1022.5 |
| 20260906201331 | 16 | 129 | 3.2 | 8.0 | 0.00 | 0.00 | 0.00 | 61 | 1022.5 |
| 20260906201231 | 16 | 144 | 3.2 | 8.0 | 0.00 | 0.00 | 0.00 | 61 | 1022.5 |
| 20260906201131 | 16 | 142 | 3.2 | 8.0 | 0.00 | 0.00 | 0.00 | 61 | 1022.5 |
| 20260906201032 | 16 | 140 | 3.2 | 8.0 | 0.00 | 0.00 | 0.00 | 61 | 1022.5 |
| 20260906200930 | 16 | 143 | 4.8 | 8.0 | 0.00 | 0.00 | 0.00 | 61 | 1022.5 |
| 20260906200901 | 16 | 142 | 4.8 | 8.0 | 0.00 | 0.00 | 0.00 | 61 | 1022.6 |
| 20260906200829 | 16 | 142 | 4.8 | 8.0 | 0.00 | 0.00 | 0.00 | 61 | 1022.6 |
| 20260906200729 | 16 | 141 | 4.8 | 8.0 | 0.00 | 0.00 | 0.00 | 61 | 1022.5 |
| 20260906200629 | 16 | 141 | 4.8 | 8.0 | 0.00 | 0.00 | 0.00 | 60 | 1022.6 |
| 20260906200529 | 16 | 141 | 4.8 | 8.0 | 0.00 | 0.00 | 0.00 | 61 | 1022.6 |
| 20260906200429 | 16 | 141 | 3.2 | 8.0 | 0.00 | 0.00 | 0.00 | 60 | 1022.6 |
| 20260906200401 | 16 | 140 | 3.2 | 8.0 | 0.00 | 0.00 | 0.00 | 60 | 1022.6 |
| 20260906200330 | 16 | 142 | 3.2 | 8.0 | 0.00 | 0.00 | 0.00 | 60 | 1022.6 |
| 20260906200229 | 16 | 143 | 3.2 | 8.0 | 0.00 | 0.00 | 0.00 | 60 | 1022.6 |
| 20260906200123 | 16 | 141 | 3.2 | 8.0 | 0.00 | 0.00 | 0.00 | 60 | 1022.6 |
| 20260906200025 | 16 | 143 | 3.2 | 8.0 | 0.00 | 0.00 | 0.00 | 60 | 1022.7 |
| 20260906195901 | 16 | 146 | 3.2 | 6.4 | 0.00 | 0.00 | 0.00 | 60 | 1022.6 |
| 20260906195823 | 16 | 144 | 3.2 | 6.4 | 0.00 | 0.00 | 0.00 | 59 | 1022.6 |
| 20260906195723 | 16 | 140 | 3.2 | 11.3 | 0.00 | 0.00 | 0.00 | 60 | 1022.7 |
| 20260906195617 | 16 | 140 | 3.2 | 11.3 | 0.00 | 0.00 | 0.00 | 59 | 1022.6 |
| 20260906195517 | 16 | 113 | 3.2 | 11.3 | 0.00 | 0.00 | 0.00 | 58 | 1022.6 |
| 20260906195418 | 16 | 110 | 3.2 | 11.3 | 0.00 | 0.00 | 0.00 | 59 | 1022.7 |
| 20260906195401 | 16 | 105 | 3.2 | 11.3 | 0.00 | 0.00 | 0.00 | 59 | 1022.7 |
| 20260906195317 | 16 | 105 | 3.2 | 11.3 | 0.00 | 0.00 | 0.00 | 58 | 1022.6 |
| 20260906195216 | 16 | 102 | 3.2 | 11.3 | 0.00 | 0.00 | 0.00 | 58 | 1022.6 |
| 20260906195117 | 16 | 100 | 3.2 | 11.3 | 0.00 | 0.00 | 0.00 | 58 | 1022.6 |
| 20260906195015 | 16 | 86 | 3.2 | 11.3 | 0.00 | 0.00 | 0.00 | 59 | 1022.6 |
| 20260906194915 | 16 | 98 | 3.2 | 11.3 | 0.00 | 0.00 | 0.00 | 59 | 1022.5 |
| 20260906194901 | 16 | 97 | 3.2 | 11.3 | 0.00 | 0.00 | 0.00 | 59 | 1022.5 |
| 20260906194813 | 16 | 94 | 3.2 | 11.3 | 0.00 | 0.00 | 0.00 | 58 | 1022.6 |
| 20260906194711 | 16 | 86 | 3.2 | 9.7 | 0.00 | 0.00 | 0.00 | 59 | 1022.5 |
| 20260906194606 | 16 | 73 | 3.2 | 9.7 | 0.00 | 0.00 | 0.00 | 59 | 1022.5 |
| 20260906194506 | 16 | 106 | 3.2 | 9.7 | 0.00 | 0.00 | 0.00 | 59 | 1022.6 |
| 20260906194400 | 16 | 111 | 3.2 | 9.7 | 0.00 | 0.00 | 0.00 | 58 | 1022.6 |
| 20260906194305 | 16 | 92 | 3.2 | 9.7 | 0.00 | 0.00 | 0.00 | 58 | 1022.5 |
| 20260906194204 | 16 | 93 | 3.2 | 9.7 | 0.00 | 0.00 | 0.00 | 58 | 1022.5 |
| 20260906194105 | 16 | 78 | 3.2 | 9.7 | 0.00 | 0.00 | 0.00 | 59 | 1022.5 |
| 20260906194002 | 16 | 107 | 3.2 | 9.7 | 0.00 | 0.00 | 0.00 | 59 | 1022.5 |
| 20260906193901 | 16 | 107 | 3.2 | 9.7 | 0.00 | 0.00 | 0.00 | 60 | 1022.6 |
| 20260906193802 | 17 | 103 | 3.2 | 9.7 | 0.00 | 0.00 | 0.00 | 59 | 1022.6 |
| 20260906193701 | 17 | 98 | 3.2 | 6.4 | 0.00 | 0.00 | 0.00 | 59 | 1022.6 |
| 20260906193601 | 17 | 124 | 3.2 | 6.4 | 0.00 | 0.00 | 0.00 | 59 | 1022.6 |
| 20260906193501 | 17 | 124 | 3.2 | 6.4 | 0.00 | 0.00 | 0.00 | 60 | 1022.6 |
| 20260906193401 | 17 | 126 | 3.2 | 6.4 | 0.00 | 0.00 | 0.00 | 60 | 1022.6 |
| 20260906193301 | 17 | 99 | 3.2 | 6.4 | 0.00 | 0.00 | 0.00 | 59 | 1022.6 |
| 20260906193201 | 17 | 99 | 3.2 | 6.4 | 0.00 | 0.00 | 0.00 | 60 | 1022.6 |
| 20260906193101 | 17 | 98 | 3.2 | 6.4 | 0.00 | 0.00 | 0.00 | 60 | 1022.6 |
| 20260906193001 | 17 | 105 | 3.2 | 6.4 | 0.00 | 0.00 | 0.00 | 60 | 1022.6 |
| 20260906192901 | 17 | 98 | 3.2 | 6.4 | 0.00 | 0.00 | 0.00 | 60 | 1022.6 |
| 20260906192801 | 17 | 97 | 3.2 | 9.7 | 0.00 | 0.00 | 0.00 | 59 | 1022.6 |
| 20260906192701 | 17 | 101 | 3.2 | 9.7 | 0.00 | 0.00 | 0.00 | 60 | 1022.6 |
| 20260906192601 | 17 | 113 | 3.2 | 9.7 | 0.00 | 0.00 | 0.00 | 59 | 1022.6 |
| 20260906192501 | 17 | 111 | 3.2 | 9.7 | 0.00 | 0.00 | 0.00 | 59 | 1022.6 |
| 20260906192401 | 17 | 95 | 3.2 | 9.7 | 0.00 | 0.00 | 0.00 | 59 | 1022.6 |
| 20260906192301 | 17 | 102 | 3.2 | 9.7 | 0.00 | 0.00 | 0.00 | 60 | 1022.6 |
| 20260906192201 | 17 | 103 | 3.2 | 9.7 | 0.00 | 0.00 | 0.00 | 60 | 1022.6 |
| 20260906192104 | 17 | 103 | 3.2 | 9.7 | 0.00 | 0.00 | 0.00 | 59 | 1022.6 |
| 20260906191959 | 17 | 103 | 3.2 | 9.7 | 0.00 | 0.00 | 0.00 | 59 | 1022.7 |
| 20260906191901 | 17 | 103 | 3.2 | 9.7 | 0.00 | 0.00 | 0.00 | 58 | 1022.6 |
| 20260906191855 | 17 | 103 | 3.2 | 9.7 | 0.00 | 0.00 | 0.00 | 58 | 1022.6 |
| 20260906191755 | 17 | 118 | 3.2 | 9.7 | 0.00 | 0.00 | 0.00 | 58 | 1022.6 |
| 20260906191655 | 17 | 113 | 3.2 | 9.7 | 0.00 | 0.00 | 0.00 | 58 | 1022.6 |
| 20260906191555 | 17 | 113 | 3.2 | 9.7 | 0.00 | 0.00 | 0.00 | 57 | 1022.6 |
| 20260906191452 | 17 | 113 | 3.2 | 9.7 | 0.00 | 0.00 | 0.00 | 58 | 1022.6 |
| 20260906191400 | 17 | 116 | 3.2 | 9.7 | 0.00 | 0.00 | 0.00 | 58 | 1022.6 |
| 20260906191349 | 17 | 116 | 3.2 | 9.7 | 0.00 | 0.00 | 0.00 | 58 | 1022.6 |
| 20260906191247 | 17 | 83 | 3.2 | 9.7 | 0.00 | 0.00 | 0.00 | 59 | 1022.6 |
| 20260906191147 | 17 | 82 | 3.2 | 9.7 | 0.00 | 0.00 | 0.00 | 60 | 1022.5 |
| 20260906191047 | 17 | 101 | 3.2 | 9.7 | 0.00 | 0.00 | 0.00 | 59 | 1022.6 |
| 20260906190947 | 17 | 101 | 3.2 | 9.7 | 0.00 | 0.00 | 0.00 | 59 | 1022.6 |
| 20260906190901 | 17 | 85 | 3.2 | 9.7 | 0.00 | 0.00 | 0.00 | 59 | 1022.6 |
| 20260906190845 | 17 | 98 | 3.2 | 9.7 | 0.00 | 0.00 | 0.00 | 59 | 1022.6 |
| 20260906190745 | 17 | 112 | 3.2 | 4.8 | 0.00 | 0.00 | 0.00 | 58 | 1022.6 |
| 20260906190645 | 17 | 109 | 3.2 | 4.8 | 0.00 | 0.00 | 0.00 | 59 | 1022.5 |
| 20260906190545 | 17 | 109 | 3.2 | 4.8 | 0.00 | 0.00 | 0.00 | 59 | 1022.6 |
| 20260906190445 | 17 | 128 | 3.2 | 4.8 | 0.00 | 0.00 | 0.00 | 58 | 1022.6 |
| 20260906190401 | 17 | 126 | 3.2 | 4.8 | 0.00 | 0.00 | 0.00 | 58 | 1022.6 |
| 20260906190351 | 17 | 125 | 3.2 | 9.7 | 0.00 | 0.00 | 0.00 | 59 | 1022.7 |
| 20260906190346 | 17 | 126 | 3.2 | 4.8 | 0.00 | 0.00 | 0.00 | 58 | 1022.6 |
| 20260906190342 | 17 | 125 | 3.2 | 6.4 | 0.00 | 0.00 | 0.00 | 59 | 1022.6 |
| 20260906190338 | 17 | 125 | 3.2 | 6.4 | 0.00 | 0.00 | 0.00 | 58 | 1022.7 |
| 20260906190121 | 17 | 126 | 3.2 | 9.7 | 0.00 | 0.00 | 0.00 | 58 | 1022.6 |
| 20260906190113 | 17 | 125 | 3.2 | 9.7 | 0.00 | 0.00 | 0.00 | 59 | 1022.6 |
| 20260906185844 | 17 | 125 | 3.2 | 9.7 | 0.00 | 0.00 | 0.00 | 58 | 1022.7 |
| 20260906185741 | 17 | 125 | 3.2 | 9.7 | 0.00 | 0.00 | 0.00 | 58 | 1022.6 |
| 20260906185641 | 17 | 125 | 3.2 | 9.7 | 0.00 | 0.00 | 0.00 | 58 | 1022.6 |
| 20260906185539 | 17 | 124 | 3.2 | 9.7 | 0.00 | 0.00 | 0.00 | 59 | 1022.6 |
| 20260906185437 | 17 | 122 | 3.2 | 9.7 | 0.00 | 0.00 | 0.00 | 58 | 1022.6 |
| 20260906185401 | 17 | 122 | 3.2 | 9.7 | 0.00 | 0.00 | 0.00 | 57 | 1022.6 |
| 20260906185337 | 17 | 112 | 3.2 | 9.7 | 0.00 | 0.00 | 0.00 | 57 | 1022.6 |
| 20260906185236 | 17 | 112 | 3.2 | 9.7 | 0.00 | 0.00 | 0.00 | 57 | 1022.6 |
| 20260906185134 | 17 | 107 | 3.2 | 9.7 | 0.00 | 0.00 | 0.00 | 57 | 1022.6 |
| 20260906185034 | 17 | 115 | 3.2 | 6.4 | 0.00 | 0.00 | 0.00 | 57 | 1022.6 |
| 20260906184932 | 17 | 123 | 3.2 | 4.8 | 0.00 | 0.00 | 0.00 | 57 | 1022.6 |
| 20260906184901 | 18 | 123 | 3.2 | 4.8 | 0.00 | 0.00 | 0.00 | 57 | 1022.6 |
| 20260906184832 | 18 | 123 | 3.2 | 4.8 | 0.00 | 0.00 | 0.00 | 57 | 1022.6 |
| 20260906184731 | 18 | 122 | 3.2 | 4.8 | 0.00 | 0.00 | 0.00 | 57 | 1022.6 |
| 20260906184631 | 18 | 123 | 3.2 | 4.8 | 0.00 | 0.00 | 0.00 | 57 | 1022.6 |
| 20260906184531 | 18 | 123 | 3.2 | 4.8 | 0.00 | 0.00 | 0.00 | 57 | 1022.6 |
| 20260906184432 | 18 | 123 | 3.2 | 4.8 | 0.00 | 0.00 | 0.00 | 57 | 1022.7 |
| 20260906184400 | 18 | 117 | 3.2 | 4.8 | 0.00 | 0.00 | 0.00 | 57 | 1022.6 |
| 20260906184331 | 18 | 113 | 3.2 | 4.8 | 0.00 | 0.00 | 0.00 | 57 | 1022.6 |
| 20260906184230 | 18 | 114 | 3.2 | 4.8 | 0.00 | 0.00 | 0.00 | 57 | 1022.7 |
| 20260906184130 | 18 | 111 | 3.2 | 4.8 | 0.00 | 0.00 | 0.00 | 57 | 1022.7 |
| 20260906184029 | 18 | 111 | 3.2 | 4.8 | 0.00 | 0.00 | 0.00 | 57 | 1022.7 |
| 20260906183901 | 18 | 111 | 3.2 | 4.8 | 0.00 | 0.00 | 0.00 | 57 | 1022.6 |
| 20260906183837 | 18 | 107 | 1.6 | 4.8 | 0.00 | 0.00 | 0.00 | 57 | 1022.6 |
| 20260906183832 | 18 | 111 | 3.2 | 4.8 | 0.00 | 0.00 | 0.00 | 57 | 1022.6 |
| 20260906183829 | 18 | 111 | 3.2 | 4.8 | 0.00 | 0.00 | 0.00 | 57 | 1022.6 |
| 20260906183824 | 18 | 111 | 3.2 | 4.8 | 0.00 | 0.00 | 0.00 | 56 | 1022.6 |
| 20260906183624 | 18 | 109 | 1.6 | 4.8 | 0.00 | 0.00 | 0.00 | 57 | 1022.7 |
| 20260906183614 | 18 | 108 | 1.6 | 4.8 | 0.00 | 0.00 | 0.00 | 57 | 1022.6 |
| 20260906183329 | 18 | 107 | 1.6 | 4.8 | 0.00 | 0.00 | 0.00 | 57 | 1022.6 |
| 20260906183229 | 18 | 107 | 1.6 | 4.8 | 0.00 | 0.00 | 0.00 | 57 | 1022.6 |
| 20260906183130 | 18 | 107 | 1.6 | 4.8 | 0.00 | 0.00 | 0.00 | 56 | 1022.7 |
| 20260906183029 | 18 | 107 | 1.6 | 4.8 | 0.00 | 0.00 | 0.00 | 56 | 1022.6 |
| 20260906182901 | 18 | 107 | 1.6 | 4.8 | 0.00 | 0.00 | 0.00 | 56 | 1022.6 |
| 20260906182829 | 18 | 106 | 1.6 | 9.7 | 0.00 | 0.00 | 0.00 | 56 | 1022.6 |
| 20260906182729 | 18 | 105 | 1.6 | 9.7 | 0.00 | 0.00 | 0.00 | 56 | 1022.6 |
| 20260906182628 | 18 | 106 | 1.6 | 9.7 | 0.00 | 0.00 | 0.00 | 56 | 1022.6 |
| 20260906182528 | 18 | 106 | 1.6 | 9.7 | 0.00 | 0.00 | 0.00 | 56 | 1022.6 |
| 20260906182429 | 18 | 106 | 1.6 | 9.7 | 0.00 | 0.00 | 0.00 | 55 | 1022.6 |
| 20260906182401 | 18 | 107 | 1.6 | 9.7 | 0.00 | 0.00 | 0.00 | 55 | 1022.6 |
| 20260906182335 | 18 | 107 | 1.6 | 9.7 | 0.00 | 0.00 | 0.00 | 55 | 1022.6 |
| 20260906182229 | 18 | 107 | 1.6 | 9.7 | 0.00 | 0.00 | 0.00 | 56 | 1022.6 |
| 20260906182129 | 19 | 107 | 1.6 | 9.7 | 0.00 | 0.00 | 0.00 | 56 | 1022.6 |
| 20260906182029 | 19 | 107 | 1.6 | 9.7 | 0.00 | 0.00 | 0.00 | 55 | 1022.5 |
| 20260906181901 | 19 | 107 | 1.6 | 9.7 | 0.00 | 0.00 | 0.00 | 56 | 1022.5 |
| 20260906181828 | 19 | 104 | 1.6 | 4.8 | 0.00 | 0.00 | 0.00 | 56 | 1022.5 |
| 20260906181728 | 19 | 104 | 1.6 | 4.8 | 0.00 | 0.00 | 0.00 | 55 | 1022.5 |
| 20260906181628 | 19 | 103 | 1.6 | 4.8 | 0.00 | 0.00 | 0.00 | 56 | 1022.4 |
| 20260906181528 | 19 | 103 | 1.6 | 4.8 | 0.00 | 0.00 | 0.00 | 56 | 1022.5 |
| 20260906181401 | 19 | 103 | 1.6 | 4.8 | 0.00 | 0.00 | 0.00 | 54 | 1022.5 |
| 20260906181329 | 19 | 102 | 1.6 | 4.8 | 0.00 | 0.00 | 0.00 | 55 | 1022.5 |
| 20260906181229 | 19 | 102 | 1.6 | 4.8 | 0.00 | 0.00 | 0.00 | 55 | 1022.4 |
| 20260906181129 | 19 | 102 | 1.6 | 3.2 | 0.00 | 0.00 | 0.00 | 55 | 1022.4 |
| 20260906181029 | 20 | 102 | 1.6 | 3.2 | 0.00 | 0.00 | 0.00 | 54 | 1022.4 |
| 20260906180929 | 20 | 102 | 1.6 | 3.2 | 0.00 | 0.00 | 0.00 | 54 | 1022.5 |
| 20260906180901 | 20 | 102 | 1.6 | 3.2 | 0.00 | 0.00 | 0.00 | 55 | 1022.5 |
| 20260906180829 | 20 | 103 | 1.6 | 3.2 | 0.00 | 0.00 | 0.00 | 55 | 1022.5 |
| 20260906180730 | 20 | 103 | 1.6 | 3.2 | 0.00 | 0.00 | 0.00 | 56 | 1022.4 |
| 20260906180629 | 20 | 103 | 1.6 | 3.2 | 0.00 | 0.00 | 0.00 | 56 | 1022.4 |
| 20260906180529 | 20 | 103 | 1.6 | 3.2 | 0.00 | 0.00 | 0.00 | 55 | 1022.4 |
| 20260906180429 | 20 | 103 | 1.6 | 3.2 | 0.00 | 0.00 | 0.00 | 54 | 1022.4 |
| 20260906180401 | 20 | 102 | 1.6 | 3.2 | 0.00 | 0.00 | 0.00 | 56 | 1022.4 |
| 20260906180329 | 20 | 101 | 1.6 | 3.2 | 0.00 | 0.00 | 0.00 | 56 | 1022.4 |
| 20260906180228 | 20 | 103 | 1.6 | 3.2 | 0.00 | 0.00 | 0.00 | 56 | 1022.4 |
| 20260906180129 | 20 | 103 | 1.6 | 3.2 | 0.00 | 0.00 | 0.00 | 56 | 1022.4 |
| 20260906180029 | 20 | 103 | 1.6 | 3.2 | 0.00 | 0.00 | 0.00 | 56 | 1022.4 |
| 20260906175900 | 20 | 103 | 1.6 | 3.2 | 0.00 | 0.00 | 0.00 | 55 | 1022.4 |
| 20260906175829 | 20 | 103 | 1.6 | 3.2 | 0.00 | 0.00 | 0.00 | 55 | 1022.4 |
| 20260906175729 | 20 | 103 | 0.0 | 3.2 | 0.00 | 0.00 | 0.00 | 55 | 1022.4 |
| 20260906175629 | 20 | 103 | 0.0 | 3.2 | 0.00 | 0.00 | 0.00 | 53 | 1022.4 |
| 20260906175529 | 20 | 88 | 0.0 | 3.2 | 0.00 | 0.00 | 0.00 | 54 | 1022.4 |
| 20260906175429 | 20 | 89 | 0.0 | 3.2 | 0.00 | 0.00 | 0.00 | 53 | 1022.3 |
| 20260906175400 | 20 | 89 | 0.0 | 1.6 | 0.00 | 0.00 | 0.00 | 53 | 1022.4 |
| 20260906175329 | 20 | 88 | 0.0 | 1.6 | 0.00 | 0.00 | 0.00 | 53 | 1022.4 |
| 20260906175229 | 20 | 88 | 0.0 | 1.6 | 0.00 | 0.00 | 0.00 | 53 | 1022.3 |
| 20260906175129 | 20 | 88 | 0.0 | 1.6 | 0.00 | 0.00 | 0.00 | 53 | 1022.4 |
| 20260906175029 | 20 | 88 | 0.0 | 1.6 | 0.00 | 0.00 | 0.00 | 53 | 1022.4 |
| 20260906174900 | 20 | 88 | 0.0 | 1.6 | 0.00 | 0.00 | 0.00 | 53 | 1022.3 |
| 20260906174829 | 20 | 88 | 0.0 | 1.6 | 0.00 | 0.00 | 0.00 | 53 | 1022.3 |
| 20260906174729 | 20 | 88 | 0.0 | 1.6 | 0.00 | 0.00 | 0.00 | 53 | 1022.3 |
| 20260906174629 | 20 | 88 | 0.0 | 0.0 | 0.00 | 0.00 | 0.00 | 53 | 1022.4 |
| 20260906174525 | 21 | 88 | 0.0 | 0.0 | 0.00 | 0.00 | 0.00 | 53 | 1022.4 |
| 20260906174400 | 21 | 88 | 0.0 | 0.0 | 0.00 | 0.00 | 0.00 | 53 | 1022.4 |
| 20260906174325 | 21 | 88 | 0.0 | 0.0 | 0.00 | 0.00 | 0.00 | 53 | 1022.4 |
| 20260906174225 | 21 | 88 | 0.0 | 0.0 | 0.00 | 0.00 | 0.00 | 53 | 1022.4 |
| 20260906174125 | 21 | 88 | 0.0 | 0.0 | 0.00 | 0.00 | 0.00 | 52 | 1022.4 |
| 20260906174025 | 21 | 88 | 0.0 | 0.0 | 0.00 | 0.00 | 0.00 | 53 | 1022.4 |
| 20260906173901 | 21 | 88 | 0.0 | 1.6 | 0.00 | 0.00 | 0.00 | 52 | 1022.4 |
| 20260906173825 | 21 | 88 | 0.0 | 1.6 | 0.00 | 0.00 | 0.00 | 53 | 1022.4 |
| 20260906173723 | 21 | 88 | 0.0 | 1.6 | 0.00 | 0.00 | 0.00 | 52 | 1022.4 |
| 20260906173621 | 21 | 88 | 0.0 | 1.6 | 0.00 | 0.00 | 0.00 | 53 | 1022.4 |
| 20260906173522 | 21 | 88 | 0.0 | 3.2 | 0.00 | 0.00 | 0.00 | 53 | 1022.4 |
| 20260906173419 | 21 | 88 | 0.0 | 3.2 | 0.00 | 0.00 | 0.00 | 52 | 1022.4 |
| 20260906173401 | 21 | 88 | 0.0 | 3.2 | 0.00 | 0.00 | 0.00 | 53 | 1022.4 |
| 20260906173318 | 21 | 88 | 0.0 | 3.2 | 0.00 | 0.00 | 0.00 | 52 | 1022.4 |
| 20260906173217 | 21 | 88 | 0.0 | 3.2 | 0.00 | 0.00 | 0.00 | 51 | 1022.4 |
| 20260906173117 | 21 | 88 | 0.0 | 3.2 | 0.00 | 0.00 | 0.00 | 52 | 1022.4 |
| 20260906173017 | 21 | 88 | 0.0 | 3.2 | 0.00 | 0.00 | 0.00 | 52 | 1022.4 |
| 20260906172917 | 21 | 88 | 0.0 | 3.2 | 0.00 | 0.00 | 0.00 | 51 | 1022.4 |
| 20260906172901 | 21 | 87 | 0.0 | 3.2 | 0.00 | 0.00 | 0.00 | 50 | 1022.4 |
| 20260906172815 | 21 | 87 | 0.0 | 3.2 | 0.00 | 0.00 | 0.00 | 50 | 1022.4 |
| 20260906172715 | 21 | 88 | 0.0 | 4.8 | 0.00 | 0.00 | 0.00 | 51 | 1022.4 |
| 20260906172615 | 21 | 88 | 0.0 | 4.8 | 0.00 | 0.00 | 0.00 | 51 | 1022.4 |
| 20260906172514 | 21 | 87 | 0.0 | 4.8 | 0.00 | 0.00 | 0.00 | 50 | 1022.4 |
| 20260906172411 | 21 | 87 | 0.0 | 6.4 | 0.00 | 0.00 | 0.00 | 50 | 1022.4 |
| 20260906172401 | 21 | 87 | 0.0 | 6.4 | 0.00 | 0.00 | 0.00 | 49 | 1022.4 |
| 20260906172311 | 21 | 87 | 0.0 | 6.4 | 0.00 | 0.00 | 0.00 | 49 | 1022.4 |
| 20260906172209 | 21 | 87 | 1.6 | 6.4 | 0.00 | 0.00 | 0.00 | 50 | 1022.4 |
| 20260906172109 | 21 | 86 | 1.6 | 6.4 | 0.00 | 0.00 | 0.00 | 50 | 1022.4 |
| 20260906172006 | 21 | 87 | 1.6 | 6.4 | 0.00 | 0.00 | 0.00 | 50 | 1022.5 |
| 20260906171901 | 21 | 87 | 1.6 | 6.4 | 0.00 | 0.00 | 0.00 | 50 | 1022.4 |
| 20260906171803 | 21 | 87 | 1.6 | 6.4 | 0.00 | 0.00 | 0.00 | 51 | 1022.5 |
| 20260906171703 | 21 | 86 | 1.6 | 6.4 | 0.00 | 0.00 | 0.00 | 51 | 1022.4 |
| 20260906171603 | 21 | 86 | 1.6 | 6.4 | 0.00 | 0.00 | 0.00 | 51 | 1022.5 |
| 20260906171503 | 21 | 60 | 1.6 | 4.8 | 0.00 | 0.00 | 0.00 | 51 | 1022.4 |
| 20260906171400 | 21 | 93 | 1.6 | 4.8 | 0.00 | 0.00 | 0.00 | 51 | 1022.4 |
| 20260906171303 | 21 | 94 | 1.6 | 4.8 | 0.00 | 0.00 | 0.00 | 50 | 1022.5 |
| 20260906171201 | 21 | 72 | 1.6 | 4.8 | 0.00 | 0.00 | 0.00 | 50 | 1022.4 |
| 20260906171126 | 21 | 98 | 1.6 | 4.8 | 0.00 | 0.00 | 0.00 | 50 | 1022.4 |
| 20260906171122 | 21 | 100 | 1.6 | 4.8 | 0.00 | 0.00 | 0.00 | 49 | 1022.4 |
| 20260906171112 | 21 | 98 | 1.6 | 4.8 | 0.00 | 0.00 | 0.00 | 50 | 1022.4 |
| 20260906170801 | 21 | 103 | 1.6 | 4.8 | 0.00 | 0.00 | 0.00 | 49 | 1022.4 |
| 20260906170701 | 21 | 103 | 1.6 | 4.8 | 0.00 | 0.00 | 0.00 | 49 | 1022.4 |
| 20260906170631 | 21 | 103 | 1.6 | 8.0 | 0.00 | 0.00 | 0.00 | 48 | 1022.4 |
| 20260906170627 | 21 | 103 | 1.6 | 4.8 | 0.00 | 0.00 | 0.00 | 49 | 1022.4 |
| 20260906170623 | 21 | 103 | 1.6 | 8.0 | 0.00 | 0.00 | 0.00 | 49 | 1022.4 |
| 20260906170611 | 21 | 103 | 1.6 | 8.0 | 0.00 | 0.00 | 0.00 | 48 | 1022.4 |
| 20260906170301 | 21 | 84 | 1.6 | 8.0 | 0.00 | 0.00 | 0.00 | 48 | 1022.4 |
| 20260906170201 | 21 | 83 | 1.6 | 11.3 | 0.00 | 0.00 | 0.00 | 48 | 1022.4 |
| 20260906170122 | 21 | 86 | 1.6 | 11.3 | 0.00 | 0.00 | 0.00 | 49 | 1022.5 |
| 20260906170117 | 21 | 82 | 1.6 | 11.3 | 0.00 | 0.00 | 0.00 | 49 | 1022.5 |
| 20260906170113 | 21 | 79 | 1.6 | 11.3 | 0.00 | 0.00 | 0.00 | 49 | 1022.5 |
| 20260906170106 | 21 | 81 | 1.6 | 11.3 | 0.00 | 0.00 | 0.00 | 49 | 1022.5 |
| 20260906165801 | 21 | 91 | 1.6 | 11.3 | 0.00 | 0.00 | 0.00 | 49 | 1022.4 |
| 20260906165701 | 21 | 97 | 1.6 | 11.3 | 0.00 | 0.00 | 0.00 | 49 | 1022.5 |
| 20260906165609 | 21 | 80 | 1.6 | 11.3 | 0.00 | 0.00 | 0.00 | 49 | 1022.5 |
| 20260906165605 | 21 | 82 | 1.6 | 11.3 | 0.00 | 0.00 | 0.00 | 48 | 1022.4 |
| 20260906165401 | 21 | 82 | 1.6 | 11.3 | 0.00 | 0.00 | 0.00 | 49 | 1022.4 |
| 20260906165351 | 21 | 83 | 1.6 | 11.3 | 0.00 | 0.00 | 0.00 | 49 | 1022.4 |
| 20260906165306 | 22 | 71 | 1.6 | 11.3 | 0.00 | 0.00 | 0.00 | 49 | 1022.5 |
| 20260906165201 | 22 | 91 | 1.6 | 9.7 | 0.00 | 0.00 | 0.00 | 48 | 1022.5 |
| 20260906165101 | 22 | 91 | 1.6 | 9.7 | 0.00 | 0.00 | 0.00 | 49 | 1022.5 |
| 20260906165004 | 22 | 108 | 1.6 | 9.7 | 0.00 | 0.00 | 0.00 | 48 | 1022.4 |
| 20260906164900 | 22 | 103 | 1.6 | 4.8 | 0.00 | 0.00 | 0.00 | 49 | 1022.5 |
| 20260906164851 | 22 | 103 | 1.6 | 4.8 | 0.00 | 0.00 | 0.00 | 49 | 1022.5 |
| 20260906164801 | 22 | 103 | 1.6 | 6.4 | 0.00 | 0.00 | 0.00 | 49 | 1022.4 |
| 20260906164701 | 22 | 103 | 1.6 | 6.4 | 0.00 | 0.00 | 0.00 | 49 | 1022.4 |
| 20260906164601 | 22 | 105 | 1.6 | 6.4 | 0.00 | 0.00 | 0.00 | 48 | 1022.4 |
| 20260906164501 | 22 | 105 | 1.6 | 6.4 | 0.00 | 0.00 | 0.00 | 47 | 1022.4 |
| 20260906164401 | 22 | 103 | 3.2 | 8.0 | 0.00 | 0.00 | 0.00 | 48 | 1022.4 |
| 20260906164350 | 22 | 113 | 3.2 | 8.0 | 0.00 | 0.00 | 0.00 | 48 | 1022.4 |
| 20260906164302 | 22 | 114 | 3.2 | 8.0 | 0.00 | 0.00 | 0.00 | 48 | 1022.4 |
| 20260906164200 | 22 | 96 | 3.2 | 8.0 | 0.00 | 0.00 | 0.00 | 47 | 1022.4 |
| 20260906164118 | 22 | 95 | 3.2 | 8.0 | 0.00 | 0.00 | 0.00 | 46 | 1022.4 |
| 20260906164113 | 22 | 96 | 3.2 | 8.0 | 0.00 | 0.00 | 0.00 | 47 | 1022.4 |
| 20260906164109 | 22 | 92 | 3.2 | 8.0 | 0.00 | 0.00 | 0.00 | 47 | 1022.4 |
| 20260906164102 | 22 | 96 | 3.2 | 8.0 | 0.00 | 0.00 | 0.00 | 46 | 1022.4 |
| 20260906163802 | 22 | 92 | 3.2 | 8.0 | 0.00 | 0.00 | 0.00 | 47 | 1022.3 |
| 20260906163701 | 22 | 95 | 3.2 | 11.3 | 0.00 | 0.00 | 0.00 | 47 | 1022.3 |
| 20260906163601 | 22 | 95 | 3.2 | 11.3 | 0.00 | 0.00 | 0.00 | 47 | 1022.3 |
| 20260906163502 | 22 | 88 | 3.2 | 11.3 | 0.00 | 0.00 | 0.00 | 46 | 1022.3 |
| 20260906163401 | 22 | 112 | 3.2 | 11.3 | 0.00 | 0.00 | 0.00 | 46 | 1022.4 |
| 20260906163351 | 22 | 92 | 3.2 | 11.3 | 0.00 | 0.00 | 0.00 | 46 | 1022.4 |
| 20260906163301 | 22 | 86 | 3.2 | 11.3 | 0.00 | 0.00 | 0.00 | 46 | 1022.4 |
| 20260906163202 | 22 | 87 | 3.2 | 11.3 | 0.00 | 0.00 | 0.00 | 47 | 1022.4 |
| 20260906163117 | 22 | 84 | 3.2 | 11.3 | 0.00 | 0.00 | 0.00 | 47 | 1022.5 |
| 20260906163113 | 22 | 86 | 3.2 | 11.3 | 0.00 | 0.00 | 0.00 | 47 | 1022.5 |
| 20260906163109 | 22 | 101 | 3.2 | 11.3 | 0.00 | 0.00 | 0.00 | 46 | 1022.5 |
| 20260906163101 | 22 | 84 | 3.2 | 11.3 | 0.00 | 0.00 | 0.00 | 47 | 1022.5 |
| 20260906162801 | 22 | 82 | 3.2 | 11.3 | 0.00 | 0.00 | 0.00 | 46 | 1022.4 |
| 20260906162701 | 22 | 82 | 3.2 | 11.3 | 0.00 | 0.00 | 0.00 | 47 | 1022.5 |
| 20260906162617 | 22 | 94 | 3.2 | 11.3 | 0.00 | 0.00 | 0.00 | 46 | 1022.5 |
| 20260906162613 | 22 | 71 | 3.2 | 11.3 | 0.00 | 0.00 | 0.00 | 47 | 1022.5 |
| 20260906162609 | 22 | 98 | 3.2 | 11.3 | 0.00 | 0.00 | 0.00 | 46 | 1022.5 |
| 20260906162601 | 22 | 98 | 3.2 | 11.3 | 0.00 | 0.00 | 0.00 | 46 | 1022.5 |
| 20260906162300 | 22 | 114 | 3.2 | 11.3 | 0.00 | 0.00 | 0.00 | 46 | 1022.5 |
| 20260906162200 | 22 | 113 | 3.2 | 11.3 | 0.00 | 0.00 | 0.00 | 46 | 1022.5 |
| 20260906162101 | 22 | 105 | 3.2 | 11.3 | 0.00 | 0.00 | 0.00 | 46 | 1022.5 |
| 20260906162001 | 22 | 63 | 3.2 | 11.3 | 0.00 | 0.00 | 0.00 | 49 | 1022.5 |
| 20260906161901 | 22 | 85 | 3.2 | 11.3 | 0.00 | 0.00 | 0.00 | 47 | 1022.5 |
| 20260906161849 | 22 | 107 | 3.2 | 11.3 | 0.00 | 0.00 | 0.00 | 47 | 1022.5 |
| 20260906161801 | 22 | 79 | 3.2 | 11.3 | 0.00 | 0.00 | 0.00 | 48 | 1022.5 |
| 20260906161701 | 22 | 5 | 3.2 | 11.3 | 0.00 | 0.00 | 0.00 | 47 | 1022.5 |
| 20260906161600 | 22 | 111 | 3.2 | 11.3 | 0.00 | 0.00 | 0.00 | 48 | 1022.6 |
| 20260906161500 | 22 | 100 | 3.2 | 11.3 | 0.00 | 0.00 | 0.00 | 47 | 1022.5 |
| 20260906161401 | 22 | 103 | 3.2 | 11.3 | 0.00 | 0.00 | 0.00 | 45 | 1022.5 |
| 20260906161349 | 22 | 102 | 3.2 | 11.3 | 0.00 | 0.00 | 0.00 | 45 | 1022.5 |
| 20260906161259 | 22 | 67 | 1.6 | 11.3 | 0.00 | 0.00 | 0.00 | 46 | 1022.5 |
| 20260906161153 | 22 | 86 | 1.6 | 11.3 | 0.00 | 0.00 | 0.00 | 46 | 1022.5 |
| 20260906161053 | 22 | 105 | 1.6 | 11.3 | 0.00 | 0.00 | 0.00 | 47 | 1022.5 |
| 20260906160953 | 22 | 91 | 1.6 | 11.3 | 0.00 | 0.00 | 0.00 | 47 | 1022.6 |
| 20260906160853 | 22 | 103 | 1.6 | 6.4 | 0.00 | 0.00 | 0.00 | 47 | 1022.5 |
| 20260906160849 | 22 | 97 | 1.6 | 6.4 | 0.00 | 0.00 | 0.00 | 47 | 1022.5 |
| 20260906160753 | 22 | 92 | 1.6 | 6.4 | 0.00 | 0.00 | 0.00 | 47 | 1022.6 |
| 20260906160647 | 22 | 93 | 1.6 | 6.4 | 0.00 | 0.00 | 0.00 | 48 | 1022.6 |
| 20260906160547 | 22 | 93 | 1.6 | 6.4 | 0.00 | 0.00 | 0.00 | 47 | 1022.6 |
| 20260906160447 | 22 | 119 | 1.6 | 6.4 | 0.00 | 0.00 | 0.00 | 47 | 1022.6 |
| 20260906160347 | 22 | 113 | 1.6 | 6.4 | 0.00 | 0.00 | 0.00 | 47 | 1022.7 |
| 20260906160247 | 22 | 86 | 1.6 | 6.4 | 0.00 | 0.00 | 0.00 | 47 | 1022.6 |
| 20260906160140 | 22 | 90 | 1.6 | 6.4 | 0.00 | 0.00 | 0.00 | 47 | 1022.6 |
| 20260906160040 | 22 | 91 | 1.6 | 6.4 | 0.00 | 0.00 | 0.00 | 46 | 1022.6 |
| 20260906155941 | 22 | 109 | 3.2 | 11.3 | 0.00 | 0.00 | 0.00 | 46 | 1022.6 |
| 20260906155840 | 22 | 83 | 3.2 | 11.3 | 0.00 | 0.00 | 0.00 | 45 | 1022.6 |
| 20260906155740 | 22 | 81 | 3.2 | 11.3 | 0.00 | 0.00 | 0.00 | 46 | 1022.6 |
| 20260906155635 | 23 | 94 | 3.2 | 11.3 | 0.00 | 0.00 | 0.00 | 46 | 1022.6 |
| 20260906155535 | 23 | 117 | 3.2 | 11.3 | 0.00 | 0.00 | 0.00 | 45 | 1022.6 |
| 20260906155435 | 23 | 119 | 3.2 | 11.3 | 0.00 | 0.00 | 0.00 | 45 | 1022.6 |
| 20260906155349 | 23 | 119 | 3.2 | 11.3 | 0.00 | 0.00 | 0.00 | 45 | 1022.7 |
| 20260906155335 | 23 | 120 | 3.2 | 11.3 | 0.00 | 0.00 | 0.00 | 45 | 1022.7 |
| 20260906155235 | 23 | 83 | 3.2 | 12.9 | 0.00 | 0.00 | 0.00 | 46 | 1022.6 |
| 20260906155133 | 23 | 79 | 3.2 | 12.9 | 0.00 | 0.00 | 0.00 | 45 | 1022.7 |
| 20260906155033 | 23 | 79 | 4.8 | 12.9 | 0.00 | 0.00 | 0.00 | 45 | 1022.6 |
| 20260906154933 | 23 | 96 | 3.2 | 12.9 | 0.00 | 0.00 | 0.00 | 45 | 1022.5 |
| 20260906154848 | 23 | 82 | 3.2 | 12.9 | 0.00 | 0.00 | 0.00 | 44 | 1022.6 |
| 20260906154833 | 23 | 103 | 3.2 | 12.9 | 0.00 | 0.00 | 0.00 | 44 | 1022.6 |
| 20260906154733 | 23 | 74 | 3.2 | 12.9 | 0.00 | 0.00 | 0.00 | 45 | 1022.6 |
| 20260906154633 | 23 | 75 | 3.2 | 12.9 | 0.00 | 0.00 | 0.00 | 45 | 1022.6 |
| 20260906154616 | 23 | 90 | 3.2 | 12.9 | 0.00 | 0.00 | 0.00 | 45 | 1022.6 |
| 20260906154608 | 23 | 74 | 4.8 | 12.9 | 0.00 | 0.00 | 0.00 | 46 | 1022.6 |
| 20260906154605 | 23 | 74 | 4.8 | 12.9 | 0.00 | 0.00 | 0.00 | 46 | 1022.6 |
| 20260906154328 | 23 | 100 | 3.2 | 11.3 | 0.00 | 0.00 | 0.00 | 45 | 1022.6 |
| 20260906154229 | 23 | 100 | 3.2 | 11.3 | 0.00 | 0.00 | 0.00 | 44 | 1022.6 |
| 20260906154129 | 23 | 78 | 3.2 | 11.3 | 0.00 | 0.00 | 0.00 | 44 | 1022.6 |
| 20260906154030 | 23 | 67 | 3.2 | 11.3 | 0.00 | 0.00 | 0.00 | 44 | 1022.6 |
| 20260906153929 | 23 | 92 | 3.2 | 11.3 | 0.00 | 0.00 | 0.00 | 44 | 1022.6 |
| 20260906153848 | 23 | 84 | 3.2 | 11.3 | 0.00 | 0.00 | 0.00 | 45 | 1022.5 |
| 20260906153829 | 23 | 88 | 3.2 | 11.3 | 0.00 | 0.00 | 0.00 | 45 | 1022.5 |
| 20260906153729 | 23 | 89 | 3.2 | 11.3 | 0.00 | 0.00 | 0.00 | 45 | 1022.5 |
| 20260906153629 | 23 | 101 | 3.2 | 11.3 | 0.00 | 0.00 | 0.00 | 46 | 1022.5 |
| 20260906153529 | 23 | 52 | 3.2 | 11.3 | 0.00 | 0.00 | 0.00 | 45 | 1022.5 |
| 20260906153429 | 23 | 63 | 3.2 | 11.3 | 0.00 | 0.00 | 0.00 | 46 | 1022.5 |
| 20260906153353 | 23 | 84 | 3.2 | 11.3 | 0.00 | 0.00 | 0.00 | 45 | 1022.5 |
| 20260906153332 | 23 | 98 | 4.8 | 12.9 | 0.00 | 0.00 | 0.00 | 45 | 1022.6 |
| 20260906153328 | 23 | 110 | 3.2 | 11.3 | 0.00 | 0.00 | 0.00 | 45 | 1022.5 |
| 20260906153324 | 23 | 82 | 3.2 | 11.3 | 0.00 | 0.00 | 0.00 | 45 | 1022.5 |
| 20260906153320 | 23 | 101 | 3.2 | 11.3 | 0.00 | 0.00 | 0.00 | 45 | 1022.5 |
| 20260906153103 | 23 | 101 | 3.2 | 12.9 | 0.00 | 0.00 | 0.00 | 44 | 1022.6 |
| 20260906153059 | 23 | 100 | 4.8 | 12.9 | 0.00 | 0.00 | 0.00 | 44 | 1022.6 |
| 20260906152829 | 23 | 80 | 4.8 | 12.9 | 0.00 | 0.00 | 0.00 | 45 | 1022.6 |
| 20260906152728 | 23 | 92 | 4.8 | 12.9 | 0.00 | 0.00 | 0.00 | 45 | 1022.6 |
| 20260906152628 | 23 | 98 | 4.8 | 12.9 | 0.00 | 0.00 | 0.00 | 44 | 1022.6 |
| 20260906152528 | 23 | 90 | 4.8 | 12.9 | 0.00 | 0.00 | 0.00 | 44 | 1022.6 |
| 20260906152430 | 23 | 76 | 4.8 | 12.9 | 0.00 | 0.00 | 0.00 | 44 | 1022.6 |
| 20260906152340 | 23 | 78 | 4.8 | 12.9 | 0.00 | 0.00 | 0.00 | 43 | 1022.6 |
| 20260906152329 | 23 | 90 | 4.8 | 12.9 | 0.00 | 0.00 | 0.00 | 42 | 1022.6 |
| 20260906152325 | 23 | 78 | 4.8 | 11.3 | 0.00 | 0.00 | 0.00 | 45 | 1022.6 |
| 20260906152318 | 23 | 89 | 4.8 | 12.9 | 0.00 | 0.00 | 0.00 | 45 | 1022.6 |
| 20260906152314 | 23 | 103 | 4.8 | 12.9 | 0.00 | 0.00 | 0.00 | 45 | 1022.6 |
| 20260906152053 | 23 | 88 | 4.8 | 12.9 | 0.00 | 0.00 | 0.00 | 46 | 1022.6 |
| 20260906152049 | 23 | 98 | 3.2 | 11.3 | 0.00 | 0.00 | 0.00 | 44 | 1022.6 |
| 20260906151833 | 23 | 75 | 4.8 | 11.3 | 0.00 | 0.00 | 0.00 | 45 | 1022.6 |
| 20260906151728 | 23 | 93 | 3.2 | 11.3 | 0.00 | 0.00 | 0.00 | 45 | 1022.6 |
| 20260906151629 | 23 | 103 | 3.2 | 11.3 | 0.00 | 0.00 | 0.00 | 44 | 1022.6 |
| 20260906151528 | 23 | 82 | 3.2 | 11.3 | 0.00 | 0.00 | 0.00 | 44 | 1022.6 |
| 20260906151428 | 23 | 117 | 3.2 | 11.3 | 0.00 | 0.00 | 0.00 | 46 | 1022.6 |
| 20260906151337 | 23 | 110 | 3.2 | 11.3 | 0.00 | 0.00 | 0.00 | 45 | 1022.6 |
| 20260906151329 | 23 | 106 | 3.2 | 11.3 | 0.00 | 0.00 | 0.00 | 45 | 1022.6 |
| 20260906151230 | 23 | 130 | 3.2 | 11.3 | 0.00 | 0.00 | 0.00 | 44 | 1022.6 |
| 20260906151128 | 23 | 96 | 3.2 | 11.3 | 0.00 | 0.00 | 0.00 | 45 | 1022.7 |
| 20260906151029 | 23 | 111 | 3.2 | 12.9 | 0.00 | 0.00 | 0.00 | 46 | 1022.7 |
| 20260906150929 | 23 | 159 | 3.2 | 12.9 | 0.00 | 0.00 | 0.00 | 45 | 1022.8 |
| 20260906150835 | 23 | 95 | 3.2 | 12.9 | 0.00 | 0.00 | 0.00 | 45 | 1022.7 |
| 20260906150829 | 23 | 109 | 3.2 | 12.9 | 0.00 | 0.00 | 0.00 | 45 | 1022.7 |
| 20260906150729 | 23 | 82 | 3.2 | 12.9 | 0.00 | 0.00 | 0.00 | 44 | 1022.6 |
| 20260906150653 | 23 | 71 | 3.2 | 12.9 | 0.00 | 0.00 | 0.00 | 44 | 1022.7 |
| 20260906150649 | 23 | 97 | 3.2 | 12.9 | 0.00 | 0.00 | 0.00 | 44 | 1022.7 |
| 20260906150549 | 23 | 89 | 3.2 | 12.9 | 0.00 | 0.00 | 0.00 | 44 | 1022.7 |
| 20260906150546 | 23 | 92 | 3.2 | 12.9 | 0.00 | 0.00 | 0.00 | 43 | 1022.7 |
| 20260906150326 | 23 | 71 | 3.2 | 12.9 | 0.00 | 0.00 | 0.00 | 44 | 1022.7 |
| 20260906150226 | 23 | 78 | 3.2 | 12.9 | 0.00 | 0.00 | 0.00 | 45 | 1022.7 |
| 20260906150124 | 23 | 68 | 3.2 | 12.9 | 0.00 | 0.00 | 0.00 | 45 | 1022.8 |
| 20260906150019 | 23 | 98 | 3.2 | 12.9 | 0.00 | 0.00 | 0.00 | 45 | 1022.7 |
| 20260906145919 | 23 | 99 | 3.2 | 12.9 | 0.00 | 0.00 | 0.00 | 44 | 1022.7 |
| 20260906145835 | 23 | 92 | 3.2 | 12.9 | 0.00 | 0.00 | 0.00 | 45 | 1022.7 |
| 20260906145818 | 23 | 92 | 3.2 | 12.9 | 0.00 | 0.00 | 0.00 | 45 | 1022.8 |
| 20260906145717 | 23 | 110 | 4.8 | 12.9 | 0.00 | 0.00 | 0.00 | 45 | 1022.8 |
| 20260906145616 | 23 | 105 | 4.8 | 12.9 | 0.00 | 0.00 | 0.00 | 44 | 1022.8 |
| 20260906145510 | 23 | 102 | 4.8 | 12.9 | 0.00 | 0.00 | 0.00 | 44 | 1022.8 |
| 20260906145410 | 23 | 126 | 4.8 | 12.9 | 0.00 | 0.00 | 0.00 | 44 | 1022.8 |
| 20260906145335 | 23 | 113 | 4.8 | 12.9 | 0.00 | 0.00 | 0.00 | 45 | 1022.8 |
| 20260906145308 | 23 | 84 | 4.8 | 12.9 | 0.00 | 0.00 | 0.00 | 45 | 1022.9 |
| 20260906145208 | 24 | 115 | 4.8 | 12.9 | 0.00 | 0.00 | 0.00 | 45 | 1022.8 |
| 20260906145109 | 24 | 94 | 4.8 | 12.9 | 0.00 | 0.00 | 0.00 | 45 | 1022.9 |
| 20260906145003 | 24 | 95 | 4.8 | 12.9 | 0.00 | 0.00 | 0.00 | 44 | 1022.8 |
| 20260906144903 | 24 | 104 | 3.2 | 12.9 | 0.00 | 0.00 | 0.00 | 44 | 1022.8 |
| 20260906144834 | 24 | 104 | 3.2 | 12.9 | 0.00 | 0.00 | 0.00 | 45 | 1022.8 |
| 20260906144803 | 24 | 62 | 3.2 | 12.9 | 0.00 | 0.00 | 0.00 | 45 | 1022.9 |
| 20260906144706 | 24 | 102 | 3.2 | 12.9 | 0.00 | 0.00 | 0.00 | 44 | 1022.9 |
| 20260906144602 | 24 | 102 | 3.2 | 12.9 | 0.00 | 0.00 | 0.00 | 44 | 1022.8 |
| 20260906144502 | 24 | 91 | 3.2 | 12.9 | 0.00 | 0.00 | 0.00 | 45 | 1022.9 |
| 20260906144400 | 24 | 66 | 3.2 | 11.3 | 0.00 | 0.00 | 0.00 | 45 | 1022.9 |
| 20260906144333 | 24 | 94 | 3.2 | 11.3 | 0.00 | 0.00 | 0.00 | 45 | 1022.9 |
| 20260906144326 | 24 | 92 | 3.2 | 12.9 | 0.00 | 0.00 | 0.00 | 46 | 1022.8 |
| 20260906144318 | 24 | 80 | 3.2 | 11.3 | 0.00 | 0.00 | 0.00 | 45 | 1022.9 |
| 20260906144312 | 24 | 89 | 3.2 | 11.3 | 0.00 | 0.00 | 0.00 | 46 | 1022.9 |
| 20260906144308 | 24 | 69 | 3.2 | 12.9 | 0.00 | 0.00 | 0.00 | 46 | 1022.9 |
| 20260906144048 | 24 | 92 | 3.2 | 12.9 | 0.00 | 0.00 | 0.00 | 46 | 1022.9 |
| 20260906144045 | 24 | 92 | 3.2 | 12.9 | 0.00 | 0.00 | 0.00 | 46 | 1022.8 |
| 20260906143800 | 24 | 78 | 3.2 | 12.9 | 0.00 | 0.00 | 0.00 | 45 | 1022.9 |
| 20260906143701 | 24 | 101 | 3.2 | 12.9 | 0.00 | 0.00 | 0.00 | 45 | 1022.9 |
| 20260906143601 | 24 | 100 | 3.2 | 12.9 | 0.00 | 0.00 | 0.00 | 44 | 1022.9 |
| 20260906143501 | 24 | 88 | 3.2 | 12.9 | 0.00 | 0.00 | 0.00 | 44 | 1022.9 |
| 20260906143401 | 24 | 132 | 3.2 | 12.9 | 0.00 | 0.00 | 0.00 | 44 | 1022.9 |
| 20260906143332 | 24 | 88 | 3.2 | 12.9 | 0.00 | 0.00 | 0.00 | 44 | 1022.9 |
| 20260906143305 | 24 | 99 | 3.2 | 12.9 | 0.00 | 0.00 | 0.00 | 44 | 1023.0 |
| 20260906143201 | 24 | 93 | 3.2 | 14.5 | 0.00 | 0.00 | 0.00 | 44 | 1022.9 |
| 20260906143101 | 24 | 101 | 3.2 | 14.5 | 0.00 | 0.00 | 0.00 | 43 | 1022.9 |
| 20260906143001 | 24 | 150 | 3.2 | 14.5 | 0.00 | 0.00 | 0.00 | 44 | 1023.0 |
| 20260906142901 | 24 | 77 | 3.2 | 14.5 | 0.00 | 0.00 | 0.00 | 43 | 1022.9 |
| 20260906142833 | 24 | 97 | 3.2 | 14.5 | 0.00 | 0.00 | 0.00 | 44 | 1022.9 |
| 20260906142801 | 24 | 113 | 3.2 | 14.5 | 0.00 | 0.00 | 0.00 | 44 | 1023.0 |
| 20260906142701 | 24 | 118 | 3.2 | 14.5 | 0.00 | 0.00 | 0.00 | 44 | 1023.0 |
| 20260906142601 | 24 | 89 | 3.2 | 14.5 | 0.00 | 0.00 | 0.00 | 46 | 1023.0 |
| 20260906142501 | 24 | 88 | 3.2 | 14.5 | 0.00 | 0.00 | 0.00 | 46 | 1023.0 |
| 20260906142401 | 24 | 67 | 3.2 | 14.5 | 0.00 | 0.00 | 0.00 | 45 | 1023.0 |
| 20260906142333 | 24 | 113 | 3.2 | 14.5 | 0.00 | 0.00 | 0.00 | 44 | 1023.0 |
| 20260906142301 | 24 | 113 | 3.2 | 14.5 | 0.00 | 0.00 | 0.00 | 44 | 1023.0 |
| 20260906142201 | 24 | 74 | 3.2 | 12.9 | 0.00 | 0.00 | 0.00 | 44 | 1023.0 |
| 20260906142101 | 24 | 129 | 3.2 | 11.3 | 0.00 | 0.00 | 0.00 | 45 | 1023.0 |
| 20260906142001 | 24 | 102 | 3.2 | 11.3 | 0.00 | 0.00 | 0.00 | 45 | 1023.0 |
| 20260906141900 | 24 | 101 | 3.2 | 11.3 | 0.00 | 0.00 | 0.00 | 45 | 1023.0 |
| 20260906141833 | 24 | 96 | 3.2 | 11.3 | 0.00 | 0.00 | 0.00 | 46 | 1023.0 |
| 20260906141800 | 24 | 88 | 3.2 | 11.3 | 0.00 | 0.00 | 0.00 | 46 | 1023.1 |
| 20260906141700 | 24 | 83 | 3.2 | 11.3 | 0.00 | 0.00 | 0.00 | 46 | 1023.1 |
| 20260906141600 | 24 | 83 | 3.2 | 11.3 | 0.00 | 0.00 | 0.00 | 45 | 1023.1 |
| 20260906141500 | 24 | 79 | 3.2 | 11.3 | 0.00 | 0.00 | 0.00 | 44 | 1023.1 |
| 20260906141400 | 24 | 71 | 3.2 | 12.9 | 0.00 | 0.00 | 0.00 | 44 | 1023.1 |
| 20260906141332 | 24 | 68 | 3.2 | 12.9 | 0.00 | 0.00 | 0.00 | 44 | 1023.1 |
| 20260906141301 | 24 | 66 | 3.2 | 12.9 | 0.00 | 0.00 | 0.00 | 44 | 1023.1 |
| 20260906141201 | 24 | 109 | 3.2 | 12.9 | 0.00 | 0.00 | 0.00 | 45 | 1023.0 |
| 20260906141140 | 24 | 86 | 3.2 | 14.5 | 0.00 | 0.00 | 0.00 | 45 | 1023.2 |
| 20260906141133 | 23 | 80 | 3.2 | 12.9 | 0.00 | 0.00 | 0.00 | 45 | 1023.1 |
| 20260906141129 | 23 | 92 | 3.2 | 12.9 | 0.00 | 0.00 | 0.00 | 45 | 1023.1 |
| 20260906140915 | 23 | 89 | 3.2 | 12.9 | 0.00 | 0.00 | 0.00 | 46 | 1023.1 |
| 20260906140910 | 23 | 105 | 3.2 | 12.9 | 0.00 | 0.00 | 0.00 | 46 | 1023.1 |
| 20260906140906 | 23 | 86 | 3.2 | 12.9 | 0.00 | 0.00 | 0.00 | 48 | 1023.1 |
| 20260906140858 | 23 | 91 | 3.2 | 14.5 | 0.00 | 0.00 | 0.00 | 46 | 1023.2 |
| 20260906140638 | 23 | 90 | 4.8 | 14.5 | 0.00 | 0.00 | 0.00 | 45 | 1023.1 |
| 20260906140634 | 23 | 103 | 3.2 | 14.5 | 0.00 | 0.00 | 0.00 | 44 | 1023.1 |
| 20260906140419 | 24 | 90 | 3.2 | 14.5 | 0.00 | 0.00 | 0.00 | 45 | 1023.1 |
| 20260906140415 | 24 | 111 | 3.2 | 14.5 | 0.00 | 0.00 | 0.00 | 45 | 1023.1 |
| 20260906140411 | 24 | 115 | 3.2 | 14.5 | 0.00 | 0.00 | 0.00 | 45 | 1023.1 |
| 20260906140403 | 24 | 112 | 3.2 | 14.5 | 0.00 | 0.00 | 0.00 | 45 | 1023.1 |
| 20260906140147 | 24 | 100 | 3.2 | 14.5 | 0.00 | 0.00 | 0.00 | 45 | 1023.1 |
| 20260906140048 | 24 | 80 | 3.2 | 14.5 | 0.00 | 0.00 | 0.00 | 45 | 1023.1 |
| 20260906140044 | 24 | 96 | 3.2 | 14.5 | 0.00 | 0.00 | 0.00 | 45 | 1023.2 |
| 20260906135800 | 24 | 71 | 3.2 | 14.5 | 0.00 | 0.00 | 0.00 | 44 | 1023.2 |
| 20260906135701 | 24 | 93 | 3.2 | 12.9 | 0.00 | 0.00 | 0.00 | 44 | 1023.2 |
| 20260906135601 | 24 | 79 | 3.2 | 12.9 | 0.00 | 0.00 | 0.00 | 46 | 1023.2 |
| 20260906135555 | 23 | 80 | 3.2 | 12.9 | 0.00 | 0.00 | 0.00 | 46 | 1023.2 |
| 20260906135547 | 24 | 67 | 3.2 | 12.9 | 0.00 | 0.00 | 0.00 | 46 | 1023.2 |
| 20260906135543 | 23 | 90 | 3.2 | 12.9 | 0.00 | 0.00 | 0.00 | 44 | 1023.2 |
| 20260906135301 | 23 | 78 | 3.2 | 12.9 | 0.00 | 0.00 | 0.00 | 46 | 1023.2 |
| 20260906135201 | 23 | 94 | 3.2 | 12.9 | 0.00 | 0.00 | 0.00 | 46 | 1023.2 |
| 20260906135101 | 23 | 90 | 3.2 | 12.9 | 0.00 | 0.00 | 0.00 | 45 | 1023.2 |
| 20260906135001 | 23 | 107 | 3.2 | 12.9 | 0.00 | 0.00 | 0.00 | 47 | 1023.1 |
| 20260906134900 | 23 | 84 | 4.8 | 12.9 | 0.00 | 0.00 | 0.00 | 46 | 1023.2 |
| 20260906134833 | 23 | 84 | 4.8 | 12.9 | 0.00 | 0.00 | 0.00 | 46 | 1023.2 |
| 20260906134800 | 23 | 87 | 4.8 | 12.9 | 0.00 | 0.00 | 0.00 | 46 | 1023.2 |
| 20260906134700 | 23 | 72 | 4.8 | 12.9 | 0.00 | 0.00 | 0.00 | 46 | 1023.2 |
| 20260906134601 | 23 | 101 | 4.8 | 12.9 | 0.00 | 0.00 | 0.00 | 46 | 1023.2 |
| 20260906134501 | 23 | 92 | 4.8 | 12.9 | 0.00 | 0.00 | 0.00 | 45 | 1023.2 |
| 20260906134401 | 23 | 83 | 4.8 | 12.9 | 0.00 | 0.00 | 0.00 | 45 | 1023.4 |
| 20260906134332 | 23 | 94 | 4.8 | 12.9 | 0.00 | 0.00 | 0.00 | 46 | 1023.4 |
| 20260906134300 | 23 | 103 | 4.8 | 12.9 | 0.00 | 0.00 | 0.00 | 46 | 1023.2 |
| 20260906134201 | 23 | 123 | 4.8 | 12.9 | 0.00 | 0.00 | 0.00 | 46 | 1023.4 |
| 20260906134101 | 23 | 103 | 4.8 | 12.9 | 0.00 | 0.00 | 0.00 | 44 | 1023.4 |
| 20260906134001 | 23 | 134 | 4.8 | 12.9 | 0.00 | 0.00 | 0.00 | 44 | 1023.4 |
| 20260906133901 | 23 | 138 | 3.2 | 12.9 | 0.00 | 0.00 | 0.00 | 44 | 1023.2 |
| 20260906133832 | 23 | 169 | 3.2 | 12.9 | 0.00 | 0.00 | 0.00 | 45 | 1023.2 |
| 20260906133800 | 23 | 155 | 3.2 | 12.9 | 0.00 | 0.00 | 0.00 | 45 | 1023.2 |
| 20260906133755 | 23 | 77 | 3.2 | 9.7 | 0.00 | 0.00 | 0.00 | 47 | 1023.5 |
| 20260906133748 | 23 | 112 | 3.2 | 12.9 | 0.00 | 0.00 | 0.00 | 46 | 1023.4 |
| 20260906133743 | 23 | 99 | 3.2 | 12.9 | 0.00 | 0.00 | 0.00 | 45 | 1023.4 |
| 20260906133547 | 23 | 111 | 3.2 | 12.9 | 0.00 | 0.00 | 0.00 | 46 | 1023.4 |
| 20260906133543 | 23 | 164 | 3.2 | 9.7 | 0.00 | 0.00 | 0.00 | 47 | 1023.5 |
| 20260906133301 | 23 | 74 | 3.2 | 9.7 | 0.00 | 0.00 | 0.00 | 46 | 1023.5 |
| 20260906133234 | 23 | 97 | 3.2 | 9.7 | 0.00 | 0.00 | 0.00 | 45 | 1023.5 |
| 20260906133201 | 23 | 97 | 3.2 | 9.7 | 0.00 | 0.00 | 0.00 | 45 | 1023.5 |
| 20260906133101 | 23 | 92 | 3.2 | 9.7 | 0.00 | 0.00 | 0.00 | 46 | 1023.4 |
| 20260906133001 | 23 | 193 | 3.2 | 11.3 | 0.00 | 0.00 | 0.00 | 46 | 1023.5 |
| 20260906132900 | 23 | 107 | 3.2 | 11.3 | 0.00 | 0.00 | 0.00 | 47 | 1023.5 |
| 20260906132833 | 23 | 74 | 3.2 | 11.3 | 0.00 | 0.00 | 0.00 | 47 | 1023.5 |
| 20260906132801 | 23 | 127 | 3.2 | 11.3 | 0.00 | 0.00 | 0.00 | 46 | 1023.5 |
| 20260906132700 | 23 | 54 | 3.2 | 11.3 | 0.00 | 0.00 | 0.00 | 47 | 1023.5 |
| 20260906132600 | 23 | 108 | 3.2 | 11.3 | 0.00 | 0.00 | 0.00 | 47 | 1023.5 |
| 20260906132500 | 23 | 107 | 3.2 | 11.3 | 0.00 | 0.00 | 0.00 | 48 | 1023.5 |
| 20260906132400 | 23 | 90 | 3.2 | 12.9 | 0.00 | 0.00 | 0.00 | 46 | 1023.5 |
| 20260906132332 | 23 | 89 | 3.2 | 12.9 | 0.00 | 0.00 | 0.00 | 46 | 1023.5 |
| 20260906132301 | 23 | 88 | 3.2 | 12.9 | 0.00 | 0.00 | 0.00 | 48 | 1023.6 |
| 20260906132200 | 23 | 90 | 3.2 | 12.9 | 0.00 | 0.00 | 0.00 | 48 | 1023.5 |
| 20260906132100 | 23 | 90 | 3.2 | 12.9 | 0.00 | 0.00 | 0.00 | 50 | 1023.6 |
| 20260906132001 | 23 | 75 | 1.6 | 12.9 | 0.00 | 0.00 | 0.00 | 48 | 1023.6 |
| 20260906131901 | 23 | 71 | 1.6 | 12.9 | 0.00 | 0.00 | 0.00 | 48 | 1023.6 |
| 20260906131832 | 23 | 96 | 1.6 | 12.9 | 0.00 | 0.00 | 0.00 | 46 | 1023.6 |
| 20260906131801 | 23 | 97 | 3.2 | 12.9 | 0.00 | 0.00 | 0.00 | 46 | 1023.6 |
| 20260906131702 | 23 | 98 | 3.2 | 12.9 | 0.00 | 0.00 | 0.00 | 46 | 1023.6 |
| 20260906131601 | 23 | 98 | 3.2 | 12.9 | 0.00 | 0.00 | 0.00 | 47 | 1023.6 |
| 20260906131501 | 23 | 72 | 1.6 | 12.9 | 0.00 | 0.00 | 0.00 | 47 | 1023.6 |
| 20260906131401 | 23 | 92 | 1.6 | 9.7 | 0.00 | 0.00 | 0.00 | 48 | 1023.6 |
| 20260906131332 | 23 | 91 | 1.6 | 9.7 | 0.00 | 0.00 | 0.00 | 47 | 1023.6 |
| 20260906131300 | 23 | 91 | 3.2 | 9.7 | 0.00 | 0.00 | 0.00 | 47 | 1023.6 |
| 20260906131200 | 23 | 91 | 3.2 | 9.7 | 0.00 | 0.00 | 0.00 | 46 | 1023.6 |
| 20260906131100 | 23 | 115 | 3.2 | 11.3 | 0.00 | 0.00 | 0.00 | 47 | 1023.6 |
| 20260906131001 | 23 | 71 | 3.2 | 11.3 | 0.00 | 0.00 | 0.00 | 46 | 1023.6 |
| 20260906130901 | 23 | 68 | 4.8 | 16.1 | 0.00 | 0.00 | 0.00 | 45 | 1023.7 |
| 20260906130832 | 23 | 68 | 4.8 | 16.1 | 0.00 | 0.00 | 0.00 | 47 | 1023.7 |
| 20260906130801 | 23 | 44 | 3.2 | 16.1 | 0.00 | 0.00 | 0.00 | 47 | 1023.7 |
| 20260906130701 | 23 | 93 | 3.2 | 16.1 | 0.00 | 0.00 | 0.00 | 47 | 1023.6 |
| 20260906130601 | 23 | 92 | 3.2 | 16.1 | 0.00 | 0.00 | 0.00 | 46 | 1023.6 |
| 20260906130501 | 23 | 96 | 3.2 | 16.1 | 0.00 | 0.00 | 0.00 | 45 | 1023.6 |
| 20260906130400 | 23 | 42 | 3.2 | 16.1 | 0.00 | 0.00 | 0.00 | 46 | 1023.6 |
| 20260906130333 | 23 | 126 | 3.2 | 16.1 | 0.00 | 0.00 | 0.00 | 45 | 1023.6 |
| 20260906130301 | 23 | 130 | 3.2 | 16.1 | 0.00 | 0.00 | 0.00 | 45 | 1023.6 |
| 20260906130200 | 23 | 138 | 3.2 | 16.1 | 0.00 | 0.00 | 0.00 | 45 | 1023.6 |
| 20260906130100 | 23 | 108 | 3.2 | 16.1 | 0.00 | 0.00 | 0.00 | 46 | 1023.6 |
| 20260906130000 | 23 | 146 | 1.6 | 16.1 | 0.00 | 0.00 | 0.00 | 46 | 1023.6 |
| 20260906125900 | 23 | 142 | 1.6 | 12.9 | 0.00 | 0.00 | 0.00 | 46 | 1023.7 |
| 20260906125831 | 23 | 71 | 1.6 | 4.8 | 0.00 | 0.00 | 0.00 | 46 | 1023.7 |
| 20260906125801 | 23 | 70 | 1.6 | 4.8 | 0.00 | 0.00 | 0.00 | 47 | 1023.7 |
| 20260906125701 | 23 | 69 | 1.6 | 4.8 | 0.00 | 0.00 | 0.00 | 46 | 1023.7 |
| 20260906125603 | 23 | 69 | 1.6 | 4.8 | 0.00 | 0.00 | 0.00 | 47 | 1023.8 |
| 20260906125559 | 23 | 69 | 1.6 | 4.8 | 0.00 | 0.00 | 0.00 | 46 | 1023.9 |
| 20260906125547 | 23 | 71 | 1.6 | 4.8 | 0.00 | 0.00 | 0.00 | 45 | 1023.8 |
| 20260906125543 | 23 | 71 | 1.6 | 4.8 | 0.00 | 0.00 | 0.00 | 46 | 1023.9 |
| 20260906125306 | 23 | 69 | 1.6 | 4.8 | 0.00 | 0.00 | 0.00 | 48 | 1023.8 |
| 20260906125058 | 23 | 67 | 1.6 | 4.8 | 0.00 | 0.00 | 0.00 | 47 | 1023.8 |
| 20260906124957 | 23 | 68 | 1.6 | 6.4 | 0.00 | 0.00 | 0.00 | 46 | 1023.8 |
| 20260906124857 | 23 | 90 | 1.6 | 6.4 | 0.00 | 0.00 | 0.00 | 46 | 1023.8 |
| 20260906124830 | 23 | 318 | 1.6 | 6.4 | 0.00 | 0.00 | 0.00 | 46 | 1023.8 |
| 20260906124756 | 23 | 318 | 1.6 | 6.4 | 0.00 | 0.00 | 0.00 | 47 | 1023.8 |
| 20260906124659 | 23 | 318 | 1.6 | 6.4 | 0.00 | 0.00 | 0.00 | 48 | 1023.8 |
| 20260906124553 | 23 | 319 | 1.6 | 6.4 | 0.00 | 0.00 | 0.00 | 47 | 1023.8 |
| 20260906124545 | 23 | 319 | 1.6 | 6.4 | 0.00 | 0.00 | 0.00 | 46 | 1023.8 |
| 20260906124541 | 23 | 319 | 1.6 | 6.4 | 0.00 | 0.00 | 0.00 | 46 | 1023.8 |
| 20260906124251 | 23 | 319 | 1.6 | 6.4 | 0.00 | 0.00 | 0.00 | 47 | 1023.8 |
| 20260906124150 | 22 | 319 | 1.6 | 6.4 | 0.00 | 0.00 | 0.00 | 47 | 1023.9 |
| 20260906124048 | 22 | 43 | 1.6 | 4.8 | 0.00 | 0.00 | 0.00 | 47 | 1023.8 |
| 20260906123948 | 22 | 74 | 1.6 | 4.8 | 0.00 | 0.00 | 0.00 | 49 | 1023.8 |
| 20260906123847 | 22 | 74 | 1.6 | 4.8 | 0.00 | 0.00 | 0.00 | 50 | 1023.9 |
| 20260906123825 | 22 | 74 | 1.6 | 4.8 | 0.00 | 0.00 | 0.00 | 48 | 1023.9 |
| 20260906123746 | 22 | 73 | 1.6 | 11.3 | 0.00 | 0.00 | 0.00 | 47 | 1023.9 |
| 20260906123644 | 22 | 85 | 1.6 | 11.3 | 0.00 | 0.00 | 0.00 | 48 | 1023.9 |
| 20260906123541 | 22 | 72 | 3.2 | 11.3 | 0.00 | 0.00 | 0.00 | 47 | 1023.9 |
| 20260906123440 | 22 | 71 | 3.2 | 11.3 | 0.00 | 0.00 | 0.00 | 49 | 1023.9 |
| 20260906123340 | 22 | 63 | 3.2 | 11.3 | 0.00 | 0.00 | 0.00 | 47 | 1023.9 |
| 20260906123320 | 22 | 62 | 3.2 | 11.3 | 0.00 | 0.00 | 0.00 | 48 | 1023.9 |
| 20260906123240 | 22 | 80 | 3.2 | 11.3 | 0.00 | 0.00 | 0.00 | 48 | 1023.9 |
| 20260906123137 | 22 | 81 | 3.2 | 11.3 | 0.00 | 0.00 | 0.00 | 49 | 1023.9 |
| 20260906123038 | 22 | 80 | 3.2 | 11.3 | 0.00 | 0.00 | 0.00 | 48 | 1024.0 |
| 20260906123034 | 22 | 79 | 3.2 | 11.3 | 0.00 | 0.00 | 0.00 | 49 | 1023.9 |
| 20260906123029 | 22 | 81 | 3.2 | 11.3 | 0.00 | 0.00 | 0.00 | 47 | 1023.9 |
| 20260906123025 | 22 | 82 | 3.2 | 11.3 | 0.00 | 0.00 | 0.00 | 46 | 1023.9 |
| 20260906122734 | 22 | 97 | 3.2 | 9.7 | 0.00 | 0.00 | 0.00 | 48 | 1024.0 |
| 20260906122631 | 22 | 96 | 3.2 | 9.7 | 0.00 | 0.00 | 0.00 | 48 | 1024.0 |
| 20260906122534 | 22 | 96 | 3.2 | 9.7 | 0.00 | 0.00 | 0.00 | 49 | 1024.0 |
| 20260906122531 | 22 | 61 | 3.2 | 9.7 | 0.00 | 0.00 | 0.00 | 51 | 1024.0 |
| 20260906122522 | 22 | 97 | 3.2 | 9.7 | 0.00 | 0.00 | 0.00 | 51 | 1024.0 |
| 20260906122518 | 22 | 110 | 3.2 | 9.7 | 0.00 | 0.00 | 0.00 | 50 | 1024.0 |
| 20260906122234 | 22 | 86 | 3.2 | 9.7 | 0.00 | 0.00 | 0.00 | 49 | 1024.0 |
| 20260906122130 | 22 | 136 | 3.2 | 9.7 | 0.00 | 0.00 | 0.00 | 49 | 1024.0 |
| 20260906122030 | 22 | 84 | 1.6 | 9.7 | 0.00 | 0.00 | 0.00 | 49 | 1023.9 |
| 20260906121929 | 22 | 144 | 1.6 | 9.7 | 0.00 | 0.00 | 0.00 | 48 | 1024.0 |
| 20260906121829 | 22 | 154 | 1.6 | 9.7 | 0.00 | 0.00 | 0.00 | 49 | 1024.0 |
| 20260906121803 | 22 | 153 | 1.6 | 9.7 | 0.00 | 0.00 | 0.00 | 47 | 1024.0 |
| 20260906121759 | 22 | 147 | 1.6 | 4.8 | 0.00 | 0.00 | 0.00 | 49 | 1024.1 |
| 20260906121753 | 22 | 153 | 1.6 | 9.7 | 0.00 | 0.00 | 0.00 | 47 | 1024.0 |
| 20260906121745 | 22 | 153 | 1.6 | 9.7 | 0.00 | 0.00 | 0.00 | 48 | 1024.1 |
| 20260906121529 | 22 | 133 | 1.6 | 9.7 | 0.00 | 0.00 | 0.00 | 47 | 1024.1 |
| 20260906121520 | 22 | 115 | 1.6 | 9.7 | 0.00 | 0.00 | 0.00 | 49 | 1024.1 |
| 20260906121516 | 22 | 98 | 1.6 | 4.8 | 0.00 | 0.00 | 0.00 | 49 | 1024.1 |
| 20260906121301 | 22 | 134 | 1.6 | 4.8 | 0.00 | 0.00 | 0.00 | 49 | 1024.1 |
| 20260906121129 | 22 | 78 | 1.6 | 6.4 | 0.00 | 0.00 | 0.00 | 49 | 1024.1 |
| 20260906121030 | 22 | 78 | 3.2 | 11.3 | 0.00 | 0.00 | 0.00 | 49 | 1024.1 |
| 20260906120929 | 22 | 78 | 3.2 | 11.3 | 0.00 | 0.00 | 0.00 | 50 | 1024.1 |
| 20260906120829 | 21 | 78 | 3.2 | 11.3 | 0.00 | 0.00 | 0.00 | 49 | 1024.1 |
| 20260906120803 | 21 | 81 | 3.2 | 11.3 | 0.00 | 0.00 | 0.00 | 49 | 1024.0 |
| 20260906120729 | 21 | 81 | 3.2 | 11.3 | 0.00 | 0.00 | 0.00 | 50 | 1024.0 |
| 20260906120629 | 21 | 81 | 3.2 | 11.3 | 0.00 | 0.00 | 0.00 | 49 | 1024.1 |
| 20260906120529 | 21 | 81 | 3.2 | 11.3 | 0.00 | 0.00 | 0.00 | 50 | 1024.1 |
| 20260906120429 | 21 | 81 | 3.2 | 11.3 | 0.00 | 0.00 | 0.00 | 50 | 1024.0 |
| 20260906120329 | 21 | 81 | 3.2 | 11.3 | 0.00 | 0.00 | 0.00 | 49 | 1024.1 |
| 20260906120301 | 21 | 96 | 3.2 | 11.3 | 0.00 | 0.00 | 0.00 | 49 | 1024.1 |
| 20260906120228 | 21 | 81 | 3.2 | 11.3 | 0.00 | 0.00 | 0.00 | 48 | 1024.1 |
| 20260906120130 | 22 | 94 | 3.2 | 11.3 | 0.00 | 0.00 | 0.00 | 49 | 1024.1 |
| 20260906120029 | 21 | 107 | 3.2 | 9.7 | 0.00 | 0.00 | 0.00 | 49 | 1024.1 |
| 20260906120025 | 21 | 64 | 3.2 | 6.4 | 0.00 | 0.00 | 0.00 | 51 | 1024.1 |
| 20260906120017 | 21 | 101 | 3.2 | 8.0 | 0.00 | 0.00 | 0.00 | 51 | 1024.1 |
| 20260906120013 | 21 | 113 | 3.2 | 6.4 | 0.00 | 0.00 | 0.00 | 51 | 1024.1 |
| 20260906115729 | 21 | 76 | 3.2 | 6.4 | 0.00 | 0.00 | 0.00 | 51 | 1024.1 |
| 20260906115633 | 21 | 355 | 3.2 | 11.3 | 0.00 | 0.00 | 0.00 | 51 | 1024.1 |
| 20260906115528 | 21 | 97 | 3.2 | 11.3 | 0.00 | 0.00 | 0.00 | 51 | 1024.1 |
| 20260906115522 | 21 | 96 | 3.2 | 11.3 | 0.00 | 0.00 | 0.00 | 51 | 1024.1 |
| 20260906115517 | 21 | 92 | 3.2 | 11.3 | 0.00 | 0.00 | 0.00 | 51 | 1024.1 |
| 20260906115513 | 21 | 110 | 3.2 | 11.3 | 0.00 | 0.00 | 0.00 | 51 | 1024.1 |
| 20260906115227 | 21 | 98 | 3.2 | 11.3 | 0.00 | 0.00 | 0.00 | 51 | 1024.2 |
| 20260906115122 | 21 | 90 | 3.2 | 11.3 | 0.00 | 0.00 | 0.00 | 51 | 1024.1 |
| 20260906115022 | 21 | 87 | 3.2 | 11.3 | 0.00 | 0.00 | 0.00 | 51 | 1024.1 |
| 20260906114924 | 21 | 90 | 3.2 | 11.3 | 0.00 | 0.00 | 0.00 | 49 | 1024.1 |
| 20260906114823 | 21 | 86 | 1.6 | 11.3 | 0.00 | 0.00 | 0.00 | 50 | 1024.1 |
| 20260906114801 | 21 | 86 | 1.6 | 11.3 | 0.00 | 0.00 | 0.00 | 51 | 1024.1 |
| 20260906114751 | 21 | 96 | 1.6 | 6.4 | 0.00 | 0.00 | 0.00 | 54 | 1024.1 |
| 20260906114747 | 21 | 59 | 1.6 | 11.3 | 0.00 | 0.00 | 0.00 | 52 | 1024.1 |
| 20260906114739 | 21 | 103 | 1.6 | 11.3 | 0.00 | 0.00 | 0.00 | 53 | 1024.1 |
| 20260906114522 | 21 | 107 | 1.6 | 9.7 | 0.00 | 0.00 | 0.00 | 52 | 1024.1 |
| 20260906114518 | 21 | 107 | 1.6 | 9.7 | 0.00 | 0.00 | 0.00 | 53 | 1024.1 |
| 20260906114514 | 21 | 96 | 1.6 | 6.4 | 0.00 | 0.00 | 0.00 | 52 | 1024.1 |
| 20260906114215 | 21 | 94 | 1.6 | 6.4 | 0.00 | 0.00 | 0.00 | 53 | 1024.1 |
| 20260906114113 | 21 | 90 | 1.6 | 9.7 | 0.00 | 0.00 | 0.00 | 52 | 1024.1 |
| 20260906114010 | 21 | 90 | 3.2 | 9.7 | 0.00 | 0.00 | 0.00 | 53 | 1024.1 |
| 20260906113910 | 21 | 90 | 3.2 | 9.7 | 0.00 | 0.00 | 0.00 | 56 | 1024.1 |
| 20260906113810 | 21 | 90 | 3.2 | 9.7 | 0.00 | 0.00 | 0.00 | 53 | 1024.2 |
| 20260906113801 | 21 | 90 | 3.2 | 9.7 | 0.00 | 0.00 | 0.00 | 56 | 1024.2 |
| 20260906113709 | 21 | 90 | 3.2 | 11.3 | 0.00 | 0.00 | 0.00 | 53 | 1024.2 |
| 20260906113611 | 21 | 90 | 4.8 | 11.3 | 0.00 | 0.00 | 0.00 | 53 | 1024.2 |
| 20260906113508 | 21 | 89 | 3.2 | 11.3 | 0.00 | 0.00 | 0.00 | 54 | 1024.2 |
| 20260906113408 | 21 | 89 | 3.2 | 11.3 | 0.00 | 0.00 | 0.00 | 53 | 1024.2 |
| 20260906113301 | 21 | 67 | 3.2 | 11.3 | 0.00 | 0.00 | 0.00 | 53 | 1024.2 |
| 20260906113208 | 21 | 67 | 3.2 | 11.3 | 0.00 | 0.00 | 0.00 | 53 | 1024.2 |
| 20260906113108 | 21 | 78 | 3.2 | 11.3 | 0.00 | 0.00 | 0.00 | 54 | 1024.2 |
| 20260906113006 | 21 | 78 | 3.2 | 11.3 | 0.00 | 0.00 | 0.00 | 55 | 1024.2 |
| 20260906112906 | 21 | 76 | 3.2 | 11.3 | 0.00 | 0.00 | 0.00 | 55 | 1024.3 |
| 20260906112807 | 21 | 71 | 3.2 | 11.3 | 0.00 | 0.00 | 0.00 | 55 | 1024.3 |
| 20260906112800 | 21 | 61 | 3.2 | 11.3 | 0.00 | 0.00 | 0.00 | 55 | 1024.3 |
| 20260906112707 | 21 | 33 | 1.6 | 9.7 | 0.00 | 0.00 | 0.00 | 57 | 1024.3 |
| 20260906112606 | 21 | 92 | 1.6 | 9.7 | 0.00 | 0.00 | 0.00 | 56 | 1024.3 |
| 20260906112505 | 21 | 10 | 1.6 | 9.7 | 0.00 | 0.00 | 0.00 | 55 | 1024.3 |
| 20260906112404 | 21 | 82 | 1.6 | 9.7 | 0.00 | 0.00 | 0.00 | 56 | 1024.3 |
| 20260906112306 | 21 | 99 | 1.6 | 9.7 | 0.00 | 0.00 | 0.00 | 56 | 1024.3 |
| 20260906112300 | 21 | 105 | 1.6 | 9.7 | 0.00 | 0.00 | 0.00 | 56 | 1024.3 |
| 20260906112202 | 21 | 93 | 1.6 | 6.4 | 0.00 | 0.00 | 0.00 | 57 | 1024.3 |
| 20260906112103 | 21 | 82 | 1.6 | 6.4 | 0.00 | 0.00 | 0.00 | 56 | 1024.3 |
| 20260906112020 | 21 | 82 | 1.6 | 6.4 | 0.00 | 0.00 | 0.00 | 55 | 1024.3 |
| 20260906112016 | 21 | 82 | 3.2 | 6.4 | 0.00 | 0.00 | 0.00 | 58 | 1024.3 |
| 20260906112012 | 21 | 61 | 3.2 | 11.3 | 0.00 | 0.00 | 0.00 | 58 | 1024.3 |
| 20260906111754 | 21 | 111 | 3.2 | 11.3 | 0.00 | 0.00 | 0.00 | 56 | 1024.4 |
| 20260906111749 | 21 | 82 | 3.2 | 11.3 | 0.00 | 0.00 | 0.00 | 58 | 1024.3 |
| 20260906111741 | 21 | 111 | 3.2 | 11.3 | 0.00 | 0.00 | 0.00 | 58 | 1024.4 |
| 20260906111523 | 21 | 111 | 3.2 | 11.3 | 0.00 | 0.00 | 0.00 | 57 | 1024.3 |
| 20260906111518 | 21 | 111 | 3.2 | 11.3 | 0.00 | 0.00 | 0.00 | 56 | 1024.3 |
| 20260906111514 | 21 | 111 | 3.2 | 11.3 | 0.00 | 0.00 | 0.00 | 56 | 1024.4 |
| 20260906111201 | 21 | 117 | 3.2 | 11.3 | 0.00 | 0.00 | 0.00 | 56 | 1024.3 |
| 20260906111101 | 21 | 159 | 3.2 | 11.3 | 0.00 | 0.00 | 0.00 | 56 | 1024.3 |
| 20260906111001 | 21 | 103 | 3.2 | 11.3 | 0.00 | 0.00 | 0.00 | 56 | 1024.4 |
| 20260906110900 | 21 | 76 | 3.2 | 11.3 | 0.00 | 0.00 | 0.00 | 57 | 1024.3 |
| 20260906110801 | 21 | 123 | 3.2 | 9.7 | 0.00 | 0.00 | 0.00 | 58 | 1024.3 |
| 20260906110701 | 21 | 51 | 3.2 | 9.7 | 0.00 | 0.00 | 0.00 | 56 | 1024.4 |
| 20260906110601 | 21 | 88 | 3.2 | 9.7 | 0.00 | 0.00 | 0.00 | 56 | 1024.4 |
| 20260906110503 | 21 | 87 | 3.2 | 9.7 | 0.00 | 0.00 | 0.00 | 56 | 1024.4 |
| 20260906110401 | 21 | 93 | 3.2 | 9.7 | 0.00 | 0.00 | 0.00 | 55 | 1024.4 |
| 20260906110301 | 21 | 90 | 3.2 | 9.7 | 0.00 | 0.00 | 0.00 | 57 | 1024.4 |
| 20260906110252 | 21 | 92 | 3.2 | 9.7 | 0.00 | 0.00 | 0.00 | 59 | 1024.5 |
| 20260906110245 | 21 | 75 | 3.2 | 9.7 | 0.00 | 0.00 | 0.00 | 57 | 1024.3 |
| 20260906110238 | 21 | 105 | 3.2 | 9.7 | 0.00 | 0.00 | 0.00 | 56 | 1024.4 |
| 20260906110021 | 21 | 107 | 3.2 | 9.7 | 0.00 | 0.00 | 0.00 | 57 | 1024.4 |
| 20260906110016 | 21 | 91 | 3.2 | 9.7 | 0.00 | 0.00 | 0.00 | 58 | 1024.4 |
| 20260906110012 | 21 | 92 | 3.2 | 9.7 | 0.00 | 0.00 | 0.00 | 59 | 1024.5 |
| 20260906105700 | 21 | 88 | 3.2 | 9.7 | 0.00 | 0.00 | 0.00 | 59 | 1024.5 |
| 20260906105558 | 21 | 100 | 3.2 | 9.7 | 0.00 | 0.00 | 0.00 | 59 | 1024.5 |
| 20260906105458 | 21 | 86 | 3.2 | 9.7 | 0.00 | 0.00 | 0.00 | 57 | 1024.5 |
| 20260906105358 | 21 | 90 | 3.2 | 9.7 | 0.00 | 0.00 | 0.00 | 58 | 1024.5 |
| 20260906105305 | 21 | 98 | 3.2 | 9.7 | 0.00 | 0.00 | 0.00 | 57 | 1024.5 |
| 20260906105258 | 21 | 99 | 3.2 | 9.7 | 0.00 | 0.00 | 0.00 | 57 | 1024.5 |
| 20260906105152 | 21 | 100 | 3.2 | 9.7 | 0.00 | 0.00 | 0.00 | 58 | 1024.5 |
| 20260906105052 | 20 | 134 | 3.2 | 11.3 | 0.00 | 0.00 | 0.00 | 59 | 1024.6 |
| 20260906105027 | 20 | 105 | 6.4 | 17.7 | 0.00 | 0.00 | 0.00 | 60 | 1024.6 |
| 20260906105018 | 20 | 101 | 4.8 | 16.1 | 0.00 | 0.00 | 0.00 | 60 | 1024.6 |
| 20260906105014 | 20 | 103 | 4.8 | 17.7 | 0.00 | 0.00 | 0.00 | 59 | 1024.6 |
| 20260906104751 | 20 | 105 | 6.4 | 17.7 | 0.00 | 0.00 | 0.00 | 60 | 1024.6 |
| 20260906104648 | 20 | 105 | 6.4 | 17.7 | 0.00 | 0.00 | 0.00 | 60 | 1024.6 |
| 20260906104548 | 20 | 90 | 4.8 | 17.7 | 0.00 | 0.00 | 0.00 | 60 | 1024.6 |
| 20260906104448 | 20 | 98 | 4.8 | 17.7 | 0.00 | 0.00 | 0.00 | 60 | 1024.6 |
| 20260906104348 | 20 | 147 | 4.8 | 17.7 | 0.00 | 0.00 | 0.00 | 58 | 1024.6 |
| 20260906104301 | 20 | 146 | 4.8 | 17.7 | 0.00 | 0.00 | 0.00 | 59 | 1024.7 |
| 20260906104246 | 20 | 82 | 4.8 | 17.7 | 0.00 | 0.00 | 0.00 | 59 | 1024.7 |
| 20260906104140 | 20 | 136 | 4.8 | 17.7 | 0.00 | 0.00 | 0.00 | 61 | 1024.7 |
| 20260906104040 | 20 | 84 | 4.8 | 17.7 | 0.00 | 0.00 | 0.00 | 58 | 1024.8 |
| 20260906104021 | 20 | 111 | 1.6 | 12.9 | 0.00 | 0.00 | 0.00 | 60 | 1024.7 |
| 20260906104016 | 20 | 130 | 3.2 | 16.1 | 0.00 | 0.00 | 0.00 | 59 | 1024.7 |
| 20260906104012 | 20 | 132 | 3.2 | 12.9 | 0.00 | 0.00 | 0.00 | 60 | 1024.7 |
| 20260906103739 | 20 | 130 | 1.6 | 6.4 | 0.00 | 0.00 | 0.00 | 60 | 1024.7 |
| 20260906103638 | 20 | 91 | 3.2 | 8.0 | 0.00 | 0.00 | 0.00 | 58 | 1024.8 |
| 20260906103538 | 20 | 90 | 3.2 | 12.9 | 0.00 | 0.00 | 0.00 | 61 | 1024.8 |
| 20260906103436 | 20 | 90 | 3.2 | 12.9 | 0.00 | 0.00 | 0.00 | 60 | 1024.8 |
| 20260906103336 | 20 | 84 | 3.2 | 12.9 | 0.00 | 0.00 | 0.00 | 60 | 1024.8 |
| 20260906103301 | 20 | 101 | 3.2 | 12.9 | 0.00 | 0.00 | 0.00 | 60 | 1024.8 |
| 20260906103233 | 20 | 107 | 3.2 | 12.9 | 0.00 | 0.00 | 0.00 | 60 | 1024.8 |
| 20260906103134 | 20 | 110 | 3.2 | 12.9 | 0.00 | 0.00 | 0.00 | 60 | 1024.9 |
| 20260906103034 | 20 | 111 | 3.2 | 12.9 | 0.00 | 0.00 | 0.00 | 62 | 1024.9 |
| 20260906102934 | 20 | 79 | 3.2 | 12.9 | 0.00 | 0.00 | 0.00 | 61 | 1024.8 |
| 20260906102834 | 20 | 103 | 3.2 | 12.9 | 0.00 | 0.00 | 0.00 | 61 | 1024.9 |
| 20260906102803 | 20 | 88 | 3.2 | 12.9 | 0.00 | 0.00 | 0.00 | 60 | 1024.9 |
| 20260906102735 | 20 | 88 | 3.2 | 12.9 | 0.00 | 0.00 | 0.00 | 60 | 1024.9 |
| 20260906102632 | 20 | 92 | 3.2 | 12.9 | 0.00 | 0.00 | 0.00 | 60 | 1024.9 |
| 20260906102532 | 20 | 132 | 1.6 | 9.7 | 0.00 | 0.00 | 0.00 | 62 | 1024.9 |
| 20260906102431 | 20 | 80 | 1.6 | 9.7 | 0.00 | 0.00 | 0.00 | 61 | 1024.9 |
| 20260906102333 | 20 | 80 | 3.2 | 9.7 | 0.00 | 0.00 | 0.00 | 61 | 1024.9 |
| 20260906102301 | 20 | 80 | 3.2 | 9.7 | 0.00 | 0.00 | 0.00 | 61 | 1024.9 |
| 20260906102232 | 20 | 109 | 3.2 | 9.7 | 0.00 | 0.00 | 0.00 | 62 | 1024.9 |
| 20260906102129 | 20 | 86 | 1.6 | 9.7 | 0.00 | 0.00 | 0.00 | 62 | 1024.9 |
| 20260906102029 | 20 | 104 | 1.6 | 9.7 | 0.00 | 0.00 | 0.00 | 62 | 1024.9 |
| 20260906102016 | 20 | 104 | 1.6 | 8.0 | 0.00 | 0.00 | 0.00 | 63 | 1024.9 |
| 20260906102012 | 20 | 103 | 1.6 | 9.7 | 0.00 | 0.00 | 0.00 | 62 | 1024.9 |
| 20260906101729 | 19 | 103 | 1.6 | 9.7 | 0.00 | 0.00 | 0.00 | 63 | 1024.9 |
| 20260906101629 | 19 | 103 | 1.6 | 9.7 | 0.00 | 0.03 | 0.00 | 63 | 1024.9 |
| 20260906101531 | 19 | 86 | 1.6 | 9.7 | 0.00 | 0.03 | 0.00 | 64 | 1024.9 |
| 20260906101527 | 19 | 57 | 3.2 | 9.7 | 0.00 | 0.03 | 0.00 | 63 | 1024.8 |
| 20260906101517 | 19 | 60 | 3.2 | 9.7 | 0.00 | 0.03 | 0.00 | 64 | 1024.9 |
| 20260906101513 | 19 | 59 | 3.2 | 9.7 | 0.00 | 0.03 | 0.00 | 63 | 1024.8 |
| 20260906101229 | 19 | 36 | 3.2 | 9.7 | 0.00 | 0.03 | 0.00 | 62 | 1024.8 |
| 20260906101129 | 19 | 90 | 3.2 | 9.7 | 0.00 | 0.03 | 0.00 | 62 | 1024.8 |
| 20260906101029 | 19 | 90 | 3.2 | 9.7 | 0.00 | 0.03 | 0.00 | 62 | 1024.8 |
| 20260906100929 | 19 | 78 | 3.2 | 9.7 | 0.00 | 0.03 | 0.00 | 63 | 1024.8 |
| 20260906100829 | 19 | 75 | 3.2 | 9.7 | 0.00 | 0.03 | 0.00 | 62 | 1024.9 |
| 20260906100801 | 19 | 75 | 3.2 | 9.7 | 0.00 | 0.03 | 0.00 | 64 | 1024.9 |
| 20260906100729 | 19 | 71 | 3.2 | 9.7 | 0.00 | 0.03 | 0.00 | 64 | 1024.9 |
| 20260906100629 | 19 | 86 | 3.2 | 9.7 | 0.00 | 0.03 | 0.00 | 64 | 1024.9 |
| 20260906100533 | 19 | 92 | 3.2 | 9.7 | 0.00 | 0.03 | 0.00 | 62 | 1025.0 |
| 20260906100529 | 19 | 94 | 3.2 | 9.7 | 0.00 | 0.03 | 0.00 | 63 | 1024.9 |
| 20260906100517 | 19 | 86 | 3.2 | 9.7 | 0.00 | 0.03 | 0.00 | 62 | 1024.9 |
| 20260906100513 | 19 | 93 | 3.2 | 9.7 | 0.00 | 0.03 | 0.00 | 62 | 1025.0 |
| 20260906100229 | 19 | 88 | 3.2 | 11.3 | 0.00 | 0.03 | 0.00 | 62 | 1025.0 |
| 20260906100129 | 19 | 94 | 3.2 | 11.3 | 0.00 | 0.03 | 0.00 | 63 | 1025.0 |
| 20260906100028 | 19 | 136 | 3.2 | 11.3 | 0.00 | 0.03 | 0.00 | 62 | 1025.0 |
| 20260906095928 | 19 | 76 | 3.2 | 11.3 | 0.00 | 0.03 | 0.00 | 62 | 1025.0 |
| 20260906095828 | 19 | 60 | 3.2 | 11.3 | 0.00 | 0.03 | 0.00 | 63 | 1025.0 |
| 20260906095801 | 19 | 81 | 3.2 | 11.3 | 0.00 | 0.03 | 0.00 | 65 | 1025.0 |
| 20260906095724 | 19 | 81 | 3.2 | 11.3 | 0.00 | 0.03 | 0.00 | 65 | 1025.0 |
| 20260906095624 | 19 | 96 | 1.6 | 11.3 | 0.00 | 0.03 | 0.00 | 63 | 1025.0 |
| 20260906095528 | 19 | 98 | 1.6 | 11.3 | 0.00 | 0.03 | 0.00 | 63 | 1025.2 |
| 20260906095524 | 19 | 86 | 1.6 | 11.3 | 0.00 | 0.03 | 0.00 | 65 | 1025.2 |
| 20260906095515 | 19 | 97 | 1.6 | 11.3 | 0.00 | 0.03 | 0.00 | 63 | 1025.2 |
| 20260906095511 | 19 | 115 | 1.6 | 11.3 | 0.00 | 0.03 | 0.00 | 63 | 1025.2 |
| 20260906095218 | 19 | 108 | 1.6 | 9.7 | 0.00 | 0.03 | 0.00 | 63 | 1025.2 |
| 20260906095118 | 19 | 80 | 1.6 | 6.4 | 0.00 | 0.03 | 0.00 | 63 | 1025.2 |
| 20260906095017 | 19 | 79 | 1.6 | 6.4 | 0.00 | 0.03 | 0.00 | 64 | 1025.2 |
| 20260906094918 | 19 | 86 | 1.6 | 4.8 | 0.00 | 0.03 | 0.00 | 63 | 1025.2 |
| 20260906094817 | 19 | 124 | 1.6 | 4.8 | 0.00 | 0.03 | 0.00 | 63 | 1025.2 |
| 20260906094802 | 19 | 122 | 1.6 | 4.8 | 0.00 | 0.03 | 0.00 | 63 | 1025.2 |
| 20260906094711 | 19 | 103 | 1.6 | 4.8 | 0.00 | 0.03 | 0.00 | 63 | 1025.2 |
| 20260906094611 | 19 | 105 | 1.6 | 4.8 | 0.00 | 0.03 | 0.00 | 66 | 1025.2 |
| 20260906094525 | 19 | 77 | 1.6 | 11.3 | 0.00 | 0.05 | 0.00 | 64 | 1025.3 |
| 20260906094521 | 19 | 105 | 1.6 | 11.3 | 0.00 | 0.05 | 0.00 | 65 | 1025.2 |
| 20260906094517 | 19 | 109 | 1.6 | 11.3 | 0.00 | 0.05 | 0.00 | 65 | 1025.2 |
| 20260906094513 | 19 | 78 | 1.6 | 11.3 | 0.00 | 0.05 | 0.00 | 64 | 1025.3 |
| 20260906094212 | 18 | 101 | 1.6 | 11.3 | 0.00 | 0.05 | 0.00 | 65 | 1025.3 |
| 20260906094112 | 18 | 101 | 1.6 | 11.3 | 0.00 | 0.05 | 0.00 | 64 | 1025.3 |
| 20260906094026 | 18 | 103 | 3.2 | 12.9 | 0.00 | 0.05 | 0.00 | 66 | 1025.3 |
| 20260906094020 | 18 | 103 | 3.2 | 11.3 | 0.00 | 0.05 | 0.00 | 65 | 1025.3 |
| 20260906094016 | 18 | 103 | 3.2 | 12.9 | 0.00 | 0.05 | 0.00 | 64 | 1025.3 |
| 20260906094012 | 18 | 104 | 3.2 | 12.9 | 0.00 | 0.05 | 0.00 | 66 | 1025.3 |
| 20260906093712 | 18 | 103 | 4.8 | 12.9 | 0.00 | 0.05 | 0.00 | 64 | 1025.3 |
| 20260906093612 | 18 | 108 | 4.8 | 12.9 | 0.00 | 0.05 | 0.00 | 65 | 1025.3 |
| 20260906093510 | 18 | 80 | 4.8 | 12.9 | 0.00 | 0.05 | 0.00 | 65 | 1025.4 |
| 20260906093410 | 18 | 92 | 4.8 | 12.9 | 0.00 | 0.05 | 0.00 | 65 | 1025.4 |
| 20260906093311 | 18 | 68 | 3.2 | 12.9 | 0.00 | 0.05 | 0.00 | 65 | 1025.4 |
| 20260906093259 | 18 | 97 | 3.2 | 12.9 | 0.00 | 0.05 | 0.00 | 65 | 1025.4 |
| 20260906093210 | 18 | 109 | 4.8 | 12.9 | 0.00 | 0.05 | 0.00 | 65 | 1025.4 |
| 20260906093110 | 18 | 111 | 4.8 | 12.9 | 0.00 | 0.05 | 0.00 | 66 | 1025.4 |
| 20260906093010 | 18 | 120 | 4.8 | 12.9 | 0.00 | 0.05 | 0.00 | 65 | 1025.4 |
| 20260906092908 | 18 | 142 | 4.8 | 11.3 | 0.00 | 0.05 | 0.00 | 66 | 1025.4 |
| 20260906092808 | 18 | 119 | 3.2 | 11.3 | 0.00 | 0.05 | 0.00 | 66 | 1025.4 |
| 20260906092758 | 18 | 120 | 3.2 | 11.3 | 0.00 | 0.05 | 0.00 | 66 | 1025.4 |
| 20260906092706 | 18 | 90 | 3.2 | 11.3 | 0.00 | 0.05 | 0.00 | 67 | 1025.4 |
| 20260906092604 | 18 | 122 | 3.2 | 11.3 | 0.00 | 0.05 | 0.00 | 67 | 1025.4 |
| 20260906092504 | 18 | 72 | 3.2 | 11.3 | 0.00 | 0.05 | 0.00 | 66 | 1025.4 |
| 20260906092403 | 18 | 72 | 3.2 | 11.3 | 0.00 | 0.05 | 0.00 | 67 | 1025.4 |
| 20260906092305 | 18 | 104 | 3.2 | 11.3 | 0.00 | 0.05 | 0.00 | 66 | 1025.4 |
| 20260906092257 | 18 | 104 | 3.2 | 11.3 | 0.00 | 0.05 | 0.00 | 66 | 1025.4 |
| 20260906092202 | 18 | 84 | 3.2 | 11.3 | 0.00 | 0.05 | 0.00 | 67 | 1025.3 |
| 20260906092101 | 18 | 110 | 3.2 | 11.3 | 0.00 | 0.05 | 0.00 | 67 | 1025.4 |
| 20260906092001 | 18 | 107 | 3.2 | 11.3 | 0.00 | 0.05 | 0.00 | 66 | 1025.4 |
| 20260906091901 | 18 | 112 | 3.2 | 11.3 | 0.00 | 0.08 | 0.00 | 67 | 1025.3 |
| 20260906091801 | 18 | 78 | 3.2 | 11.3 | 0.00 | 0.08 | 0.00 | 66 | 1025.4 |
| 20260906091756 | 18 | 77 | 3.2 | 11.3 | 0.00 | 0.08 | 0.00 | 66 | 1025.4 |
| 20260906091701 | 18 | 75 | 3.2 | 11.3 | 0.00 | 0.08 | 0.00 | 66 | 1025.4 |
| 20260906091600 | 18 | 65 | 3.2 | 11.3 | 0.00 | 0.10 | 0.00 | 67 | 1025.4 |
| 20260906091456 | 18 | 135 | 3.2 | 11.3 | 0.00 | 0.10 | 0.00 | 67 | 1025.4 |
| 20260906091356 | 18 | 98 | 3.2 | 11.3 | 0.00 | 0.13 | 0.00 | 67 | 1025.4 |
| 20260906091256 | 18 | 98 | 3.2 | 11.3 | 0.00 | 0.13 | 0.00 | 67 | 1025.4 |
| 20260906091156 | 18 | 100 | 3.2 | 11.3 | 0.00 | 0.15 | 0.00 | 68 | 1025.5 |
| 20260906091054 | 18 | 112 | 3.2 | 11.3 | 0.00 | 0.15 | 0.00 | 69 | 1025.5 |
| 20260906090948 | 18 | 110 | 3.2 | 11.3 | 0.00 | 0.15 | 0.00 | 67 | 1025.4 |
| 20260906090848 | 17 | 96 | 3.2 | 11.3 | 0.00 | 0.15 | 0.00 | 67 | 1025.4 |
| 20260906090748 | 17 | 96 | 3.2 | 11.3 | 0.00 | 0.15 | 0.00 | 66 | 1025.4 |
| 20260906090647 | 17 | 96 | 3.2 | 11.3 | 0.00 | 0.15 | 0.00 | 68 | 1025.5 |
| 20260906090547 | 17 | 84 | 3.2 | 12.9 | 0.00 | 0.15 | 0.00 | 66 | 1025.5 |
| 20260906090442 | 17 | 119 | 3.2 | 12.9 | 0.00 | 0.15 | 0.00 | 66 | 1025.5 |
| 20260906090342 | 17 | 118 | 3.2 | 12.9 | 0.00 | 0.15 | 0.00 | 67 | 1025.5 |
| 20260906090256 | 17 | 106 | 3.2 | 12.9 | 0.00 | 0.15 | 0.00 | 68 | 1025.5 |
| 20260906090242 | 17 | 105 | 3.2 | 12.9 | 0.00 | 0.15 | 0.00 | 68 | 1025.5 |
| 20260906090142 | 17 | 85 | 3.2 | 12.9 | 0.00 | 0.15 | 0.00 | 67 | 1025.5 |
| 20260906090042 | 17 | 94 | 3.2 | 12.9 | 0.00 | 0.15 | 0.00 | 69 | 1025.6 |
| 20260906085938 | 17 | 123 | 3.2 | 12.9 | 0.00 | 0.15 | 0.00 | 67 | 1025.6 |
| 20260906085836 | 17 | 82 | 3.2 | 12.9 | 0.00 | 0.15 | 0.00 | 69 | 1025.5 |
| 20260906085756 | 17 | 117 | 3.2 | 14.5 | 0.00 | 0.15 | 0.00 | 69 | 1025.5 |
| 20260906085736 | 17 | 116 | 3.2 | 14.5 | 0.00 | 0.15 | 0.00 | 69 | 1025.5 |
| 20260906085636 | 17 | 136 | 3.2 | 14.5 | 0.00 | 0.15 | 0.00 | 70 | 1025.5 |
| 20260906085535 | 17 | 76 | 3.2 | 14.5 | 0.00 | 0.15 | 0.00 | 71 | 1025.5 |
| 20260906085429 | 17 | 109 | 3.2 | 14.5 | 0.00 | 0.15 | 0.00 | 69 | 1025.5 |
| 20260906085329 | 17 | 78 | 3.2 | 14.5 | 0.00 | 0.15 | 0.00 | 69 | 1025.5 |
| 20260906085255 | 17 | 80 | 3.2 | 14.5 | 0.00 | 0.15 | 0.00 | 70 | 1025.5 |
| 20260906085229 | 17 | 110 | 3.2 | 14.5 | 0.00 | 0.15 | 0.00 | 70 | 1025.5 |
| 20260906085130 | 17 | 114 | 3.2 | 14.5 | 0.00 | 0.15 | 0.00 | 68 | 1025.5 |
| 20260906085030 | 17 | 110 | 3.2 | 14.5 | 0.00 | 0.15 | 0.00 | 69 | 1025.5 |
| 20260906084926 | 17 | 121 | 3.2 | 14.5 | 0.00 | 0.15 | 0.00 | 70 | 1025.5 |
| 20260906084824 | 17 | 135 | 3.2 | 14.5 | 0.00 | 0.15 | 0.00 | 71 | 1025.5 |
| 20260906084756 | 17 | 109 | 3.2 | 11.3 | 0.00 | 0.15 | 0.00 | 70 | 1025.5 |
| 20260906084724 | 17 | 95 | 3.2 | 11.3 | 0.00 | 0.15 | 0.00 | 70 | 1025.6 |
| 20260906084625 | 17 | 93 | 3.2 | 11.3 | 0.00 | 0.15 | 0.00 | 70 | 1025.6 |
| 20260906084523 | 17 | 84 | 4.8 | 16.1 | 0.00 | 0.15 | 0.00 | 70 | 1025.6 |
| 20260906084518 | 17 | 85 | 4.8 | 16.1 | 0.00 | 0.15 | 0.00 | 69 | 1025.5 |
| 20260906084510 | 17 | 100 | 4.8 | 16.1 | 0.00 | 0.15 | 0.00 | 70 | 1025.6 |
| 20260906084506 | 17 | 81 | 4.8 | 16.1 | 0.00 | 0.15 | 0.00 | 70 | 1025.5 |
| 20260906084218 | 17 | 71 | 4.8 | 16.1 | 0.00 | 0.15 | 0.00 | 69 | 1025.5 |
| 20260906084118 | 17 | 87 | 4.8 | 16.1 | 0.00 | 0.15 | 0.00 | 71 | 1025.6 |
| 20260906084018 | 16 | 80 | 4.8 | 16.1 | 0.00 | 0.15 | 0.00 | 71 | 1025.5 |
| 20260906083912 | 16 | 112 | 4.8 | 16.1 | 0.00 | 0.15 | 0.00 | 71 | 1025.5 |
| 20260906083812 | 16 | 92 | 4.8 | 16.1 | 0.00 | 0.15 | 0.00 | 71 | 1025.6 |
| 20260906083755 | 16 | 155 | 4.8 | 16.1 | 0.00 | 0.15 | 0.00 | 71 | 1025.6 |
| 20260906083712 | 16 | 103 | 4.8 | 16.1 | 0.00 | 0.15 | 0.00 | 71 | 1025.6 |
| 20260906083612 | 16 | 112 | 4.8 | 16.1 | 0.00 | 0.15 | 0.00 | 71 | 1025.6 |
| 20260906083512 | 16 | 117 | 4.8 | 12.9 | 0.00 | 0.15 | 0.00 | 73 | 1025.6 |
| 20260906083406 | 16 | 76 | 3.2 | 12.9 | 0.00 | 0.15 | 0.00 | 73 | 1025.6 |
| 20260906083306 | 16 | 86 | 4.8 | 12.9 | 0.00 | 0.15 | 0.00 | 74 | 1025.6 |
| 20260906083255 | 16 | 85 | 4.8 | 14.5 | 0.00 | 0.15 | 0.00 | 74 | 1025.6 |
| 20260906083206 | 16 | 76 | 3.2 | 14.5 | 0.00 | 0.15 | 0.00 | 74 | 1025.6 |
| 20260906083105 | 16 | 82 | 3.2 | 14.5 | 0.00 | 0.15 | 0.00 | 74 | 1025.5 |
| 20260906083005 | 16 | 34 | 3.2 | 14.5 | 0.00 | 0.15 | 0.00 | 74 | 1025.6 |
| 20260906082902 | 16 | 100 | 3.2 | 14.5 | 0.00 | 0.15 | 0.00 | 73 | 1025.6 |
| 20260906082802 | 16 | 68 | 3.2 | 14.5 | 0.00 | 0.15 | 0.00 | 74 | 1025.5 |
| 20260906082755 | 16 | 68 | 3.2 | 14.5 | 0.00 | 0.15 | 0.00 | 74 | 1025.5 |
| 20260906082701 | 16 | 74 | 3.2 | 14.5 | 0.00 | 0.15 | 0.00 | 73 | 1025.6 |
| 20260906082602 | 16 | 74 | 3.2 | 14.5 | 0.00 | 0.15 | 0.00 | 72 | 1025.6 |
| 20260906082504 | 16 | 85 | 3.2 | 14.5 | 0.00 | 0.15 | 0.00 | 73 | 1025.6 |
| 20260906082402 | 16 | 111 | 3.2 | 14.5 | 0.00 | 0.15 | 0.00 | 73 | 1025.6 |
| 20260906082305 | 16 | 67 | 3.2 | 9.7 | 0.00 | 0.15 | 0.00 | 72 | 1025.6 |
| 20260906082255 | 16 | 83 | 3.2 | 9.7 | 0.00 | 0.15 | 0.00 | 72 | 1025.6 |
| 20260906082201 | 16 | 130 | 3.2 | 9.7 | 0.00 | 0.15 | 0.00 | 73 | 1025.5 |
| 20260906082101 | 16 | 99 | 3.2 | 9.7 | 0.00 | 0.15 | 0.00 | 74 | 1025.5 |
| 20260906082001 | 16 | 80 | 3.2 | 9.7 | 0.00 | 0.18 | 0.00 | 74 | 1025.6 |
| 20260906081902 | 16 | 77 | 3.2 | 9.7 | 0.00 | 0.18 | 0.00 | 73 | 1025.5 |
| 20260906081801 | 16 | 74 | 3.2 | 9.7 | 0.00 | 0.20 | 0.00 | 74 | 1025.5 |
| 20260906081756 | 16 | 61 | 3.2 | 9.7 | 0.00 | 0.20 | 0.00 | 74 | 1025.5 |
| 20260906081701 | 16 | 98 | 3.2 | 11.3 | 0.00 | 0.23 | 0.00 | 74 | 1025.5 |
| 20260906081601 | 16 | 144 | 3.2 | 11.3 | 0.00 | 0.23 | 0.00 | 75 | 1025.6 |
| 20260906081501 | 16 | 112 | 3.2 | 11.3 | 0.00 | 0.23 | 0.00 | 74 | 1025.6 |
| 20260906081401 | 15 | 84 | 3.2 | 11.3 | 0.00 | 0.25 | 0.00 | 76 | 1025.5 |
| 20260906081301 | 15 | 126 | 3.2 | 11.3 | 0.00 | 0.28 | 0.00 | 73 | 1025.5 |
| 20260906081254 | 15 | 126 | 3.2 | 11.3 | 0.00 | 0.28 | 0.00 | 73 | 1025.5 |
| 20260906081202 | 15 | 68 | 3.2 | 11.3 | 0.00 | 0.30 | 0.00 | 74 | 1025.5 |
| 20260906081101 | 15 | 102 | 3.2 | 11.3 | 0.00 | 0.30 | 0.00 | 74 | 1025.5 |
| 20260906081001 | 15 | 96 | 3.2 | 11.3 | 0.00 | 0.33 | 0.00 | 75 | 1025.4 |
| 20260906080901 | 15 | 101 | 3.2 | 11.3 | 0.00 | 0.33 | 0.00 | 75 | 1025.4 |
| 20260906080801 | 15 | 86 | 3.2 | 11.3 | 0.00 | 0.33 | 0.00 | 75 | 1025.4 |
| 20260906080752 | 15 | 86 | 3.2 | 11.3 | 0.00 | 0.33 | 0.00 | 75 | 1025.4 |
| 20260906080701 | 15 | 94 | 3.2 | 11.3 | 0.00 | 0.33 | 0.00 | 76 | 1025.4 |
| 20260906080600 | 15 | 127 | 3.2 | 11.3 | 0.00 | 0.33 | 0.00 | 75 | 1025.4 |
| 20260906080500 | 15 | 85 | 3.2 | 11.3 | 0.00 | 0.33 | 0.00 | 74 | 1025.4 |
| 20260906080401 | 15 | 108 | 4.8 | 12.9 | 0.00 | 0.33 | 0.00 | 75 | 1025.4 |
| 20260906080300 | 15 | 103 | 4.8 | 12.9 | 0.00 | 0.33 | 0.00 | 75 | 1025.4 |
| 20260906080251 | 15 | 103 | 4.8 | 12.9 | 0.00 | 0.33 | 0.00 | 75 | 1025.4 |
| 20260906080200 | 15 | 127 | 4.8 | 12.9 | 0.00 | 0.33 | 0.00 | 75 | 1025.4 |
| 20260906080001 | 15 | 98 | 3.2 | 12.9 | 0.00 | 0.33 | 0.00 | 74 | 1025.3 |
| 20260906075901 | 15 | 121 | 3.2 | 12.9 | 0.00 | 0.33 | 0.00 | 74 | 1025.3 |
| 20260906075801 | 15 | 100 | 3.2 | 12.9 | 0.00 | 0.33 | 0.00 | 74 | 1025.3 |
| 20260906075746 | 15 | 123 | 3.2 | 12.9 | 0.00 | 0.33 | 0.00 | 74 | 1025.3 |
| 20260906075700 | 15 | 92 | 3.2 | 12.9 | 0.00 | 0.33 | 0.00 | 75 | 1025.3 |
| 20260906075601 | 15 | 104 | 3.2 | 12.9 | 0.00 | 0.33 | 0.00 | 75 | 1025.4 |
| 20260906075500 | 15 | 70 | 1.6 | 12.9 | 0.00 | 0.33 | 0.00 | 76 | 1025.3 |
| 20260906075402 | 15 | 84 | 1.6 | 9.7 | 0.00 | 0.33 | 0.00 | 76 | 1025.3 |
| 20260906075305 | 15 | 110 | 1.6 | 9.7 | 0.00 | 0.33 | 0.00 | 77 | 1025.3 |
| 20260906075242 | 15 | 111 | 1.6 | 9.7 | 0.00 | 0.33 | 0.00 | 77 | 1025.3 |
| 20260906075202 | 15 | 113 | 1.6 | 9.7 | 0.00 | 0.33 | 0.00 | 78 | 1025.3 |
| 20260906075101 | 14 | 97 | 1.6 | 6.4 | 0.00 | 0.33 | 0.00 | 80 | 1025.4 |
| 20260906075001 | 14 | 109 | 1.6 | 6.4 | 0.00 | 0.33 | 0.00 | 81 | 1025.4 |
| 20260906074902 | 14 | 108 | 1.6 | 6.4 | 0.00 | 0.33 | 0.00 | 81 | 1025.4 |
| 20260906074801 | 14 | 109 | 1.6 | 6.4 | 0.00 | 0.33 | 0.00 | 81 | 1025.4 |
| 20260906074742 | 14 | 98 | 1.6 | 6.4 | 0.00 | 0.33 | 0.00 | 81 | 1025.4 |
| 20260906074701 | 14 | 106 | 1.6 | 6.4 | 0.00 | 0.33 | 0.00 | 81 | 1025.4 |
| 20260906074602 | 14 | 108 | 1.6 | 6.4 | 0.00 | 0.33 | 0.00 | 81 | 1025.4 |
| 20260906074501 | 14 | 84 | 1.6 | 6.4 | 0.00 | 0.33 | 0.00 | 82 | 1025.4 |
| 20260906074401 | 14 | 83 | 1.6 | 6.4 | 0.00 | 0.33 | 0.00 | 82 | 1025.4 |
| 20260906074300 | 13 | 86 | 3.2 | 6.4 | 0.00 | 0.33 | 0.00 | 82 | 1025.4 |
| 20260906074240 | 13 | 102 | 3.2 | 6.4 | 0.00 | 0.33 | 0.00 | 82 | 1025.4 |
| 20260906074200 | 13 | 101 | 3.2 | 11.3 | 0.00 | 0.33 | 0.00 | 82 | 1025.4 |
| 20260906074100 | 13 | 101 | 3.2 | 11.3 | 0.00 | 0.33 | 0.00 | 84 | 1025.3 |
| 20260906074010 | 13 | 87 | 3.2 | 11.3 | 0.00 | 0.33 | 0.00 | 84 | 1025.4 |
| 20260906074003 | 13 | 113 | 3.2 | 11.3 | 0.00 | 0.33 | 0.00 | 84 | 1025.4 |
| 20260906073955 | 13 | 89 | 3.2 | 11.3 | 0.00 | 0.33 | 0.00 | 83 | 1025.4 |
| 20260906073951 | 13 | 88 | 3.2 | 11.3 | 0.00 | 0.33 | 0.00 | 84 | 1025.4 |
| 20260906073655 | 13 | 89 | 3.2 | 11.3 | 0.00 | 0.33 | 0.00 | 84 | 1025.4 |
| 20260906073555 | 13 | 111 | 3.2 | 11.3 | 0.00 | 0.33 | 0.00 | 85 | 1025.4 |
| 20260906073508 | 13 | 97 | 1.6 | 11.3 | 0.00 | 0.33 | 0.00 | 85 | 1025.4 |
| 20260906073501 | 13 | 109 | 3.2 | 11.3 | 0.00 | 0.33 | 0.00 | 85 | 1025.4 |
| 20260906073453 | 13 | 106 | 3.2 | 11.3 | 0.00 | 0.33 | 0.00 | 86 | 1025.4 |
| 20260906073449 | 13 | 113 | 1.6 | 11.3 | 0.00 | 0.33 | 0.00 | 85 | 1025.4 |
| 20260906073154 | 13 | 106 | 1.6 | 9.7 | 0.00 | 0.33 | 0.00 | 85 | 1025.4 |
| 20260906073054 | 13 | 88 | 1.6 | 6.4 | 0.00 | 0.33 | 0.00 | 87 | 1025.4 |
| 20260906072953 | 13 | 86 | 1.6 | 6.4 | 0.00 | 0.33 | 0.00 | 87 | 1025.4 |
| 20260906072854 | 13 | 76 | 1.6 | 6.4 | 0.00 | 0.33 | 0.00 | 87 | 1025.4 |
| 20260906072754 | 13 | 108 | 1.6 | 6.4 | 0.00 | 0.33 | 0.00 | 87 | 1025.4 |
| 20260906072738 | 13 | 90 | 1.6 | 6.4 | 0.00 | 0.33 | 0.00 | 87 | 1025.4 |
| 20260906072653 | 13 | 90 | 1.6 | 6.4 | 0.00 | 0.33 | 0.00 | 89 | 1025.4 |
| 20260906072554 | 13 | 80 | 1.6 | 6.4 | 0.00 | 0.33 | 0.00 | 90 | 1025.4 |
| 20260906072453 | 13 | 82 | 1.6 | 6.4 | 0.00 | 0.33 | 0.00 | 93 | 1025.4 |
| 20260906072353 | 13 | 88 | 1.6 | 6.4 | 0.00 | 0.33 | 0.00 | 93 | 1025.4 |
| 20260906072254 | 13 | 115 | 1.6 | 6.4 | 0.00 | 0.33 | 0.00 | 94 | 1025.4 |
| 20260906072238 | 13 | 124 | 1.6 | 6.4 | 0.00 | 0.33 | 0.00 | 94 | 1025.4 |
| 20260906072154 | 13 | 123 | 1.6 | 6.4 | 0.00 | 0.33 | 0.00 | 94 | 1025.4 |
| 20260906072050 | 13 | 134 | 1.6 | 6.4 | 0.00 | 0.33 | 0.00 | 94 | 1025.4 |
| 20260906071949 | 13 | 134 | 1.6 | 6.4 | 0.00 | 0.33 | 0.00 | 94 | 1025.4 |
| 20260906071850 | 13 | 134 | 1.6 | 6.4 | 0.00 | 0.33 | 0.00 | 94 | 1025.4 |
| 20260906071737 | 13 | 134 | 1.6 | 6.4 | 0.00 | 0.33 | 0.00 | 95 | 1025.4 |
| 20260906071645 | 13 | 134 | 1.6 | 6.4 | 0.00 | 0.33 | 0.00 | 95 | 1025.5 |
| 20260906071542 | 13 | 132 | 1.6 | 4.8 | 0.00 | 0.33 | 0.00 | 96 | 1025.5 |
| 20260906071506 | 13 | 126 | 1.6 | 6.4 | 0.00 | 0.33 | 0.00 | 96 | 1025.6 |
| 20260906071501 | 13 | 128 | 1.6 | 4.8 | 0.00 | 0.33 | 0.00 | 96 | 1025.5 |
| 20260906071453 | 13 | 127 | 1.6 | 6.4 | 0.00 | 0.33 | 0.00 | 96 | 1025.5 |
| 20260906071449 | 13 | 127 | 1.6 | 6.4 | 0.00 | 0.33 | 0.00 | 96 | 1025.6 |
| 20260906071141 | 12 | 127 | 1.6 | 6.4 | 0.00 | 0.33 | 0.00 | 96 | 1025.5 |
| 20260906071041 | 12 | 127 | 1.6 | 6.4 | 0.00 | 0.33 | 0.00 | 96 | 1025.5 |
| 20260906070941 | 12 | 126 | 1.6 | 6.4 | 0.00 | 0.33 | 0.00 | 96 | 1025.5 |
| 20260906070841 | 12 | 126 | 3.2 | 8.0 | 0.00 | 0.33 | 0.00 | 96 | 1025.5 |
| 20260906070738 | 12 | 122 | 3.2 | 8.0 | 0.00 | 0.33 | 0.00 | 96 | 1025.4 |
| 20260906070640 | 12 | 122 | 3.2 | 8.0 | 0.00 | 0.33 | 0.00 | 96 | 1025.5 |
| 20260906070540 | 12 | 122 | 3.2 | 8.0 | 0.00 | 0.33 | 0.00 | 96 | 1025.4 |
| 20260906070439 | 12 | 123 | 3.2 | 8.0 | 0.00 | 0.33 | 0.00 | 96 | 1025.4 |
| 20260906070336 | 12 | 127 | 3.2 | 8.0 | 0.00 | 0.33 | 0.00 | 96 | 1025.4 |
| 20260906070236 | 12 | 127 | 3.2 | 8.0 | 0.00 | 0.33 | 0.00 | 96 | 1025.4 |
| 20260906070135 | 12 | 130 | 4.8 | 8.0 | 0.00 | 0.33 | 0.00 | 96 | 1025.4 |
| 20260906070035 | 12 | 130 | 4.8 | 8.0 | 0.00 | 0.33 | 0.00 | 96 | 1025.4 |
| 20260906065935 | 12 | 130 | 4.8 | 8.0 | 0.00 | 0.33 | 0.00 | 96 | 1025.4 |
| 20260906065836 | 12 | 142 | 4.8 | 8.0 | 0.00 | 0.33 | 0.00 | 96 | 1025.4 |
| 20260906065736 | 12 | 136 | 3.2 | 8.0 | 0.00 | 0.33 | 0.00 | 96 | 1025.4 |
| 20260906065636 | 12 | 136 | 3.2 | 8.0 | 0.00 | 0.33 | 0.00 | 96 | 1025.4 |
| 20260906065533 | 12 | 140 | 3.2 | 8.0 | 0.00 | 0.33 | 0.00 | 96 | 1025.4 |
| 20260906065434 | 12 | 139 | 3.2 | 8.0 | 0.00 | 0.33 | 0.00 | 96 | 1025.3 |
| 20260906065333 | 12 | 138 | 3.2 | 8.0 | 0.00 | 0.33 | 0.00 | 96 | 1025.4 |
| 20260906065233 | 12 | 146 | 3.2 | 8.0 | 0.00 | 0.33 | 0.00 | 96 | 1025.3 |
| 20260906065130 | 12 | 141 | 3.2 | 8.0 | 0.00 | 0.33 | 0.00 | 96 | 1025.3 |
| 20260906065030 | 12 | 138 | 3.2 | 6.4 | 0.00 | 0.33 | 0.00 | 96 | 1025.3 |
| 20260906064930 | 12 | 140 | 3.2 | 6.4 | 0.00 | 0.33 | 0.00 | 96 | 1025.3 |
| 20260906064830 | 11 | 139 | 3.2 | 6.4 | 0.00 | 0.33 | 0.00 | 96 | 1025.3 |
| 20260906064730 | 11 | 139 | 3.2 | 6.4 | 0.00 | 0.33 | 0.00 | 96 | 1025.3 |
| 20260906064629 | 11 | 139 | 3.2 | 6.4 | 0.00 | 0.33 | 0.00 | 96 | 1025.3 |
| 20260906064529 | 11 | 139 | 3.2 | 6.4 | 0.00 | 0.33 | 0.00 | 96 | 1025.3 |
| 20260906064453 | 11 | 138 | 3.2 | 6.4 | 0.00 | 0.33 | 0.00 | 96 | 1025.4 |
| 20260906064445 | 11 | 138 | 3.2 | 6.4 | 0.00 | 0.33 | 0.00 | 96 | 1025.3 |
| 20260906064441 | 11 | 136 | 3.2 | 6.4 | 0.00 | 0.33 | 0.00 | 96 | 1025.3 |
| 20260906064129 | 11 | 134 | 3.2 | 6.4 | 0.00 | 0.33 | 0.00 | 96 | 1025.3 |
| 20260906064030 | 11 | 134 | 3.2 | 6.4 | 0.00 | 0.33 | 0.00 | 96 | 1025.3 |
| 20260906063930 | 11 | 135 | 3.2 | 6.4 | 0.00 | 0.33 | 0.00 | 96 | 1025.3 |
| 20260906063829 | 11 | 135 | 3.2 | 6.4 | 0.00 | 0.33 | 0.00 | 96 | 1025.4 |
| 20260906063730 | 11 | 134 | 1.6 | 4.8 | 0.00 | 0.33 | 0.00 | 96 | 1025.4 |
| 20260906063630 | 11 | 134 | 1.6 | 4.8 | 0.00 | 0.33 | 0.00 | 96 | 1025.3 |
| 20260906063530 | 10 | 134 | 1.6 | 4.8 | 0.00 | 0.33 | 0.00 | 96 | 1025.4 |
| 20260906063430 | 10 | 134 | 1.6 | 4.8 | 0.00 | 0.33 | 0.00 | 95 | 1025.3 |
| 20260906063330 | 10 | 134 | 1.6 | 4.8 | 0.00 | 0.33 | 0.00 | 95 | 1025.3 |
| 20260906063229 | 10 | 134 | 1.6 | 4.8 | 0.00 | 0.33 | 0.00 | 96 | 1025.3 |
| 20260906063129 | 10 | 134 | 1.6 | 4.8 | 0.00 | 0.33 | 0.00 | 96 | 1025.3 |
| 20260906063029 | 10 | 134 | 1.6 | 4.8 | 0.00 | 0.33 | 0.00 | 95 | 1025.3 |
| 20260906062929 | 10 | 133 | 1.6 | 4.8 | 0.00 | 0.33 | 0.00 | 95 | 1025.3 |
| 20260906062829 | 10 | 133 | 1.6 | 4.8 | 0.00 | 0.33 | 0.00 | 95 | 1025.3 |
| 20260906062729 | 10 | 133 | 1.6 | 4.8 | 0.00 | 0.33 | 0.00 | 95 | 1025.2 |
| 20260906062629 | 10 | 133 | 1.6 | 4.8 | 0.00 | 0.33 | 0.00 | 95 | 1025.2 |
| 20260906062529 | 10 | 133 | 1.6 | 4.8 | 0.00 | 0.33 | 0.00 | 95 | 1025.2 |
| 20260906062429 | 10 | 133 | 1.6 | 4.8 | 0.00 | 0.33 | 0.00 | 95 | 1025.3 |
| 20260906062329 | 10 | 133 | 1.6 | 4.8 | 0.00 | 0.33 | 0.00 | 95 | 1025.2 |
| 20260906062229 | 10 | 133 | 1.6 | 4.8 | 0.00 | 0.33 | 0.00 | 95 | 1025.2 |
| 20260906062129 | 10 | 132 | 1.6 | 3.2 | 0.00 | 0.33 | 0.00 | 95 | 1025.3 |
| 20260906062029 | 10 | 132 | 1.6 | 3.2 | 0.00 | 0.33 | 0.00 | 95 | 1025.3 |
| 20260906061929 | 10 | 132 | 1.6 | 3.2 | 0.00 | 0.33 | 0.00 | 95 | 1025.3 |
| 20260906061829 | 10 | 132 | 1.6 | 3.2 | 0.00 | 0.33 | 0.00 | 95 | 1025.2 |
| 20260906061729 | 10 | 132 | 1.6 | 4.8 | 0.00 | 0.33 | 0.00 | 95 | 1025.2 |
| 20260906061629 | 10 | 132 | 1.6 | 4.8 | 0.00 | 0.33 | 0.00 | 95 | 1025.3 |
| 20260906061528 | 10 | 132 | 1.6 | 4.8 | 0.00 | 0.33 | 0.00 | 95 | 1025.2 |
| 20260906061429 | 10 | 132 | 1.6 | 4.8 | 0.00 | 0.33 | 0.00 | 95 | 1025.2 |
| 20260906061329 | 10 | 132 | 1.6 | 4.8 | 0.00 | 0.33 | 0.00 | 95 | 1025.2 |
| 20260906061228 | 10 | 132 | 1.6 | 4.8 | 0.00 | 0.33 | 0.00 | 95 | 1025.2 |
| 20260906061129 | 10 | 132 | 1.6 | 4.8 | 0.00 | 0.33 | 0.00 | 95 | 1025.2 |
| 20260906061029 | 10 | 132 | 1.6 | 4.8 | 0.00 | 0.33 | 0.00 | 95 | 1025.2 |
| 20260906060929 | 10 | 132 | 1.6 | 4.8 | 0.00 | 0.33 | 0.00 | 95 | 1025.2 |
| 20260906060829 | 9 | 131 | 1.6 | 4.8 | 0.00 | 0.33 | 0.00 | 95 | 1025.2 |
| 20260906060733 | 9 | 131 | 1.6 | 4.8 | 0.00 | 0.33 | 0.00 | 95 | 1025.2 |
| 20260906060729 | 9 | 131 | 1.6 | 4.8 | 0.00 | 0.33 | 0.00 | 95 | 1025.0 |
| 20260906060626 | 9 | 131 | 1.6 | 4.8 | 0.00 | 0.33 | 0.00 | 95 | 1025.0 |
| 20260906060526 | 9 | 131 | 1.6 | 4.8 | 0.00 | 0.33 | 0.00 | 95 | 1025.0 |
| 20260906060426 | 9 | 131 | 1.6 | 4.8 | 0.00 | 0.33 | 0.00 | 95 | 1025.0 |
| 20260906060326 | 9 | 131 | 1.6 | 4.8 | 0.00 | 0.33 | 0.00 | 95 | 1025.0 |
| 20260906060226 | 9 | 131 | 1.6 | 4.8 | 0.00 | 0.33 | 0.00 | 95 | 1025.0 |
| 20260906060126 | 9 | 131 | 1.6 | 4.8 | 0.00 | 0.33 | 0.00 | 95 | 1025.0 |
| 20260906060025 | 9 | 131 | 1.6 | 4.8 | 0.00 | 0.33 | 0.00 | 95 | 1025.0 |
| 20260906055954 | 9 | 130 | 1.6 | 4.8 | 0.00 | 0.33 | 0.00 | 95 | 1025.0 |
| 20260906055948 | 9 | 130 | 1.6 | 4.8 | 0.00 | 0.33 | 0.00 | 95 | 1025.0 |
| 20260906055939 | 9 | 130 | 1.6 | 4.8 | 0.00 | 0.33 | 0.00 | 95 | 1025.0 |
| 20260906055725 | 9 | 130 | 1.6 | 4.8 | 0.00 | 0.33 | 0.00 | 95 | 1025.0 |
| 20260906055625 | 9 | 130 | 1.6 | 4.8 | 0.00 | 0.33 | 0.00 | 94 | 1025.0 |
| 20260906055525 | 9 | 130 | 1.6 | 4.8 | 0.00 | 0.33 | 0.00 | 94 | 1025.0 |
| 20260906055426 | 9 | 130 | 1.6 | 4.8 | 0.00 | 0.33 | 0.00 | 94 | 1025.0 |
| 20260906055325 | 9 | 130 | 1.6 | 4.8 | 0.00 | 0.33 | 0.00 | 94 | 1025.0 |
| 20260906055225 | 9 | 130 | 1.6 | 4.8 | 0.00 | 0.33 | 0.00 | 94 | 1025.2 |
| 20260906055126 | 9 | 131 | 0.0 | 4.8 | 0.00 | 0.33 | 0.00 | 94 | 1025.2 |
| 20260906055026 | 9 | 130 | 0.0 | 4.8 | 0.00 | 0.33 | 0.00 | 94 | 1025.3 |
| 20260906054926 | 9 | 130 | 0.0 | 3.2 | 0.00 | 0.33 | 0.00 | 94 | 1025.3 |
| 20260906054829 | 9 | 130 | 0.0 | 3.2 | 0.00 | 0.33 | 0.00 | 95 | 1025.3 |
| 20260906054729 | 9 | 130 | 0.0 | 3.2 | 0.00 | 0.33 | 0.00 | 95 | 1025.3 |
| 20260906054722 | 9 | 130 | 0.0 | 3.2 | 0.00 | 0.33 | 0.00 | 95 | 1025.2 |
| 20260906054621 | 9 | 130 | 0.0 | 3.2 | 0.00 | 0.33 | 0.00 | 95 | 1025.2 |
| 20260906054521 | 9 | 130 | 0.0 | 1.6 | 0.00 | 0.33 | 0.00 | 95 | 1025.2 |
| 20260906054421 | 9 | 130 | 0.0 | 1.6 | 0.00 | 0.33 | 0.00 | 94 | 1025.3 |
| 20260906054321 | 9 | 130 | 0.0 | 0.0 | 0.00 | 0.33 | 0.00 | 94 | 1025.2 |
| 20260906054221 | 9 | 130 | 0.0 | 0.0 | 0.00 | 0.33 | 0.00 | 94 | 1025.2 |
| 20260906054121 | 9 | 130 | 0.0 | 0.0 | 0.00 | 0.33 | 0.00 | 94 | 1025.2 |
| 20260906054021 | 9 | 130 | 0.0 | 1.6 | 0.00 | 0.33 | 0.00 | 94 | 1025.2 |
| 20260906053952 | 9 | 130 | 0.0 | 3.2 | 0.00 | 0.33 | 0.00 | 94 | 1025.2 |
| 20260906053947 | 9 | 130 | 0.0 | 3.2 | 0.00 | 0.33 | 0.00 | 94 | 1025.2 |
| 20260906053943 | 9 | 130 | 0.0 | 3.2 | 0.00 | 0.33 | 0.00 | 94 | 1025.2 |
| 20260906053719 | 9 | 130 | 0.0 | 3.2 | 0.00 | 0.33 | 0.00 | 94 | 1025.2 |
| 20260906053618 | 9 | 130 | 0.0 | 3.2 | 0.00 | 0.33 | 0.00 | 94 | 1025.3 |
| 20260906053519 | 9 | 130 | 0.0 | 3.2 | 0.00 | 0.33 | 0.00 | 94 | 1025.2 |
| 20260906053419 | 9 | 130 | 0.0 | 3.2 | 0.00 | 0.33 | 0.00 | 94 | 1025.2 |
| 20260906053317 | 9 | 130 | 0.0 | 3.2 | 0.00 | 0.33 | 0.00 | 94 | 1025.2 |
| 20260906053228 | 9 | 130 | 0.0 | 3.2 | 0.00 | 0.33 | 0.00 | 94 | 1025.2 |
| 20260906053215 | 9 | 130 | 0.0 | 3.2 | 0.00 | 0.33 | 0.00 | 94 | 1025.0 |
| 20260906053112 | 9 | 130 | 1.6 | 3.2 | 0.00 | 0.33 | 0.00 | 94 | 1025.2 |
| 20260906053008 | 9 | 130 | 1.6 | 3.2 | 0.00 | 0.33 | 0.00 | 94 | 1025.2 |
| 20260906052905 | 9 | 130 | 1.6 | 3.2 | 0.00 | 0.33 | 0.00 | 94 | 1025.2 |
| 20260906052802 | 9 | 130 | 1.6 | 3.2 | 0.00 | 0.33 | 0.00 | 94 | 1025.2 |
| 20260906052729 | 9 | 130 | 1.6 | 3.2 | 0.00 | 0.33 | 0.00 | 94 | 1025.2 |
| 20260906052701 | 9 | 130 | 1.6 | 3.2 | 0.00 | 0.33 | 0.00 | 94 | 1025.0 |
| 20260906052601 | 9 | 130 | 1.6 | 3.2 | 0.00 | 0.33 | 0.00 | 94 | 1025.0 |
| 20260906052501 | 9 | 130 | 1.6 | 3.2 | 0.00 | 0.33 | 0.00 | 93 | 1025.0 |
| 20260906052401 | 9 | 130 | 1.6 | 3.2 | 0.00 | 0.33 | 0.00 | 93 | 1025.0 |
| 20260906052305 | 9 | 130 | 1.6 | 3.2 | 0.00 | 0.33 | 0.00 | 93 | 1025.2 |
| 20260906052230 | 9 | 130 | 1.6 | 3.2 | 0.00 | 0.33 | 0.00 | 93 | 1025.2 |
| 20260906052201 | 9 | 130 | 1.6 | 3.2 | 0.00 | 0.33 | 0.00 | 94 | 1025.0 |
| 20260906052101 | 9 | 130 | 1.6 | 3.2 | 0.00 | 0.33 | 0.00 | 94 | 1025.2 |
| 20260906052001 | 9 | 130 | 1.6 | 3.2 | 0.00 | 0.33 | 0.00 | 94 | 1025.2 |
| 20260906051901 | 9 | 130 | 1.6 | 3.2 | 0.00 | 0.33 | 0.00 | 94 | 1025.2 |
| 20260906051801 | 9 | 130 | 1.6 | 3.2 | 0.00 | 0.33 | 0.00 | 94 | 1025.2 |
| 20260906051729 | 9 | 130 | 1.6 | 3.2 | 0.00 | 0.33 | 0.00 | 94 | 1025.2 |
| 20260906051701 | 9 | 130 | 0.0 | 3.2 | 0.00 | 0.33 | 0.00 | 94 | 1025.0 |
| 20260906051600 | 9 | 130 | 0.0 | 3.2 | 0.00 | 0.33 | 0.00 | 94 | 1025.0 |
| 20260906051501 | 9 | 130 | 0.0 | 3.2 | 0.00 | 0.33 | 0.00 | 94 | 1025.0 |
| 20260906051453 | 9 | 130 | 0.0 | 1.6 | 0.00 | 0.33 | 0.00 | 94 | 1025.0 |
| 20260906051448 | 9 | 130 | 0.0 | 3.2 | 0.00 | 0.33 | 0.00 | 94 | 1025.0 |
| 20260906051440 | 9 | 130 | 0.0 | 3.2 | 0.00 | 0.33 | 0.00 | 94 | 1025.0 |
| 20260906051200 | 9 | 130 | 0.0 | 0.0 | 0.00 | 0.33 | 0.00 | 94 | 1025.0 |
| 20260906051100 | 9 | 130 | 0.0 | 0.0 | 0.00 | 0.33 | 0.00 | 94 | 1025.0 |
| 20260906051000 | 9 | 130 | 0.0 | 0.0 | 0.00 | 0.33 | 0.00 | 93 | 1025.0 |
| 20260906050900 | 9 | 130 | 0.0 | 0.0 | 0.00 | 0.33 | 0.00 | 93 | 1025.0 |
| 20260906050804 | 9 | 130 | 0.0 | 0.0 | 0.00 | 0.33 | 0.00 | 93 | 1025.0 |
| 20260906050701 | 9 | 130 | 0.0 | 0.0 | 0.00 | 0.33 | 0.00 | 93 | 1025.0 |
| 20260906050602 | 9 | 130 | 0.0 | 0.0 | 0.00 | 0.33 | 0.00 | 93 | 1025.0 |
| 20260906050501 | 9 | 130 | 0.0 | 0.0 | 0.00 | 0.33 | 0.00 | 93 | 1025.0 |
| 20260906050401 | 9 | 130 | 0.0 | 0.0 | 0.00 | 0.33 | 0.00 | 93 | 1025.0 |
| 20260906050303 | 9 | 130 | 0.0 | 0.0 | 0.00 | 0.33 | 0.00 | 93 | 1025.0 |
| 20260906050201 | 9 | 130 | 0.0 | 0.0 | 0.00 | 0.33 | 0.00 | 93 | 1025.0 |
| 20260906050101 | 10 | 130 | 0.0 | 0.0 | 0.00 | 0.33 | 0.00 | 93 | 1025.0 |
| 20260906050000 | 10 | 130 | 0.0 | 0.0 | 0.00 | 0.33 | 0.00 | 93 | 1025.0 |
| 20260906045900 | 10 | 130 | 0.0 | 0.0 | 0.00 | 0.33 | 0.00 | 93 | 1025.0 |
| 20260906045800 | 10 | 130 | 0.0 | 0.0 | 0.00 | 0.33 | 0.00 | 93 | 1025.2 |
| 20260906045729 | 10 | 130 | 0.0 | 0.0 | 0.00 | 0.33 | 0.00 | 94 | 1025.2 |
| 20260906045700 | 10 | 130 | 0.0 | 0.0 | 0.00 | 0.33 | 0.00 | 94 | 1025.2 |
| 20260906045600 | 10 | 130 | 0.0 | 0.0 | 0.00 | 0.33 | 0.00 | 94 | 1025.2 |
| 20260906045458 | 10 | 130 | 0.0 | 0.0 | 0.00 | 0.33 | 0.00 | 94 | 1025.2 |
| 20260906045357 | 10 | 130 | 0.0 | 0.0 | 0.00 | 0.33 | 0.00 | 94 | 1025.2 |
| 20260906045259 | 10 | 130 | 0.0 | 0.0 | 0.00 | 0.33 | 0.00 | 94 | 1025.2 |
| 20260906045229 | 10 | 130 | 0.0 | 0.0 | 0.00 | 0.33 | 0.00 | 94 | 1025.2 |
| 20260906045153 | 10 | 130 | 0.0 | 0.0 | 0.00 | 0.33 | 0.00 | 94 | 1025.2 |
| 20260906045053 | 10 | 130 | 0.0 | 0.0 | 0.00 | 0.33 | 0.00 | 94 | 1025.2 |
| 20260906044951 | 10 | 130 | 0.0 | 0.0 | 0.00 | 0.33 | 0.00 | 94 | 1025.2 |
| 20260906044947 | 10 | 130 | 0.0 | 0.0 | 0.00 | 0.33 | 0.00 | 94 | 1025.2 |
| 20260906044939 | 10 | 130 | 0.0 | 0.0 | 0.00 | 0.33 | 0.00 | 94 | 1025.2 |
| 20260906044651 | 10 | 130 | 0.0 | 0.0 | 0.00 | 0.33 | 0.00 | 94 | 1025.2 |
| 20260906044552 | 10 | 130 | 0.0 | 0.0 | 0.00 | 0.33 | 0.00 | 94 | 1025.2 |
| 20260906044450 | 10 | 130 | 0.0 | 0.0 | 0.00 | 0.33 | 0.00 | 94 | 1025.2 |
| 20260906044349 | 10 | 130 | 0.0 | 0.0 | 0.00 | 0.33 | 0.00 | 94 | 1025.0 |
| 20260906044228 | 10 | 130 | 0.0 | 0.0 | 0.00 | 0.33 | 0.00 | 94 | 1025.0 |
| 20260906044146 | 10 | 130 | 0.0 | 0.0 | 0.00 | 0.33 | 0.00 | 94 | 1025.0 |
| 20260906044046 | 10 | 130 | 0.0 | 0.0 | 0.00 | 0.33 | 0.00 | 94 | 1025.0 |
| 20260906043943 | 10 | 130 | 0.0 | 0.0 | 0.00 | 0.33 | 0.00 | 94 | 1025.0 |
| 20260906043843 | 10 | 130 | 0.0 | 0.0 | 0.00 | 0.33 | 0.00 | 94 | 1025.0 |
| 20260906043729 | 10 | 130 | 0.0 | 0.0 | 0.00 | 0.33 | 0.00 | 94 | 1025.0 |
| 20260906043712 | 10 | 130 | 0.0 | 0.0 | 0.00 | 0.33 | 0.00 | 94 | 1024.9 |
| 20260906043703 | 10 | 130 | 0.0 | 0.0 | 0.00 | 0.33 | 0.00 | 94 | 1025.0 |
| 20260906043659 | 10 | 130 | 0.0 | 0.0 | 0.00 | 0.33 | 0.00 | 94 | 1025.0 |
| 20260906043655 | 10 | 130 | 0.0 | 0.0 | 0.00 | 0.33 | 0.00 | 94 | 1025.0 |
| 20260906043651 | 10 | 130 | 0.0 | 0.0 | 0.00 | 0.33 | 0.00 | 94 | 1025.0 |
| 20260906043643 | 10 | 130 | 0.0 | 0.0 | 0.00 | 0.33 | 0.00 | 94 | 1025.0 |
| 20260906043213 | 10 | 130 | 0.0 | 0.0 | 0.00 | 0.33 | 0.00 | 94 | 1025.0 |
| 20260906043208 | 10 | 130 | 0.0 | 0.0 | 0.00 | 0.33 | 0.00 | 94 | 1025.0 |
| 20260906042953 | 10 | 130 | 0.0 | 0.0 | 0.00 | 0.33 | 0.00 | 94 | 1025.0 |
| 20260906042949 | 10 | 130 | 0.0 | 0.0 | 0.00 | 0.33 | 0.00 | 94 | 1024.9 |
| 20260906042941 | 10 | 130 | 0.0 | 0.0 | 0.00 | 0.33 | 0.00 | 94 | 1024.9 |
| 20260906042629 | 10 | 130 | 0.0 | 0.0 | 0.00 | 0.33 | 0.00 | 94 | 1024.9 |
| 20260906042529 | 10 | 130 | 0.0 | 0.0 | 0.00 | 0.33 | 0.00 | 93 | 1024.9 |
| 20260906042452 | 10 | 130 | 0.0 | 0.0 | 0.00 | 0.33 | 0.00 | 93 | 1024.9 |
| 20260906042448 | 10 | 130 | 0.0 | 1.6 | 0.00 | 0.33 | 0.00 | 94 | 1024.9 |
| 20260906042440 | 10 | 130 | 0.0 | 1.6 | 0.00 | 0.33 | 0.00 | 93 | 1024.9 |
| 20260906042129 | 10 | 130 | 0.0 | 1.6 | 0.00 | 0.33 | 0.00 | 94 | 1024.9 |
| 20260906042029 | 10 | 130 | 0.0 | 1.6 | 0.00 | 0.33 | 0.00 | 94 | 1025.0 |
| 20260906041929 | 10 | 130 | 0.0 | 1.6 | 0.00 | 0.33 | 0.00 | 94 | 1025.0 |
| 20260906041829 | 10 | 130 | 0.0 | 1.6 | 0.00 | 0.33 | 0.00 | 94 | 1025.0 |
| 20260906041729 | 10 | 130 | 0.0 | 1.6 | 0.00 | 0.33 | 0.00 | 94 | 1025.0 |
| 20260906041629 | 10 | 130 | 0.0 | 1.6 | 0.00 | 0.33 | 0.00 | 94 | 1025.0 |
| 20260906041529 | 10 | 130 | 0.0 | 1.6 | 0.00 | 0.33 | 0.00 | 94 | 1025.0 |
| 20260906041429 | 10 | 130 | 0.0 | 1.6 | 0.00 | 0.33 | 0.00 | 94 | 1025.0 |
| 20260906041329 | 10 | 130 | 0.0 | 1.6 | 0.00 | 0.33 | 0.00 | 94 | 1024.9 |
| 20260906041229 | 10 | 130 | 0.0 | 1.6 | 0.00 | 0.33 | 0.00 | 94 | 1024.9 |
| 20260906041129 | 10 | 130 | 0.0 | 1.6 | 0.00 | 0.33 | 0.00 | 94 | 1024.9 |
| 20260906041029 | 10 | 130 | 0.0 | 1.6 | 0.00 | 0.33 | 0.00 | 95 | 1025.0 |
| 20260906040929 | 10 | 130 | 0.0 | 1.6 | 0.00 | 0.33 | 0.00 | 95 | 1024.9 |
| 20260906040829 | 10 | 130 | 0.0 | 1.6 | 0.00 | 0.33 | 0.00 | 95 | 1024.9 |
| 20260906040729 | 10 | 130 | 0.0 | 1.6 | 0.00 | 0.33 | 0.00 | 95 | 1024.9 |
| 20260906040628 | 10 | 130 | 0.0 | 1.6 | 0.00 | 0.33 | 0.00 | 95 | 1024.9 |
| 20260906040528 | 10 | 130 | 0.0 | 1.6 | 0.00 | 0.33 | 0.00 | 95 | 1024.8 |
| 20260906040428 | 10 | 130 | 0.0 | 3.2 | 0.00 | 0.33 | 0.00 | 95 | 1024.8 |
| 20260906040328 | 10 | 130 | 0.0 | 3.2 | 0.00 | 0.33 | 0.00 | 95 | 1024.9 |
| 20260906040228 | 10 | 130 | 0.0 | 3.2 | 0.00 | 0.33 | 0.00 | 95 | 1024.9 |
| 20260906040128 | 10 | 130 | 0.0 | 3.2 | 0.00 | 0.33 | 0.00 | 95 | 1024.9 |
| 20260906040028 | 10 | 130 | 0.0 | 3.2 | 0.00 | 0.33 | 0.00 | 95 | 1024.8 |
| 20260906035953 | 10 | 130 | 0.0 | 3.2 | 0.00 | 0.33 | 0.00 | 95 | 1024.8 |
| 20260906035949 | 10 | 130 | 0.0 | 3.2 | 0.00 | 0.33 | 0.00 | 95 | 1024.8 |
| 20260906035941 | 10 | 130 | 0.0 | 3.2 | 0.00 | 0.33 | 0.00 | 94 | 1024.8 |
| 20260906035630 | 10 | 130 | 0.0 | 3.2 | 0.00 | 0.33 | 0.00 | 95 | 1024.7 |
| 20260906035529 | 10 | 130 | 0.0 | 3.2 | 0.00 | 0.33 | 0.00 | 95 | 1024.7 |
| 20260906035430 | 10 | 130 | 0.0 | 3.2 | 0.00 | 0.33 | 0.00 | 95 | 1024.7 |
| 20260906035329 | 10 | 130 | 0.0 | 3.2 | 0.00 | 0.33 | 0.00 | 94 | 1024.7 |
| 20260906035234 | 10 | 130 | 0.0 | 3.2 | 0.00 | 0.33 | 0.00 | 94 | 1024.7 |
| 20260906035130 | 10 | 130 | 0.0 | 3.2 | 0.00 | 0.33 | 0.00 | 94 | 1024.7 |
| 20260906035030 | 10 | 130 | 0.0 | 3.2 | 0.00 | 0.33 | 0.00 | 94 | 1024.7 |
| 20260906034929 | 10 | 130 | 0.0 | 3.2 | 0.00 | 0.33 | 0.00 | 94 | 1024.7 |
| 20260906034829 | 10 | 130 | 0.0 | 3.2 | 0.00 | 0.33 | 0.00 | 94 | 1024.7 |
| 20260906034730 | 10 | 130 | 0.0 | 3.2 | 0.00 | 0.33 | 0.00 | 94 | 1024.7 |
| 20260906034629 | 10 | 130 | 0.0 | 3.2 | 0.00 | 0.33 | 0.00 | 94 | 1024.7 |
| 20260906034529 | 10 | 130 | 0.0 | 3.2 | 0.00 | 0.33 | 0.00 | 94 | 1024.7 |
| 20260906034429 | 10 | 130 | 0.0 | 3.2 | 0.00 | 0.33 | 0.00 | 94 | 1024.7 |
| 20260906034329 | 10 | 130 | 0.0 | 3.2 | 0.00 | 0.33 | 0.00 | 94 | 1024.7 |
| 20260906034229 | 10 | 130 | 0.0 | 3.2 | 0.00 | 0.33 | 0.00 | 94 | 1024.8 |
| 20260906034129 | 10 | 130 | 0.0 | 3.2 | 0.00 | 0.33 | 0.00 | 94 | 1024.8 |
| 20260906034029 | 10 | 130 | 0.0 | 3.2 | 0.00 | 0.33 | 0.00 | 94 | 1024.8 |
| 20260906033929 | 10 | 130 | 0.0 | 3.2 | 0.00 | 0.33 | 0.00 | 94 | 1024.8 |
| 20260906033829 | 10 | 130 | 0.0 | 3.2 | 0.00 | 0.33 | 0.00 | 94 | 1024.8 |
| 20260906033729 | 10 | 130 | 0.0 | 3.2 | 0.00 | 0.33 | 0.00 | 94 | 1024.8 |
| 20260906033629 | 10 | 130 | 0.0 | 3.2 | 0.00 | 0.33 | 0.00 | 94 | 1024.7 |
| 20260906033529 | 10 | 130 | 0.0 | 3.2 | 0.00 | 0.33 | 0.00 | 94 | 1024.8 |
| 20260906033428 | 10 | 130 | 0.0 | 3.2 | 0.00 | 0.33 | 0.00 | 94 | 1024.8 |
| 20260906033328 | 10 | 130 | 0.0 | 0.0 | 0.00 | 0.33 | 0.00 | 94 | 1024.8 |
| 20260906033228 | 10 | 130 | 0.0 | 0.0 | 0.00 | 0.33 | 0.00 | 94 | 1024.7 |
| 20260906033131 | 10 | 130 | 0.0 | 0.0 | 0.00 | 0.33 | 0.00 | 94 | 1024.8 |
| 20260906033027 | 10 | 130 | 0.0 | 0.0 | 0.00 | 0.33 | 0.00 | 94 | 1024.9 |
| 20260906032925 | 10 | 130 | 0.0 | 0.0 | 0.00 | 0.33 | 0.00 | 94 | 1024.8 |
| 20260906032825 | 10 | 130 | 0.0 | 0.0 | 0.00 | 0.33 | 0.00 | 94 | 1024.8 |
| 20260906032723 | 10 | 130 | 0.0 | 0.0 | 0.00 | 0.33 | 0.00 | 94 | 1024.8 |
| 20260906032623 | 10 | 130 | 0.0 | 0.0 | 0.00 | 0.33 | 0.00 | 94 | 1024.8 |
| 20260906032523 | 10 | 130 | 0.0 | 0.0 | 0.00 | 0.33 | 0.00 | 94 | 1024.8 |
| 20260906032423 | 10 | 130 | 0.0 | 0.0 | 0.00 | 0.33 | 0.00 | 94 | 1024.8 |
| 20260906032323 | 10 | 130 | 0.0 | 0.0 | 0.00 | 0.33 | 0.00 | 94 | 1024.8 |
| 20260906032221 | 10 | 130 | 0.0 | 0.0 | 0.00 | 0.33 | 0.00 | 94 | 1024.8 |
| 20260906032121 | 10 | 130 | 0.0 | 0.0 | 0.00 | 0.33 | 0.00 | 94 | 1024.8 |
| 20260906032019 | 10 | 130 | 0.0 | 0.0 | 0.00 | 0.33 | 0.00 | 94 | 1024.8 |
| 20260906031919 | 10 | 130 | 0.0 | 0.0 | 0.00 | 0.33 | 0.00 | 94 | 1024.8 |
| 20260906031819 | 10 | 130 | 0.0 | 0.0 | 0.00 | 0.33 | 0.00 | 94 | 1024.7 |
| 20260906031729 | 10 | 130 | 0.0 | 0.0 | 0.00 | 0.33 | 0.00 | 94 | 1024.7 |
| 20260906031719 | 10 | 130 | 0.0 | 0.0 | 0.00 | 0.33 | 0.00 | 94 | 1024.8 |
| 20260906031619 | 10 | 130 | 0.0 | 0.0 | 0.00 | 0.33 | 0.00 | 94 | 1024.8 |
| 20260906031519 | 10 | 130 | 0.0 | 0.0 | 0.00 | 0.33 | 0.00 | 93 | 1024.7 |
| 20260906031417 | 10 | 130 | 0.0 | 0.0 | 0.00 | 0.33 | 0.00 | 93 | 1024.8 |
| 20260906031317 | 10 | 130 | 0.0 | 0.0 | 0.00 | 0.33 | 0.00 | 93 | 1024.8 |
| 20260906031217 | 10 | 130 | 0.0 | 0.0 | 0.00 | 0.33 | 0.00 | 93 | 1024.8 |
| 20260906031117 | 10 | 130 | 0.0 | 0.0 | 0.00 | 0.33 | 0.00 | 93 | 1024.7 |
| 20260906031017 | 10 | 130 | 0.0 | 0.0 | 0.00 | 0.33 | 0.00 | 93 | 1024.7 |
| 20260906030915 | 10 | 130 | 0.0 | 0.0 | 0.00 | 0.33 | 0.00 | 93 | 1024.7 |
| 20260906030813 | 10 | 130 | 0.0 | 0.0 | 0.00 | 0.33 | 0.00 | 93 | 1024.7 |
| 20260906030728 | 10 | 130 | 0.0 | 0.0 | 0.00 | 0.33 | 0.00 | 93 | 1024.7 |
| 20260906030713 | 10 | 130 | 0.0 | 0.0 | 0.00 | 0.33 | 0.00 | 93 | 1024.6 |
| 20260906030611 | 10 | 130 | 0.0 | 0.0 | 0.00 | 0.33 | 0.00 | 93 | 1024.7 |
| 20260906030509 | 10 | 130 | 0.0 | 0.0 | 0.00 | 0.33 | 0.00 | 93 | 1024.6 |
| 20260906030409 | 10 | 130 | 0.0 | 0.0 | 0.00 | 0.33 | 0.00 | 93 | 1024.6 |
| 20260906030307 | 10 | 130 | 0.0 | 0.0 | 0.00 | 0.33 | 0.00 | 93 | 1024.6 |
| 20260906030208 | 10 | 130 | 0.0 | 0.0 | 0.00 | 0.33 | 0.00 | 93 | 1024.6 |
| 20260906030105 | 10 | 130 | 0.0 | 1.6 | 0.00 | 0.33 | 0.00 | 93 | 1024.6 |
| 20260906030005 | 10 | 130 | 0.0 | 1.6 | 0.00 | 0.33 | 0.00 | 93 | 1024.5 |
| 20260906025901 | 10 | 130 | 0.0 | 1.6 | 0.00 | 0.33 | 0.00 | 93 | 1024.5 |
| 20260906025801 | 10 | 130 | 0.0 | 1.6 | 0.00 | 0.33 | 0.00 | 93 | 1024.5 |
| 20260906025705 | 10 | 130 | 0.0 | 1.6 | 0.00 | 0.33 | 0.00 | 93 | 1024.5 |
| 20260906025602 | 10 | 130 | 0.0 | 1.6 | 0.00 | 0.33 | 0.00 | 93 | 1024.6 |
| 20260906025502 | 10 | 130 | 0.0 | 1.6 | 0.00 | 0.33 | 0.00 | 93 | 1024.5 |
| 20260906025402 | 10 | 130 | 0.0 | 1.6 | 0.00 | 0.33 | 0.00 | 93 | 1024.5 |
| 20260906025301 | 10 | 130 | 0.0 | 1.6 | 0.00 | 0.33 | 0.00 | 93 | 1024.5 |
| 20260906025229 | 10 | 130 | 0.0 | 1.6 | 0.00 | 0.33 | 0.00 | 93 | 1024.5 |
| 20260906025203 | 10 | 130 | 0.0 | 3.2 | 0.00 | 0.33 | 0.00 | 93 | 1024.6 |
| 20260906025102 | 10 | 130 | 0.0 | 3.2 | 0.00 | 0.33 | 0.00 | 93 | 1024.5 |
| 20260906025001 | 10 | 130 | 0.0 | 3.2 | 0.00 | 0.33 | 0.00 | 93 | 1024.5 |
| 20260906024901 | 10 | 130 | 0.0 | 3.2 | 0.00 | 0.33 | 0.00 | 93 | 1024.6 |
| 20260906024801 | 10 | 130 | 1.6 | 3.2 | 0.00 | 0.33 | 0.00 | 93 | 1024.5 |
| 20260906024701 | 10 | 130 | 1.6 | 3.2 | 0.00 | 0.33 | 0.00 | 93 | 1024.5 |
| 20260906024601 | 10 | 130 | 1.6 | 3.2 | 0.00 | 0.33 | 0.00 | 93 | 1024.5 |
| 20260906024501 | 10 | 130 | 1.6 | 3.2 | 0.00 | 0.33 | 0.00 | 93 | 1024.5 |
| 20260906024401 | 10 | 130 | 1.6 | 3.2 | 0.00 | 0.33 | 0.00 | 93 | 1024.5 |
| 20260906024301 | 10 | 130 | 1.6 | 3.2 | 0.00 | 0.33 | 0.00 | 93 | 1024.5 |
| 20260906024200 | 10 | 130 | 1.6 | 3.2 | 0.00 | 0.33 | 0.00 | 93 | 1024.5 |
| 20260906024100 | 10 | 130 | 1.6 | 3.2 | 0.00 | 0.33 | 0.00 | 93 | 1024.5 |
| 20260906024000 | 10 | 130 | 1.6 | 3.2 | 0.00 | 0.33 | 0.00 | 93 | 1024.5 |
| 20260906023900 | 10 | 130 | 1.6 | 4.8 | 0.00 | 0.33 | 0.00 | 93 | 1024.5 |
| 20260906023800 | 10 | 130 | 1.6 | 4.8 | 0.00 | 0.33 | 0.00 | 94 | 1024.5 |
| 20260906023701 | 10 | 130 | 1.6 | 4.8 | 0.00 | 0.33 | 0.00 | 94 | 1024.5 |
| 20260906023600 | 10 | 130 | 1.6 | 4.8 | 0.00 | 0.33 | 0.00 | 93 | 1024.5 |
| 20260906023500 | 10 | 130 | 1.6 | 4.8 | 0.00 | 0.33 | 0.00 | 94 | 1024.5 |
| 20260906023400 | 10 | 130 | 1.6 | 4.8 | 0.00 | 0.33 | 0.00 | 93 | 1024.5 |
| 20260906023300 | 10 | 130 | 1.6 | 4.8 | 0.00 | 0.33 | 0.00 | 93 | 1024.5 |
| 20260906023228 | 10 | 130 | 1.6 | 4.8 | 0.00 | 0.33 | 0.00 | 93 | 1024.5 |
| 20260906023201 | 10 | 130 | 1.6 | 4.8 | 0.00 | 0.33 | 0.00 | 93 | 1024.6 |
| 20260906023101 | 10 | 130 | 0.0 | 4.8 | 0.00 | 0.33 | 0.00 | 93 | 1024.5 |
| 20260906023001 | 10 | 128 | 0.0 | 4.8 | 0.00 | 0.33 | 0.00 | 93 | 1024.5 |
| 20260906022949 | 10 | 126 | 0.0 | 3.2 | 0.00 | 0.33 | 0.00 | 93 | 1024.5 |
| 20260906022944 | 10 | 127 | 0.0 | 1.6 | 0.00 | 0.33 | 0.00 | 93 | 1024.5 |
| 20260906022940 | 10 | 128 | 0.0 | 3.2 | 0.00 | 0.33 | 0.00 | 93 | 1024.5 |
| 20260906022701 | 10 | 126 | 0.0 | 3.2 | 0.00 | 0.33 | 0.00 | 93 | 1024.5 |
| 20260906022601 | 10 | 126 | 0.0 | 3.2 | 0.00 | 0.33 | 0.00 | 93 | 1024.6 |
| 20260906022501 | 10 | 126 | 1.6 | 3.2 | 0.00 | 0.33 | 0.00 | 93 | 1024.6 |
| 20260906022401 | 10 | 126 | 1.6 | 4.8 | 0.00 | 0.33 | 0.00 | 93 | 1024.6 |
| 20260906022301 | 10 | 126 | 1.6 | 4.8 | 0.00 | 0.33 | 0.00 | 92 | 1024.6 |
| 20260906022201 | 10 | 126 | 1.6 | 4.8 | 0.00 | 0.33 | 0.00 | 92 | 1024.6 |
| 20260906022101 | 10 | 126 | 1.6 | 4.8 | 0.00 | 0.33 | 0.00 | 92 | 1024.6 |
| 20260906022001 | 10 | 126 | 1.6 | 4.8 | 0.00 | 0.33 | 0.00 | 92 | 1024.5 |
| 20260906021901 | 10 | 126 | 1.6 | 4.8 | 0.00 | 0.33 | 0.00 | 92 | 1024.6 |
| 20260906021801 | 10 | 126 | 1.6 | 4.8 | 0.00 | 0.33 | 0.00 | 92 | 1024.5 |
| 20260906021729 | 10 | 126 | 1.6 | 4.8 | 0.00 | 0.33 | 0.00 | 92 | 1024.5 |
| 20260906021701 | 10 | 126 | 0.0 | 4.8 | 0.00 | 0.33 | 0.00 | 92 | 1024.6 |
| 20260906021600 | 10 | 126 | 0.0 | 4.8 | 0.00 | 0.33 | 0.00 | 92 | 1024.7 |
| 20260906021500 | 10 | 127 | 0.0 | 4.8 | 0.00 | 0.33 | 0.00 | 92 | 1024.6 |
| 20260906021401 | 10 | 134 | 0.0 | 3.2 | 0.00 | 0.33 | 0.00 | 92 | 1024.6 |
| 20260906021301 | 10 | 134 | 0.0 | 3.2 | 0.00 | 0.33 | 0.00 | 92 | 1024.7 |
| 20260906021228 | 10 | 134 | 0.0 | 3.2 | 0.00 | 0.33 | 0.00 | 92 | 1024.7 |
| 20260906021201 | 10 | 135 | 0.0 | 1.6 | 0.00 | 0.33 | 0.00 | 92 | 1024.6 |
| 20260906021101 | 10 | 135 | 0.0 | 1.6 | 0.00 | 0.33 | 0.00 | 92 | 1024.6 |
| 20260906021001 | 10 | 135 | 0.0 | 1.6 | 0.00 | 0.33 | 0.00 | 92 | 1024.6 |
| 20260906020901 | 10 | 135 | 0.0 | 1.6 | 0.00 | 0.33 | 0.00 | 92 | 1024.6 |
| 20260906020801 | 10 | 135 | 0.0 | 1.6 | 0.00 | 0.33 | 0.00 | 91 | 1024.6 |
| 20260906020700 | 10 | 135 | 0.0 | 1.6 | 0.00 | 0.33 | 0.00 | 91 | 1024.6 |
| 20260906020600 | 10 | 135 | 0.0 | 3.2 | 0.00 | 0.33 | 0.00 | 91 | 1024.7 |
| 20260906020500 | 10 | 135 | 0.0 | 3.2 | 0.00 | 0.33 | 0.00 | 91 | 1024.6 |
| 20260906020400 | 10 | 135 | 0.0 | 3.2 | 0.00 | 0.33 | 0.00 | 91 | 1024.6 |
| 20260906020300 | 10 | 135 | 0.0 | 3.2 | 0.00 | 0.33 | 0.00 | 91 | 1024.6 |
| 20260906020201 | 10 | 135 | 0.0 | 3.2 | 0.00 | 0.33 | 0.00 | 91 | 1024.6 |
| 20260906020059 | 10 | 135 | 0.0 | 3.2 | 0.00 | 0.33 | 0.00 | 91 | 1024.6 |
| 20260906015959 | 10 | 135 | 0.0 | 3.2 | 0.00 | 0.33 | 0.00 | 91 | 1024.6 |
| 20260906015859 | 10 | 135 | 0.0 | 3.2 | 0.00 | 0.33 | 0.00 | 91 | 1024.6 |
| 20260906015729 | 11 | 135 | 0.0 | 3.2 | 0.00 | 0.33 | 0.00 | 92 | 1024.6 |
| 20260906015659 | 11 | 135 | 0.0 | 3.2 | 0.00 | 0.33 | 0.00 | 92 | 1024.6 |
| 20260906015559 | 11 | 134 | 0.0 | 3.2 | 0.00 | 0.33 | 0.00 | 92 | 1024.6 |
| 20260906015458 | 11 | 135 | 0.0 | 0.0 | 0.00 | 0.33 | 0.00 | 92 | 1024.6 |
| 20260906015359 | 11 | 134 | 0.0 | 0.0 | 0.00 | 0.33 | 0.00 | 91 | 1024.6 |
| 20260906015229 | 11 | 134 | 0.0 | 0.0 | 0.00 | 0.33 | 0.00 | 91 | 1024.6 |
| 20260906015157 | 11 | 134 | 0.0 | 0.0 | 0.00 | 0.33 | 0.00 | 91 | 1024.6 |
| 20260906015055 | 11 | 134 | 0.0 | 0.0 | 0.00 | 0.33 | 0.00 | 91 | 1024.6 |
| 20260906014953 | 11 | 134 | 0.0 | 0.0 | 0.00 | 0.33 | 0.00 | 91 | 1024.6 |
| 20260906014853 | 11 | 134 | 0.0 | 0.0 | 0.00 | 0.33 | 0.00 | 91 | 1024.6 |
| 20260906014729 | 11 | 134 | 0.0 | 0.0 | 0.00 | 0.33 | 0.00 | 91 | 1024.6 |
| 20260906014651 | 11 | 134 | 0.0 | 0.0 | 0.00 | 0.33 | 0.00 | 91 | 1024.6 |
| 20260906014549 | 11 | 134 | 0.0 | 0.0 | 0.00 | 0.33 | 0.00 | 92 | 1024.6 |
| 20260906014447 | 11 | 134 | 0.0 | 0.0 | 0.00 | 0.33 | 0.00 | 92 | 1024.6 |
| 20260906014344 | 11 | 134 | 0.0 | 0.0 | 0.00 | 0.33 | 0.00 | 92 | 1024.6 |
| 20260906014229 | 11 | 134 | 0.0 | 0.0 | 0.00 | 0.33 | 0.00 | 92 | 1024.6 |
| 20260906014145 | 11 | 134 | 0.0 | 0.0 | 0.00 | 0.33 | 0.00 | 92 | 1024.6 |
| 20260906014043 | 11 | 134 | 0.0 | 0.0 | 0.00 | 0.33 | 0.00 | 92 | 1024.6 |
| 20260906013940 | 11 | 134 | 0.0 | 0.0 | 0.00 | 0.33 | 0.00 | 92 | 1024.5 |
| 20260906013841 | 11 | 134 | 0.0 | 0.0 | 0.00 | 0.33 | 0.00 | 92 | 1024.5 |
| 20260906013727 | 11 | 134 | 0.0 | 0.0 | 0.00 | 0.33 | 0.00 | 92 | 1024.4 |
| 20260906013639 | 11 | 134 | 0.0 | 0.0 | 0.00 | 0.33 | 0.00 | 92 | 1024.4 |
| 20260906013537 | 11 | 134 | 0.0 | 0.0 | 0.00 | 0.33 | 0.00 | 92 | 1024.4 |
| 20260906013435 | 11 | 134 | 0.0 | 0.0 | 0.00 | 0.33 | 0.00 | 92 | 1024.4 |
| 20260906013335 | 11 | 134 | 0.0 | 0.0 | 0.00 | 0.33 | 0.00 | 92 | 1024.4 |
| 20260906013226 | 11 | 134 | 0.0 | 0.0 | 0.00 | 0.33 | 0.00 | 92 | 1024.4 |
| 20260906013130 | 11 | 134 | 0.0 | 0.0 | 0.00 | 0.33 | 0.00 | 92 | 1024.4 |
| 20260906013030 | 11 | 134 | 0.0 | 0.0 | 0.00 | 0.33 | 0.00 | 92 | 1024.4 |
| 20260906012946 | 11 | 134 | 0.0 | 0.0 | 0.00 | 0.33 | 0.00 | 92 | 1024.4 |
| 20260906012942 | 11 | 134 | 0.0 | 0.0 | 0.00 | 0.33 | 0.00 | 92 | 1024.3 |
| 20260906012938 | 11 | 134 | 0.0 | 0.0 | 0.00 | 0.33 | 0.00 | 92 | 1024.4 |
| 20260906012629 | 11 | 134 | 0.0 | 0.0 | 0.00 | 0.33 | 0.00 | 92 | 1024.4 |
| 20260906012529 | 11 | 134 | 0.0 | 0.0 | 0.00 | 0.33 | 0.00 | 92 | 1024.4 |
| 20260906012429 | 11 | 134 | 0.0 | 0.0 | 0.00 | 0.33 | 0.00 | 92 | 1024.4 |
| 20260906012329 | 11 | 134 | 0.0 | 0.0 | 0.00 | 0.33 | 0.00 | 92 | 1024.4 |
| 20260906012225 | 11 | 134 | 0.0 | 0.0 | 0.00 | 0.33 | 0.00 | 92 | 1024.4 |
| 20260906012129 | 11 | 134 | 0.0 | 0.0 | 0.00 | 0.33 | 0.00 | 92 | 1024.4 |
| 20260906012029 | 11 | 134 | 0.0 | 0.0 | 0.00 | 0.33 | 0.00 | 92 | 1024.4 |
| 20260906011929 | 11 | 134 | 0.0 | 0.0 | 0.00 | 0.33 | 0.00 | 92 | 1024.4 |
| 20260906011829 | 11 | 134 | 0.0 | 0.0 | 0.00 | 0.33 | 0.00 | 92 | 1024.4 |
| 20260906011722 | 11 | 134 | 0.0 | 0.0 | 0.00 | 0.33 | 0.00 | 91 | 1024.4 |
| 20260906011628 | 11 | 134 | 0.0 | 0.0 | 0.00 | 0.33 | 0.00 | 92 | 1024.4 |
| 20260906011529 | 11 | 134 | 0.0 | 0.0 | 0.00 | 0.33 | 0.00 | 92 | 1024.4 |
| 20260906011429 | 11 | 134 | 0.0 | 0.0 | 0.00 | 0.33 | 0.00 | 91 | 1024.4 |
| 20260906011328 | 11 | 134 | 0.0 | 0.0 | 0.00 | 0.33 | 0.00 | 91 | 1024.4 |
| 20260906011221 | 11 | 134 | 0.0 | 0.0 | 0.00 | 0.33 | 0.00 | 91 | 1024.4 |
| 20260906011128 | 11 | 134 | 0.0 | 0.0 | 0.00 | 0.33 | 0.00 | 91 | 1024.4 |
| 20260906011029 | 11 | 134 | 0.0 | 0.0 | 0.00 | 0.33 | 0.00 | 91 | 1024.4 |
| 20260906010929 | 11 | 134 | 0.0 | 0.0 | 0.00 | 0.33 | 0.00 | 91 | 1024.4 |
| 20260906010829 | 11 | 134 | 0.0 | 0.0 | 0.00 | 0.33 | 0.00 | 91 | 1024.4 |
| 20260906010729 | 11 | 134 | 0.0 | 0.0 | 0.00 | 0.33 | 0.00 | 91 | 1024.3 |
| 20260906010718 | 11 | 134 | 0.0 | 0.0 | 0.00 | 0.33 | 0.00 | 91 | 1024.4 |
| 20260906010628 | 11 | 134 | 0.0 | 0.0 | 0.00 | 0.33 | 0.00 | 91 | 1024.4 |
| 20260906010528 | 11 | 134 | 0.0 | 0.0 | 0.00 | 0.33 | 0.00 | 91 | 1024.4 |
| 20260906010428 | 11 | 134 | 0.0 | 0.0 | 0.00 | 0.33 | 0.00 | 91 | 1024.4 |
| 20260906010328 | 11 | 134 | 0.0 | 0.0 | 0.00 | 0.33 | 0.00 | 91 | 1024.4 |
| 20260906010228 | 11 | 134 | 0.0 | 0.0 | 0.00 | 0.33 | 0.00 | 91 | 1024.4 |
| 20260906010219 | 11 | 134 | 0.0 | 1.6 | 0.00 | 0.33 | 0.00 | 91 | 1024.4 |
| 20260906010129 | 11 | 134 | 0.0 | 1.6 | 0.00 | 0.33 | 0.00 | 91 | 1024.4 |
| 20260906010030 | 11 | 134 | 0.0 | 1.6 | 0.00 | 0.33 | 0.00 | 91 | 1024.4 |
| 20260906005930 | 11 | 134 | 0.0 | 1.6 | 0.00 | 0.33 | 0.00 | 91 | 1024.4 |
| 20260906005828 | 11 | 134 | 0.0 | 1.6 | 0.00 | 0.33 | 0.00 | 91 | 1024.4 |
| 20260906005719 | 11 | 134 | 0.0 | 1.6 | 0.00 | 0.33 | 0.00 | 91 | 1024.4 |
| 20260906005629 | 11 | 134 | 0.0 | 1.6 | 0.00 | 0.33 | 0.00 | 91 | 1024.4 |
| 20260906005529 | 11 | 134 | 0.0 | 1.6 | 0.00 | 0.33 | 0.00 | 91 | 1024.4 |
| 20260906005429 | 11 | 134 | 0.0 | 1.6 | 0.00 | 0.33 | 0.00 | 91 | 1024.4 |
| 20260906005329 | 11 | 134 | 0.0 | 1.6 | 0.00 | 0.33 | 0.00 | 91 | 1024.4 |
| 20260906005218 | 11 | 134 | 0.0 | 1.6 | 0.00 | 0.33 | 0.00 | 91 | 1024.4 |
| 20260906005128 | 11 | 134 | 0.0 | 1.6 | 0.00 | 0.33 | 0.00 | 91 | 1024.4 |
| 20260906005029 | 11 | 134 | 0.0 | 1.6 | 0.00 | 0.33 | 0.00 | 90 | 1024.4 |
| 20260906004936 | 11 | 134 | 0.0 | 1.6 | 0.00 | 0.33 | 0.00 | 90 | 1024.5 |
| 20260906004931 | 11 | 134 | 0.0 | 1.6 | 0.00 | 0.33 | 0.00 | 90 | 1024.4 |
| 20260906004927 | 11 | 134 | 0.0 | 1.6 | 0.00 | 0.33 | 0.00 | 90 | 1024.4 |
| 20260906004923 | 11 | 134 | 0.0 | 1.6 | 0.00 | 0.33 | 0.00 | 90 | 1024.4 |
| 20260906004628 | 11 | 134 | 0.0 | 1.6 | 0.00 | 0.33 | 0.00 | 90 | 1024.5 |
| 20260906004532 | 11 | 134 | 0.0 | 3.2 | 0.00 | 0.33 | 0.00 | 90 | 1024.4 |
| 20260906004432 | 11 | 134 | 0.0 | 4.8 | 0.00 | 0.33 | 0.00 | 90 | 1024.4 |
| 20260906004428 | 11 | 134 | 1.6 | 6.4 | 0.00 | 0.33 | 0.00 | 90 | 1024.4 |
| 20260906004424 | 11 | 134 | 1.6 | 6.4 | 0.00 | 0.33 | 0.00 | 90 | 1024.4 |
| 20260906004129 | 11 | 134 | 1.6 | 6.4 | 0.00 | 0.33 | 0.00 | 90 | 1024.4 |
| 20260906004030 | 11 | 134 | 3.2 | 8.0 | 0.00 | 0.33 | 0.00 | 90 | 1024.4 |
| 20260906003929 | 11 | 134 | 3.2 | 8.0 | 0.00 | 0.33 | 0.00 | 90 | 1024.5 |
| 20260906003829 | 11 | 134 | 3.2 | 8.0 | 0.00 | 0.33 | 0.00 | 90 | 1024.5 |
| 20260906003729 | 11 | 134 | 3.2 | 8.0 | 0.00 | 0.33 | 0.00 | 90 | 1024.4 |
| 20260906003710 | 11 | 134 | 3.2 | 8.0 | 0.00 | 0.33 | 0.00 | 90 | 1024.5 |
| 20260906003629 | 11 | 134 | 3.2 | 8.0 | 0.00 | 0.33 | 0.00 | 90 | 1024.5 |
| 20260906003528 | 11 | 134 | 1.6 | 8.0 | 0.00 | 0.33 | 0.00 | 90 | 1024.5 |
| 20260906003429 | 11 | 134 | 1.6 | 8.0 | 0.00 | 0.33 | 0.00 | 90 | 1024.4 |
| 20260906003328 | 11 | 138 | 1.6 | 8.0 | 0.00 | 0.33 | 0.00 | 90 | 1024.5 |
| 20260906003228 | 11 | 139 | 1.6 | 8.0 | 0.00 | 0.33 | 0.00 | 90 | 1024.4 |
| 20260906003209 | 11 | 140 | 0.0 | 8.0 | 0.00 | 0.33 | 0.00 | 90 | 1024.5 |
| 20260906003129 | 11 | 139 | 0.0 | 8.0 | 0.00 | 0.33 | 0.00 | 91 | 1024.5 |
| 20260906003029 | 11 | 198 | 0.0 | 3.2 | 0.00 | 0.33 | 0.00 | 91 | 1024.4 |
| 20260906002929 | 11 | 198 | 0.0 | 0.0 | 0.00 | 0.33 | 0.00 | 91 | 1024.4 |
| 20260906002925 | 11 | 198 | 0.0 | 0.0 | 0.00 | 0.33 | 0.00 | 91 | 1024.4 |
| 20260906002921 | 11 | 198 | 0.0 | 0.0 | 0.00 | 0.33 | 0.00 | 91 | 1024.4 |
| 20260906002630 | 11 | 198 | 0.0 | 0.0 | 0.00 | 0.33 | 0.00 | 91 | 1024.4 |
| 20260906002529 | 11 | 198 | 0.0 | 0.0 | 0.00 | 0.33 | 0.00 | 90 | 1024.4 |
| 20260906002429 | 11 | 198 | 0.0 | 0.0 | 0.00 | 0.33 | 0.00 | 90 | 1024.4 |
| 20260906002328 | 11 | 198 | 0.0 | 0.0 | 0.00 | 0.33 | 0.00 | 90 | 1024.4 |
| 20260906002228 | 11 | 198 | 0.0 | 0.0 | 0.00 | 0.33 | 0.00 | 90 | 1024.4 |
| 20260906002209 | 11 | 198 | 0.0 | 0.0 | 0.00 | 0.33 | 0.00 | 90 | 1024.5 |
| 20260906002128 | 11 | 198 | 0.0 | 0.0 | 0.00 | 0.33 | 0.00 | 90 | 1024.5 |
| 20260906002029 | 12 | 198 | 0.0 | 0.0 | 0.00 | 0.33 | 0.00 | 90 | 1024.4 |
| 20260906001929 | 12 | 198 | 0.0 | 0.0 | 0.00 | 0.33 | 0.00 | 90 | 1024.4 |
| 20260906001829 | 12 | 198 | 0.0 | 0.0 | 0.00 | 0.33 | 0.00 | 90 | 1024.4 |
| 20260906001709 | 12 | 198 | 0.0 | 0.0 | 0.00 | 0.33 | 0.00 | 90 | 1024.4 |
| 20260906001628 | 12 | 198 | 0.0 | 0.0 | 0.00 | 0.33 | 0.00 | 90 | 1024.4 |
| 20260906001529 | 12 | 198 | 0.0 | 0.0 | 0.00 | 0.33 | 0.00 | 90 | 1024.3 |
| 20260906001429 | 12 | 198 | 0.0 | 0.0 | 0.00 | 0.33 | 0.00 | 90 | 1024.3 |
| 20260906001329 | 12 | 198 | 0.0 | 0.0 | 0.00 | 0.33 | 0.00 | 90 | 1024.4 |
| 20260906001209 | 12 | 198 | 0.0 | 0.0 | 0.00 | 0.33 | 0.00 | 90 | 1024.3 |
| 20260906001129 | 12 | 198 | 0.0 | 0.0 | 0.00 | 0.33 | 0.00 | 90 | 1024.3 |
| 20260906001029 | 12 | 198 | 0.0 | 0.0 | 0.00 | 0.33 | 0.00 | 90 | 1024.4 |
| 20260906000928 | 12 | 198 | 0.0 | 0.0 | 0.00 | 0.33 | 0.00 | 90 | 1024.3 |
| 20260906000828 | 12 | 198 | 0.0 | 0.0 | 0.00 | 0.33 | 0.00 | 90 | 1024.3 |
| 20260906000709 | 12 | 198 | 0.0 | 0.0 | 0.00 | 0.33 | 0.00 | 90 | 1024.3 |
| 20260906000629 | 12 | 198 | 0.0 | 0.0 | 0.00 | 0.33 | 0.00 | 90 | 1024.3 |
| 20260906000529 | 12 | 198 | 0.0 | 0.0 | 0.00 | 0.33 | 0.00 | 90 | 1024.3 |
| 20260906000429 | 12 | 198 | 0.0 | 0.0 | 0.00 | 0.33 | 0.00 | 90 | 1024.2 |
| 20260906000329 | 12 | 198 | 0.0 | 0.0 | 0.00 | 0.33 | 0.00 | 90 | 1024.2 |
| 20260906000208 | 12 | 198 | 0.0 | 0.0 | 0.00 | 0.33 | 0.00 | 90 | 1024.2 |
| 20260906000129 | 12 | 198 | 0.0 | 0.0 | 0.00 | 0.33 | 0.00 | 90 | 1024.2 |
| 20260906000029 | 12 | 198 | 0.0 | 0.0 | 0.00 | 0.33 | 0.00 | 90 | 1024.3 |
| 20260905235929 | 12 | 198 | 0.0 | 0.0 | 0.00 | 0.33 | 0.00 | 90 | 1024.3 |
| 20260905235825 | 12 | 198 | 0.0 | 0.0 | 0.00 | 0.33 | 0.00 | 90 | 1024.3 |
| 20260905235707 | 12 | 198 | 0.0 | 0.0 | 0.00 | 0.33 | 0.00 | 90 | 1024.3 |
| 20260905235622 | 12 | 198 | 0.0 | 0.0 | 0.00 | 0.33 | 0.00 | 90 | 1024.3 |
| 20260905235522 | 12 | 198 | 0.0 | 0.0 | 0.00 | 0.33 | 0.00 | 90 | 1024.3 |
| 20260905235420 | 12 | 198 | 0.0 | 0.0 | 0.00 | 0.33 | 0.00 | 90 | 1024.3 |
| 20260905235317 | 12 | 198 | 0.0 | 0.0 | 0.00 | 0.33 | 0.00 | 90 | 1024.3 |
| 20260905235207 | 12 | 198 | 0.0 | 0.0 | 0.00 | 0.33 | 0.00 | 90 | 1024.3 |
| 20260905235117 | 12 | 198 | 0.0 | 0.0 | 0.00 | 0.33 | 0.00 | 90 | 1024.4 |
| 20260905235017 | 12 | 198 | 0.0 | 0.0 | 0.00 | 0.33 | 0.00 | 90 | 1024.3 |
| 20260905234917 | 12 | 198 | 0.0 | 0.0 | 0.00 | 0.33 | 0.00 | 90 | 1024.3 |
| 20260905234817 | 12 | 198 | 0.0 | 0.0 | 0.00 | 0.33 | 0.00 | 90 | 1024.3 |
| 20260905234706 | 12 | 198 | 0.0 | 0.0 | 0.00 | 0.33 | 0.00 | 90 | 1024.4 |
| 20260905234615 | 12 | 198 | 0.0 | 0.0 | 0.00 | 0.33 | 0.00 | 90 | 1024.4 |
| 20260905234516 | 12 | 198 | 0.0 | 0.0 | 0.00 | 0.33 | 0.00 | 90 | 1024.4 |
| 20260905234412 | 12 | 198 | 0.0 | 0.0 | 0.00 | 0.33 | 0.00 | 90 | 1024.4 |
| 20260905234312 | 12 | 198 | 0.0 | 0.0 | 0.00 | 0.33 | 0.00 | 90 | 1024.4 |
| 20260905234206 | 12 | 198 | 0.0 | 0.0 | 0.00 | 0.33 | 0.00 | 90 | 1024.4 |
| 20260905234111 | 12 | 198 | 0.0 | 0.0 | 0.00 | 0.33 | 0.00 | 90 | 1024.4 |
| 20260905234011 | 12 | 198 | 0.0 | 0.0 | 0.00 | 0.33 | 0.00 | 90 | 1024.5 |
| 20260905233911 | 12 | 198 | 0.0 | 0.0 | 0.00 | 0.33 | 0.00 | 90 | 1024.4 |
| 20260905233811 | 12 | 198 | 0.0 | 0.0 | 0.00 | 0.33 | 0.00 | 90 | 1024.5 |
| 20260905233707 | 12 | 198 | 0.0 | 0.0 | 0.00 | 0.33 | 0.00 | 90 | 1024.4 |
| 20260905233611 | 12 | 198 | 0.0 | 0.0 | 0.00 | 0.33 | 0.00 | 90 | 1024.4 |
| 20260905233510 | 12 | 198 | 0.0 | 0.0 | 0.00 | 0.33 | 0.00 | 90 | 1024.5 |
| 20260905233411 | 12 | 198 | 0.0 | 0.0 | 0.00 | 0.33 | 0.00 | 90 | 1024.5 |
| 20260905233310 | 12 | 198 | 0.0 | 0.0 | 0.00 | 0.33 | 0.00 | 90 | 1024.4 |
| 20260905233202 | 12 | 198 | 0.0 | 0.0 | 0.00 | 0.33 | 0.00 | 90 | 1024.4 |
| 20260905233110 | 12 | 198 | 0.0 | 0.0 | 0.00 | 0.33 | 0.00 | 90 | 1024.4 |
| 20260905232906 | 12 | 198 | 0.0 | 0.0 | 0.00 | 0.33 | 0.00 | 90 | 1024.4 |
| 20260905232806 | 12 | 198 | 0.0 | 0.0 | 0.00 | 0.33 | 0.00 | 89 | 1024.4 |
| 20260905232703 | 12 | 198 | 0.0 | 0.0 | 0.00 | 0.33 | 0.00 | 89 | 1024.4 |
| 20260905232607 | 12 | 198 | 0.0 | 0.0 | 0.00 | 0.33 | 0.00 | 89 | 1024.4 |
| 20260905232507 | 12 | 198 | 0.0 | 0.0 | 0.00 | 0.33 | 0.00 | 89 | 1024.4 |
| 20260905232407 | 12 | 198 | 0.0 | 0.0 | 0.00 | 0.33 | 0.00 | 89 | 1024.4 |
| 20260905232306 | 12 | 198 | 0.0 | 0.0 | 0.00 | 0.33 | 0.00 | 89 | 1024.4 |
| 20260905232202 | 12 | 198 | 0.0 | 0.0 | 0.00 | 0.33 | 0.00 | 89 | 1024.4 |
| 20260905232106 | 12 | 198 | 0.0 | 0.0 | 0.00 | 0.33 | 0.00 | 89 | 1024.4 |
| 20260905232007 | 12 | 198 | 0.0 | 0.0 | 0.00 | 0.33 | 0.00 | 89 | 1024.4 |
| 20260905231906 | 12 | 198 | 0.0 | 0.0 | 0.00 | 0.33 | 0.00 | 89 | 1024.4 |
| 20260905231806 | 12 | 198 | 0.0 | 0.0 | 0.00 | 0.33 | 0.00 | 89 | 1024.4 |
| 20260905231703 | 12 | 198 | 0.0 | 0.0 | 0.00 | 0.33 | 0.00 | 89 | 1024.4 |
| 20260905231607 | 12 | 198 | 0.0 | 0.0 | 0.00 | 0.33 | 0.00 | 89 | 1024.4 |
| 20260905231507 | 12 | 198 | 0.0 | 0.0 | 0.00 | 0.33 | 0.00 | 89 | 1024.5 |
| 20260905231407 | 12 | 198 | 0.0 | 0.0 | 0.00 | 0.33 | 0.00 | 89 | 1024.4 |
| 20260905231307 | 12 | 198 | 0.0 | 0.0 | 0.00 | 0.33 | 0.00 | 89 | 1024.4 |
| 20260905231203 | 12 | 198 | 0.0 | 0.0 | 0.00 | 0.33 | 0.00 | 89 | 1024.4 |
| 20260905231107 | 12 | 198 | 0.0 | 0.0 | 0.00 | 0.33 | 0.00 | 89 | 1024.4 |
| 20260905231003 | 13 | 198 | 0.0 | 0.0 | 0.00 | 0.33 | 0.00 | 89 | 1024.5 |
| 20260905230903 | 13 | 198 | 0.0 | 0.0 | 0.00 | 0.33 | 0.00 | 89 | 1024.5 |
| 20260905230803 | 13 | 198 | 0.0 | 0.0 | 0.00 | 0.33 | 0.00 | 89 | 1024.5 |
| 20260905230702 | 13 | 198 | 0.0 | 0.0 | 0.00 | 0.33 | 0.00 | 89 | 1024.5 |
| 20260905230602 | 13 | 198 | 0.0 | 0.0 | 0.00 | 0.33 | 0.00 | 90 | 1024.5 |
| 20260905230502 | 13 | 198 | 0.0 | 0.0 | 0.00 | 0.33 | 0.00 | 90 | 1024.5 |
| 20260905230402 | 13 | 198 | 0.0 | 0.0 | 0.00 | 0.33 | 0.00 | 91 | 1024.5 |
| 20260905230302 | 13 | 198 | 0.0 | 0.0 | 0.00 | 0.33 | 0.00 | 91 | 1024.5 |
| 20260905230201 | 13 | 198 | 0.0 | 0.0 | 0.00 | 0.33 | 0.00 | 91 | 1024.5 |
| 20260905230100 | 13 | 198 | 0.0 | 0.0 | 0.00 | 0.33 | 0.00 | 90 | 1024.5 |
| 20260905230001 | 13 | 198 | 0.0 | 0.0 | 0.00 | 0.33 | 0.00 | 91 | 1024.5 |
| 20260905225901 | 13 | 198 | 0.0 | 1.6 | 0.00 | 0.33 | 0.00 | 91 | 1024.5 |
| 20260905225801 | 13 | 198 | 0.0 | 1.6 | 0.00 | 0.33 | 0.00 | 91 | 1024.5 |
| 20260905225702 | 13 | 198 | 0.0 | 1.6 | 0.00 | 0.33 | 0.00 | 90 | 1024.5 |
| 20260905225601 | 13 | 198 | 0.0 | 1.6 | 0.00 | 0.33 | 0.00 | 90 | 1024.5 |
| 20260905225501 | 13 | 198 | 0.0 | 3.2 | 0.00 | 0.33 | 0.00 | 91 | 1024.5 |
| 20260905225401 | 13 | 198 | 0.0 | 3.2 | 0.00 | 0.33 | 0.00 | 90 | 1024.5 |
| 20260905225301 | 13 | 198 | 0.0 | 3.2 | 0.00 | 0.33 | 0.00 | 90 | 1024.5 |
| 20260905225201 | 13 | 198 | 0.0 | 3.2 | 0.00 | 0.33 | 0.00 | 91 | 1024.5 |
| 20260905225101 | 13 | 198 | 0.0 | 3.2 | 0.00 | 0.33 | 0.00 | 91 | 1024.5 |
| 20260905225000 | 13 | 198 | 0.0 | 3.2 | 0.00 | 0.33 | 0.00 | 91 | 1024.5 |
| 20260905224900 | 13 | 198 | 0.0 | 3.2 | 0.00 | 0.33 | 0.00 | 90 | 1024.5 |
| 20260905224800 | 13 | 198 | 0.0 | 3.2 | 0.00 | 0.33 | 0.00 | 90 | 1024.5 |
| 20260905224700 | 13 | 198 | 0.0 | 3.2 | 0.00 | 0.33 | 0.00 | 90 | 1024.5 |
| 20260905224601 | 13 | 198 | 0.0 | 3.2 | 0.00 | 0.33 | 0.00 | 90 | 1024.4 |
| 20260905224501 | 13 | 198 | 0.0 | 3.2 | 0.00 | 0.33 | 0.00 | 90 | 1024.5 |
| 20260905224401 | 13 | 198 | 0.0 | 3.2 | 0.00 | 0.33 | 0.00 | 90 | 1024.4 |
| 20260905224300 | 13 | 198 | 0.0 | 3.2 | 0.00 | 0.33 | 0.00 | 90 | 1024.4 |
| 20260905224201 | 13 | 198 | 0.0 | 3.2 | 0.00 | 0.33 | 0.00 | 90 | 1024.4 |
| 20260905224101 | 13 | 198 | 0.0 | 3.2 | 0.00 | 0.33 | 0.00 | 89 | 1024.4 |
| 20260905224001 | 13 | 198 | 0.0 | 3.2 | 0.00 | 0.33 | 0.00 | 89 | 1024.4 |
| 20260905223920 | 13 | 198 | 0.0 | 3.2 | 0.00 | 0.33 | 0.00 | 89 | 1024.4 |
| 20260905223916 | 13 | 198 | 0.0 | 3.2 | 0.00 | 0.33 | 0.00 | 89 | 1024.4 |
| 20260905223912 | 13 | 213 | 0.0 | 3.2 | 0.00 | 0.33 | 0.00 | 89 | 1024.4 |
| 20260905223600 | 13 | 217 | 0.0 | 3.2 | 0.00 | 0.33 | 0.00 | 89 | 1024.4 |
| 20260905223500 | 13 | 217 | 0.0 | 3.2 | 0.00 | 0.33 | 0.00 | 89 | 1024.4 |
| 20260905223401 | 13 | 217 | 0.0 | 3.2 | 0.00 | 0.33 | 0.00 | 89 | 1024.4 |
| 20260905223301 | 13 | 217 | 0.0 | 3.2 | 0.00 | 0.33 | 0.00 | 89 | 1024.4 |
| 20260905223202 | 13 | 217 | 0.0 | 3.2 | 0.00 | 0.33 | 0.00 | 89 | 1024.4 |
| 20260905223101 | 13 | 241 | 0.0 | 1.6 | 0.00 | 0.33 | 0.00 | 89 | 1024.4 |
| 20260905223001 | 13 | 241 | 0.0 | 1.6 | 0.00 | 0.33 | 0.00 | 89 | 1024.4 |
| 20260905222905 | 13 | 241 | 0.0 | 1.6 | 0.00 | 0.33 | 0.00 | 89 | 1024.4 |
| 20260905222800 | 13 | 241 | 0.0 | 1.6 | 0.00 | 0.33 | 0.00 | 88 | 1024.4 |
| 20260905222701 | 13 | 241 | 0.0 | 1.6 | 0.00 | 0.33 | 0.00 | 88 | 1024.4 |
| 20260905222602 | 13 | 249 | 0.0 | 1.6 | 0.00 | 0.33 | 0.00 | 88 | 1024.4 |
| 20260905222501 | 13 | 257 | 0.0 | 1.6 | 0.00 | 0.33 | 0.00 | 88 | 1024.4 |
| 20260905222403 | 13 | 257 | 0.0 | 1.6 | 0.00 | 0.33 | 0.00 | 88 | 1024.4 |
| 20260905222301 | 13 | 257 | 0.0 | 1.6 | 0.00 | 0.33 | 0.00 | 88 | 1024.3 |
| 20260905222201 | 13 | 257 | 0.0 | 1.6 | 0.00 | 0.33 | 0.00 | 88 | 1024.4 |
| 20260905222101 | 13 | 257 | 0.0 | 1.6 | 0.00 | 0.33 | 0.00 | 89 | 1024.3 |
| 20260905222001 | 13 | 257 | 0.0 | 1.6 | 0.00 | 0.33 | 0.00 | 89 | 1024.3 |
| 20260905221901 | 13 | 257 | 0.0 | 1.6 | 0.00 | 0.33 | 0.00 | 89 | 1024.3 |
| 20260905221801 | 13 | 257 | 0.0 | 1.6 | 0.00 | 0.33 | 0.00 | 89 | 1024.3 |
| 20260905221701 | 13 | 257 | 0.0 | 1.6 | 0.00 | 0.33 | 0.00 | 89 | 1024.3 |
| 20260905221601 | 13 | 257 | 0.0 | 1.6 | 0.00 | 0.33 | 0.00 | 89 | 1024.3 |
| 20260905221501 | 13 | 259 | 0.0 | 1.6 | 0.00 | 0.33 | 0.00 | 88 | 1024.3 |
| 20260905221400 | 13 | 259 | 0.0 | 3.2 | 0.00 | 0.33 | 0.00 | 88 | 1024.3 |
| 20260905221301 | 13 | 261 | 0.0 | 3.2 | 0.00 | 0.33 | 0.00 | 88 | 1024.3 |
| 20260905221200 | 13 | 261 | 0.0 | 3.2 | 0.00 | 0.33 | 0.00 | 88 | 1024.3 |
| 20260905221100 | 13 | 261 | 0.0 | 3.2 | 0.00 | 0.33 | 0.00 | 88 | 1024.3 |
| 20260905221001 | 13 | 261 | 0.0 | 3.2 | 0.00 | 0.33 | 0.00 | 88 | 1024.3 |
| 20260905220901 | 13 | 261 | 0.0 | 3.2 | 0.00 | 0.33 | 0.00 | 88 | 1024.3 |
| 20260905220800 | 13 | 261 | 0.0 | 3.2 | 0.00 | 0.33 | 0.00 | 88 | 1024.3 |
| 20260905220701 | 13 | 261 | 0.0 | 3.2 | 0.00 | 0.33 | 0.00 | 88 | 1024.3 |
| 20260905220651 | 14 | 261 | 0.0 | 0.0 | 0.00 | 0.33 | 0.00 | 87 | 1024.3 |
| 20260905220647 | 13 | 261 | 0.0 | 3.2 | 0.00 | 0.33 | 0.00 | 88 | 1024.3 |
| 20260905220642 | 13 | 261 | 0.0 | 3.2 | 0.00 | 0.33 | 0.00 | 88 | 1024.3 |
| 20260905220425 | 13 | 261 | 0.0 | 3.2 | 0.00 | 0.33 | 0.00 | 88 | 1024.3 |
| 20260905220417 | 14 | 261 | 0.0 | 0.0 | 0.00 | 0.33 | 0.00 | 88 | 1024.3 |
| 20260905220413 | 14 | 261 | 0.0 | 0.0 | 0.00 | 0.33 | 0.00 | 87 | 1024.3 |
| 20260905220001 | 14 | 261 | 0.0 | 0.0 | 0.00 | 0.33 | 0.00 | 88 | 1024.3 |
| 20260905215901 | 14 | 261 | 0.0 | 0.0 | 0.00 | 0.33 | 0.33 | 88 | 1024.2 |
| 20260905215801 | 14 | 261 | 0.0 | 0.0 | 0.00 | 0.33 | 0.33 | 88 | 1024.3 |
| 20260905215701 | 14 | 261 | 0.0 | 0.0 | 0.00 | 0.33 | 0.33 | 88 | 1024.2 |
| 20260905215601 | 14 | 261 | 0.0 | 0.0 | 0.00 | 0.33 | 0.33 | 88 | 1024.3 |
| 20260905215501 | 14 | 261 | 0.0 | 0.0 | 0.00 | 0.33 | 0.33 | 88 | 1024.2 |
| 20260905215401 | 14 | 261 | 0.0 | 0.0 | 0.00 | 0.33 | 0.33 | 88 | 1024.2 |
| 20260905215305 | 14 | 261 | 0.0 | 0.0 | 0.00 | 0.33 | 0.33 | 88 | 1024.2 |
| 20260905215202 | 14 | 261 | 0.0 | 1.6 | 0.00 | 0.33 | 0.33 | 87 | 1024.3 |
| 20260905215101 | 14 | 261 | 0.0 | 1.6 | 0.00 | 0.33 | 0.33 | 87 | 1024.2 |
| 20260905215000 | 14 | 262 | 0.0 | 1.6 | 0.00 | 0.33 | 0.33 | 87 | 1024.2 |
| 20260905214901 | 14 | 262 | 0.0 | 1.6 | 0.00 | 0.33 | 0.33 | 87 | 1024.2 |
| 20260905214801 | 14 | 262 | 0.0 | 1.6 | 0.00 | 0.33 | 0.33 | 87 | 1024.2 |